<?xml version='1.0' encoding='UTF-8'?><gpx version="1.1" creator="JPX - https://github.com/jenetics/jpx" xmlns="http://www.topografix.com/GPX/1/1"><trk><trkseg><trkpt lat="53.368807151568696" lon="14.671087160596512"><ele>27.0</ele><time>2026-04-16T09:50:28.905Z</time></trkpt><trkpt lat="53.368760209221755" lon="14.671161357085875"><ele>27.0</ele><time>2026-04-16T09:50:29.905Z</time></trkpt><trkpt lat="53.368710639644725" lon="14.671243253662539"><ele>27.0</ele><time>2026-04-16T09:50:30.905Z</time></trkpt><trkpt lat="53.36866173924452" lon="14.671418106843502"><ele>27.0</ele><time>2026-04-16T09:50:32.905Z</time></trkpt><trkpt lat="53.36862640141168" lon="14.671538469027217"><ele>27.0</ele><time>2026-04-16T09:50:33.905Z</time></trkpt><trkpt lat="53.368586701844556" lon="14.671624566106747"><ele>27.0</ele><time>2026-04-16T09:50:34.905Z</time></trkpt><trkpt lat="53.36853124991934" lon="14.671718096873038"><ele>27.0</ele><time>2026-04-16T09:50:35.905Z</time></trkpt><trkpt lat="53.36846051795576" lon="14.671823888380153"><ele>27.0</ele><time>2026-04-16T09:50:36.905Z</time></trkpt><trkpt lat="53.36839586814086" lon="14.671880719810332"><ele>27.0</ele><time>2026-04-16T09:50:37.905Z</time></trkpt><trkpt lat="53.36831852423317" lon="14.671926846825802"><ele>27.0</ele><time>2026-04-16T09:50:38.905Z</time></trkpt><trkpt lat="53.36825292552061" lon="14.671976546104014"><ele>27.0</ele><time>2026-04-16T09:50:39.905Z</time></trkpt><trkpt lat="53.36817295414085" lon="14.672099817819626"><ele>27.0</ele><time>2026-04-16T09:50:40.905Z</time></trkpt><trkpt lat="53.36814057486009" lon="14.672192714489416"><ele>26.8</ele><time>2026-04-16T09:50:41.905Z</time></trkpt><trkpt lat="53.36809777669205" lon="14.67242565497506"><ele>26.6</ele><time>2026-04-16T09:50:43.905Z</time></trkpt><trkpt lat="53.36807848647713" lon="14.672561240917156"><ele>26.400000000000002</ele><time>2026-04-16T09:50:44.905Z</time></trkpt><trkpt lat="53.36805244808116" lon="14.672730252099962"><ele>26.200000000000003</ele><time>2026-04-16T09:50:45.905Z</time></trkpt><trkpt lat="53.368026608464106" lon="14.67289607421714"><ele>26.0</ele><time>2026-04-16T09:50:46.905Z</time></trkpt><trkpt lat="53.36799789723586" lon="14.673082860857898"><ele>26.6</ele><time>2026-04-16T09:50:47.905Z</time></trkpt><trkpt lat="53.36796785676251" lon="14.673241958502185"><ele>27.200000000000003</ele><time>2026-04-16T09:50:48.905Z</time></trkpt><trkpt lat="53.36791469112036" lon="14.67340486960301"><ele>27.799999999999997</ele><time>2026-04-16T09:50:49.905Z</time></trkpt><trkpt lat="53.367879630565" lon="14.673555610424756"><ele>28.4</ele><time>2026-04-16T09:50:50.905Z</time></trkpt><trkpt lat="53.36784957112935" lon="14.673702003857638"><ele>29.0</ele><time>2026-04-16T09:50:51.905Z</time></trkpt><trkpt lat="53.3678277339047" lon="14.67385970358785"><ele>29.0</ele><time>2026-04-16T09:50:52.905Z</time></trkpt><trkpt lat="53.36781321766838" lon="14.673989141433202"><ele>29.0</ele><time>2026-04-16T09:50:53.905Z</time></trkpt><trkpt lat="53.367802403082365" lon="14.67413579038727"><ele>29.0</ele><time>2026-04-16T09:50:54.905Z</time></trkpt><trkpt lat="53.3677799337005" lon="14.67425229070473"><ele>29.0</ele><time>2026-04-16T09:50:55.905Z</time></trkpt><trkpt lat="53.367759235628604" lon="14.674386302092934"><ele>29.0</ele><time>2026-04-16T09:50:56.905Z</time></trkpt><trkpt lat="53.36772537461507" lon="14.674593859821893"><ele>28.833333333333332</ele><time>2026-04-16T09:50:58.906Z</time></trkpt><trkpt lat="53.36771058289117" lon="14.674705009850596"><ele>28.666666666666664</ele><time>2026-04-16T09:50:59.906Z</time></trkpt><trkpt lat="53.36770446482707" lon="14.674813088330067"><ele>28.5</ele><time>2026-04-16T09:51:00.906Z</time></trkpt><trkpt lat="53.367684580181205" lon="14.674918672960713"><ele>28.333333333333336</ele><time>2026-04-16T09:51:01.906Z</time></trkpt><trkpt lat="53.36764897570771" lon="14.675015524722035"><ele>28.166666666666668</ele><time>2026-04-16T09:51:02.906Z</time></trkpt><trkpt lat="53.36760441253512" lon="14.675216972454724"><ele>28.0</ele><time>2026-04-16T09:51:04.906Z</time></trkpt><trkpt lat="53.3675899941847" lon="14.675321955198777"><ele>27.833333333333336</ele><time>2026-04-16T09:51:05.906Z</time></trkpt><trkpt lat="53.367544111348536" lon="14.675425196859186"><ele>27.666666666666668</ele><time>2026-04-16T09:51:06.906Z</time></trkpt><trkpt lat="53.36753672098644" lon="14.675548087219726"><ele>27.5</ele><time>2026-04-16T09:51:07.906Z</time></trkpt><trkpt lat="53.36749945630063" lon="14.67574820592514"><ele>27.333333333333336</ele><time>2026-04-16T09:51:09.906Z</time></trkpt><trkpt lat="53.36749176962629" lon="14.675872648228488"><ele>27.166666666666668</ele><time>2026-04-16T09:51:10.906Z</time></trkpt><trkpt lat="53.3674742178713" lon="14.676014101413779"><ele>27.0</ele><time>2026-04-16T09:51:11.906Z</time></trkpt><trkpt lat="53.36744234072277" lon="14.676173698831784"><ele>27.0</ele><time>2026-04-16T09:51:12.906Z</time></trkpt><trkpt lat="53.36739423026731" lon="14.676345461803423"><ele>27.000000000000004</ele><time>2026-04-16T09:51:13.906Z</time></trkpt><trkpt lat="53.36735232239786" lon="14.676502356882011"><ele>27.000000000000004</ele><time>2026-04-16T09:51:14.906Z</time></trkpt><trkpt lat="53.367311949757365" lon="14.676646520599126"><ele>27.0</ele><time>2026-04-16T09:51:15.906Z</time></trkpt><trkpt lat="53.36728323634033" lon="14.676826918505078"><ele>27.0</ele><time>2026-04-16T09:51:16.906Z</time></trkpt><trkpt lat="53.367266873562656" lon="14.677001557358999"><ele>27.400000000000002</ele><time>2026-04-16T09:51:17.906Z</time></trkpt><trkpt lat="53.36723220949768" lon="14.6771582856762"><ele>27.800000000000004</ele><time>2026-04-16T09:51:18.906Z</time></trkpt><trkpt lat="53.36721036625547" lon="14.677330599379772"><ele>28.2</ele><time>2026-04-16T09:51:19.906Z</time></trkpt><trkpt lat="53.36717877072095" lon="14.67747335015747"><ele>28.6</ele><time>2026-04-16T09:51:20.906Z</time></trkpt><trkpt lat="53.367158925286375" lon="14.67762736048492"><ele>29.0</ele><time>2026-04-16T09:51:21.906Z</time></trkpt><trkpt lat="53.367104642592864" lon="14.677771632603736"><ele>29.2</ele><time>2026-04-16T09:51:22.906Z</time></trkpt><trkpt lat="53.36709330440398" lon="14.677910631645332"><ele>29.4</ele><time>2026-04-16T09:51:23.906Z</time></trkpt><trkpt lat="53.367073147239346" lon="14.67802547505504"><ele>29.6</ele><time>2026-04-16T09:51:24.906Z</time></trkpt><trkpt lat="53.367037277175996" lon="14.678116810375862"><ele>29.8</ele><time>2026-04-16T09:51:25.906Z</time></trkpt><trkpt lat="53.36701055140935" lon="14.678303006399474"><ele>30.0</ele><time>2026-04-16T09:51:27.906Z</time></trkpt><trkpt lat="53.366964471279914" lon="14.678485287606579"><ele>30.0</ele><time>2026-04-16T09:51:29.904Z</time></trkpt><trkpt lat="53.36692722060918" lon="14.678572180102297"><ele>30.0</ele><time>2026-04-16T09:51:30.904Z</time></trkpt><trkpt lat="53.36692015973771" lon="14.678679407789728"><ele>30.0</ele><time>2026-04-16T09:51:31.903Z</time></trkpt><trkpt lat="53.36691223194312" lon="14.678788571138957"><ele>30.0</ele><time>2026-04-16T09:51:32.903Z</time></trkpt><trkpt lat="53.3669165532993" lon="14.678900729472867"><ele>30.0</ele><time>2026-04-16T09:51:33.903Z</time></trkpt><trkpt lat="53.36692880193923" lon="14.679032425897866"><ele>30.0</ele><time>2026-04-16T09:51:34.904Z</time></trkpt><trkpt lat="53.36693544022976" lon="14.67915820864418"><ele>30.0</ele><time>2026-04-16T09:51:35.903Z</time></trkpt><trkpt lat="53.36694724326009" lon="14.679267366444986"><ele>30.0</ele><time>2026-04-16T09:51:36.903Z</time></trkpt><trkpt lat="53.36696516786285" lon="14.679450242095042"><ele>30.0</ele><time>2026-04-16T09:51:38.903Z</time></trkpt><trkpt lat="53.36694947765175" lon="14.67955456568986"><ele>30.0</ele><time>2026-04-16T09:51:41.904Z</time></trkpt><trkpt lat="53.36696090680395" lon="14.679675719211563"><ele>30.0</ele><time>2026-04-16T09:51:44.904Z</time></trkpt><trkpt lat="53.36694636798705" lon="14.679803924693706"><ele>30.0</ele><time>2026-04-16T09:51:46.904Z</time></trkpt><trkpt lat="53.36699846572707" lon="14.679994083541134"><ele>30.0</ele><time>2026-04-16T09:51:48.904Z</time></trkpt><trkpt lat="53.3670624240753" lon="14.680100126175516"><ele>30.0</ele><time>2026-04-16T09:51:49.904Z</time></trkpt><trkpt lat="53.36713823665241" lon="14.680199954443248"><ele>30.0</ele><time>2026-04-16T09:51:50.904Z</time></trkpt><trkpt lat="53.367205738756226" lon="14.680274509805832"><ele>30.0</ele><time>2026-04-16T09:51:51.904Z</time></trkpt><trkpt lat="53.367271403994636" lon="14.680343310932457"><ele>30.0</ele><time>2026-04-16T09:51:52.904Z</time></trkpt><trkpt lat="53.36733992853293" lon="14.680414899796267"><ele>30.0</ele><time>2026-04-16T09:51:53.904Z</time></trkpt><trkpt lat="53.367426559833206" lon="14.680496954719803"><ele>29.4</ele><time>2026-04-16T09:51:54.904Z</time></trkpt><trkpt lat="53.3675134181794" lon="14.68056180618221"><ele>28.8</ele><time>2026-04-16T09:51:55.904Z</time></trkpt><trkpt lat="53.36759110370806" lon="14.680642993683005"><ele>28.200000000000003</ele><time>2026-04-16T09:51:56.904Z</time></trkpt><trkpt lat="53.36766027232824" lon="14.680711723329836"><ele>27.6</ele><time>2026-04-16T09:51:57.904Z</time></trkpt><trkpt lat="53.367713094111856" lon="14.680772398241993"><ele>27.0</ele><time>2026-04-16T09:51:58.904Z</time></trkpt><trkpt lat="53.367826480935975" lon="14.680879971013255"><ele>27.0</ele><time>2026-04-16T09:52:00.904Z</time></trkpt><trkpt lat="53.36791326057855" lon="14.680964869427479"><ele>27.000000000000004</ele><time>2026-04-16T09:52:02.904Z</time></trkpt><trkpt lat="53.36798366454215" lon="14.681055120491155"><ele>27.000000000000004</ele><time>2026-04-16T09:52:26.904Z</time></trkpt><trkpt lat="53.36808625247205" lon="14.681157639246383"><ele>27.0</ele><time>2026-04-16T09:52:28.904Z</time></trkpt><trkpt lat="53.368179061563104" lon="14.6812592068668"><ele>27.0</ele><time>2026-04-16T09:52:30.904Z</time></trkpt><trkpt lat="53.368267992778094" lon="14.681327595447305"><ele>26.333333333333332</ele><time>2026-04-16T09:52:32.904Z</time></trkpt><trkpt lat="53.368320179461996" lon="14.68139322872097"><ele>25.666666666666668</ele><time>2026-04-16T09:52:33.904Z</time></trkpt><trkpt lat="53.36838493164398" lon="14.68146093826579"><ele>25.0</ele><time>2026-04-16T09:52:34.904Z</time></trkpt><trkpt lat="53.368458653855065" lon="14.681526690992346"><ele>24.333333333333336</ele><time>2026-04-16T09:52:35.905Z</time></trkpt><trkpt lat="53.3685353061179" lon="14.681592916375601"><ele>23.666666666666668</ele><time>2026-04-16T09:52:36.905Z</time></trkpt><trkpt lat="53.368606204465394" lon="14.681652929907104"><ele>23.0</ele><time>2026-04-16T09:52:37.905Z</time></trkpt><trkpt lat="53.368671924910174" lon="14.681712877417537"><ele>23.0</ele><time>2026-04-16T09:52:38.905Z</time></trkpt><trkpt lat="53.36874098612406" lon="14.681786592304444"><ele>23.0</ele><time>2026-04-16T09:52:39.905Z</time></trkpt><trkpt lat="53.36879481711533" lon="14.681872008112133"><ele>23.0</ele><time>2026-04-16T09:52:40.905Z</time></trkpt><trkpt lat="53.36885394403941" lon="14.681942907035067"><ele>23.0</ele><time>2026-04-16T09:52:41.905Z</time></trkpt><trkpt lat="53.368920875955055" lon="14.682031511207214"><ele>23.0</ele><time>2026-04-16T09:52:42.905Z</time></trkpt><trkpt lat="53.36899131807214" lon="14.682139566352522"><ele>23.0</ele><time>2026-04-16T09:52:43.905Z</time></trkpt><trkpt lat="53.36905444976024" lon="14.682224062396967"><ele>22.333333333333336</ele><time>2026-04-16T09:52:44.905Z</time></trkpt><trkpt lat="53.369108028837914" lon="14.682305024572015"><ele>21.666666666666668</ele><time>2026-04-16T09:52:45.905Z</time></trkpt><trkpt lat="53.36915406620125" lon="14.682400126444813"><ele>21.0</ele><time>2026-04-16T09:52:46.905Z</time></trkpt><trkpt lat="53.369216382780635" lon="14.682455112917836"><ele>20.333333333333332</ele><time>2026-04-16T09:52:47.905Z</time></trkpt><trkpt lat="53.36928728972298" lon="14.682510204632075"><ele>19.666666666666664</ele><time>2026-04-16T09:52:48.905Z</time></trkpt><trkpt lat="53.36937527526824" lon="14.682539092751453"><ele>19.0</ele><time>2026-04-16T09:52:49.905Z</time></trkpt><trkpt lat="53.36946945036881" lon="14.682540598318399"><ele>19.0</ele><time>2026-04-16T09:52:50.905Z</time></trkpt><trkpt lat="53.36956791111445" lon="14.682552697776915"><ele>19.0</ele><time>2026-04-16T09:52:51.905Z</time></trkpt><trkpt lat="53.36964437173667" lon="14.682572613692306"><ele>19.0</ele><time>2026-04-16T09:52:52.905Z</time></trkpt><trkpt lat="53.369746360955816" lon="14.682586009724897"><ele>19.0</ele><time>2026-04-16T09:52:54.905Z</time></trkpt><trkpt lat="53.369859190029295" lon="14.682812820422726"><ele>18.166666666666664</ele><time>2026-04-16T09:52:59.905Z</time></trkpt><trkpt lat="53.369789052550985" lon="14.683033659425842"><ele>17.333333333333332</ele><time>2026-04-16T09:53:01.905Z</time></trkpt><trkpt lat="53.36977234593678" lon="14.683142662057525"><ele>16.5</ele><time>2026-04-16T09:53:02.905Z</time></trkpt><trkpt lat="53.36976470113814" lon="14.683252100930087"><ele>15.666666666666668</ele><time>2026-04-16T09:53:03.905Z</time></trkpt><trkpt lat="53.36976737783585" lon="14.683367311820563"><ele>14.833333333333334</ele><time>2026-04-16T09:53:04.905Z</time></trkpt><trkpt lat="53.369763688614306" lon="14.683474107518043"><ele>14.0</ele><time>2026-04-16T09:53:05.905Z</time></trkpt><trkpt lat="53.369761585642" lon="14.683580174225009"><ele>13.25</ele><time>2026-04-16T09:53:06.905Z</time></trkpt><trkpt lat="53.36978321605797" lon="14.683784491535757"><ele>12.5</ele><time>2026-04-16T09:53:08.905Z</time></trkpt><trkpt lat="53.36979874413419" lon="14.68399290657422"><ele>11.75</ele><time>2026-04-16T09:53:10.905Z</time></trkpt><trkpt lat="53.36968683759835" lon="14.684103411592092"><ele>11.0</ele><time>2026-04-16T09:53:11.905Z</time></trkpt><trkpt lat="53.36963589823537" lon="14.68420938208193"><ele>11.0</ele><time>2026-04-16T09:53:12.905Z</time></trkpt><trkpt lat="53.36959915042068" lon="14.684318580078441"><ele>11.0</ele><time>2026-04-16T09:53:13.905Z</time></trkpt><trkpt lat="53.369565370035104" lon="14.684418959814211"><ele>11.0</ele><time>2026-04-16T09:53:14.905Z</time></trkpt><trkpt lat="53.369551594811774" lon="14.68452673438135"><ele>11.0</ele><time>2026-04-16T09:53:15.905Z</time></trkpt><trkpt lat="53.36953245828014" lon="14.684633259401942"><ele>11.0</ele><time>2026-04-16T09:53:16.905Z</time></trkpt><trkpt lat="53.36949483789214" lon="14.684724454657605"><ele>11.0</ele><time>2026-04-16T09:53:17.905Z</time></trkpt><trkpt lat="53.36945832701645" lon="14.68485380183133"><ele>11.0</ele><time>2026-04-16T09:53:18.905Z</time></trkpt><trkpt lat="53.3693900728692" lon="14.68503638337989"><ele>10.666666666666666</ele><time>2026-04-16T09:53:20.905Z</time></trkpt><trkpt lat="53.36930502865709" lon="14.685058699443026"><ele>10.333333333333332</ele><time>2026-04-16T09:53:21.905Z</time></trkpt><trkpt lat="53.36922538199597" lon="14.685149095435145"><ele>10.0</ele><time>2026-04-16T09:53:22.905Z</time></trkpt><trkpt lat="53.36915513105122" lon="14.685239511387246"><ele>9.666666666666666</ele><time>2026-04-16T09:53:23.905Z</time></trkpt><trkpt lat="53.36910152851641" lon="14.68531631139702"><ele>9.333333333333334</ele><time>2026-04-16T09:53:24.905Z</time></trkpt><trkpt lat="53.36903133240433" lon="14.685433295279427"><ele>9.0</ele><time>2026-04-16T09:53:25.905Z</time></trkpt><trkpt lat="53.368985236236696" lon="14.685514551863433"><ele>8.833333333333334</ele><time>2026-04-16T09:53:26.905Z</time></trkpt><trkpt lat="53.36891851121329" lon="14.685569203377963"><ele>8.666666666666666</ele><time>2026-04-16T09:53:27.905Z</time></trkpt><trkpt lat="53.36886962109971" lon="14.685737424967954"><ele>8.5</ele><time>2026-04-16T09:53:29.905Z</time></trkpt><trkpt lat="53.36885704251168" lon="14.685888311514132"><ele>8.333333333333332</ele><time>2026-04-16T09:53:30.905Z</time></trkpt><trkpt lat="53.36884765900482" lon="14.686039903162868"><ele>8.166666666666666</ele><time>2026-04-16T09:53:31.905Z</time></trkpt><trkpt lat="53.368836285383374" lon="14.686144718916152"><ele>8.0</ele><time>2026-04-16T09:53:32.905Z</time></trkpt><trkpt lat="53.36882805793219" lon="14.68633244853028"><ele>8.4</ele><time>2026-04-16T09:53:34.902Z</time></trkpt><trkpt lat="53.36882047743939" lon="14.686519264537926"><ele>8.8</ele><time>2026-04-16T09:53:36.903Z</time></trkpt><trkpt lat="53.36886038423394" lon="14.686712908715021"><ele>9.2</ele><time>2026-04-16T09:53:38.903Z</time></trkpt><trkpt lat="53.36890737703143" lon="14.686829445590993"><ele>9.6</ele><time>2026-04-16T09:53:39.903Z</time></trkpt><trkpt lat="53.368960824409015" lon="14.686956101475474"><ele>10.0</ele><time>2026-04-16T09:53:40.902Z</time></trkpt><trkpt lat="53.36901802248217" lon="14.687075691650817"><ele>10.2</ele><time>2026-04-16T09:53:41.902Z</time></trkpt><trkpt lat="53.369069850207076" lon="14.687199805557832"><ele>10.4</ele><time>2026-04-16T09:53:42.902Z</time></trkpt><trkpt lat="53.36912344745806" lon="14.687300305263383"><ele>10.600000000000001</ele><time>2026-04-16T09:53:43.902Z</time></trkpt><trkpt lat="53.36918852687649" lon="14.687382578489235"><ele>10.8</ele><time>2026-04-16T09:53:44.902Z</time></trkpt><trkpt lat="53.36925634052496" lon="14.687443962512752"><ele>11.0</ele><time>2026-04-16T09:53:45.902Z</time></trkpt><trkpt lat="53.36936574294818" lon="14.68757521087811"><ele>11.0</ele><time>2026-04-16T09:53:47.902Z</time></trkpt><trkpt lat="53.36945335191639" lon="14.687638708516156"><ele>11.0</ele><time>2026-04-16T09:53:48.902Z</time></trkpt><trkpt lat="53.3695537225137" lon="14.687692264421653"><ele>11.0</ele><time>2026-04-16T09:53:49.902Z</time></trkpt><trkpt lat="53.36967703851014" lon="14.687797960358763"><ele>11.0</ele><time>2026-04-16T09:53:51.902Z</time></trkpt><trkpt lat="53.36971630735271" lon="14.688019535937725"><ele>10.600000000000001</ele><time>2026-04-16T09:53:53.902Z</time></trkpt><trkpt lat="53.36972040131342" lon="14.688197275579038"><ele>10.200000000000001</ele><time>2026-04-16T09:53:54.902Z</time></trkpt><trkpt lat="53.369705429755676" lon="14.68838706656361"><ele>9.8</ele><time>2026-04-16T09:53:55.902Z</time></trkpt><trkpt lat="53.36970528653206" lon="14.688539696603863"><ele>9.4</ele><time>2026-04-16T09:53:56.902Z</time></trkpt><trkpt lat="53.36972956231249" lon="14.688661767047618"><ele>9.0</ele><time>2026-04-16T09:53:57.902Z</time></trkpt><trkpt lat="53.36977011652976" lon="14.688792552887254"><ele>9.0</ele><time>2026-04-16T09:53:58.902Z</time></trkpt><trkpt lat="53.36982078544635" lon="14.688929968693067"><ele>9.0</ele><time>2026-04-16T09:53:59.902Z</time></trkpt><trkpt lat="53.369893754042025" lon="14.689037615622965"><ele>9.0</ele><time>2026-04-16T09:54:00.902Z</time></trkpt><trkpt lat="53.36997442144134" lon="14.689126310569483"><ele>9.0</ele><time>2026-04-16T09:54:01.902Z</time></trkpt><trkpt lat="53.37005905349941" lon="14.689226467176084"><ele>9.0</ele><time>2026-04-16T09:54:02.902Z</time></trkpt><trkpt lat="53.37013051086754" lon="14.68931664743952"><ele>9.0</ele><time>2026-04-16T09:54:03.902Z</time></trkpt><trkpt lat="53.37020510492923" lon="14.689413934622344"><ele>9.0</ele><time>2026-04-16T09:54:04.902Z</time></trkpt><trkpt lat="53.37028473509783" lon="14.689513632976091"><ele>9.0</ele><time>2026-04-16T09:54:05.902Z</time></trkpt><trkpt lat="53.37036589044724" lon="14.689627431937591"><ele>9.0</ele><time>2026-04-16T09:54:06.902Z</time></trkpt><trkpt lat="53.370455011967074" lon="14.689736675979413"><ele>9.0</ele><time>2026-04-16T09:54:07.902Z</time></trkpt><trkpt lat="53.370544696356" lon="14.689849716080815"><ele>9.4</ele><time>2026-04-16T09:54:08.902Z</time></trkpt><trkpt lat="53.37062838471755" lon="14.689941453277893"><ele>9.8</ele><time>2026-04-16T09:54:09.902Z</time></trkpt><trkpt lat="53.37070032634664" lon="14.690033688932843"><ele>10.200000000000001</ele><time>2026-04-16T09:54:10.902Z</time></trkpt><trkpt lat="53.37076793208723" lon="14.690122447179071"><ele>10.600000000000001</ele><time>2026-04-16T09:54:11.902Z</time></trkpt><trkpt lat="53.37082814618478" lon="14.690189143336651"><ele>11.0</ele><time>2026-04-16T09:54:12.902Z</time></trkpt><trkpt lat="53.37093191162778" lon="14.690304818478374"><ele>11.200000000000001</ele><time>2026-04-16T09:54:14.902Z</time></trkpt><trkpt lat="53.370982515571654" lon="14.690408822667996"><ele>11.4</ele><time>2026-04-16T09:54:16.903Z</time></trkpt><trkpt lat="53.37086817909509" lon="14.690535631212866"><ele>11.6</ele><time>2026-04-16T09:54:17.903Z</time></trkpt><trkpt lat="53.37079046346261" lon="14.690641949207846"><ele>11.8</ele><time>2026-04-16T09:54:18.903Z</time></trkpt><trkpt lat="53.37069924013458" lon="14.690791689886318"><ele>12.0</ele><time>2026-04-16T09:54:19.903Z</time></trkpt><trkpt lat="53.37059235797337" lon="14.69093916649106"><ele>12.0</ele><time>2026-04-16T09:54:20.903Z</time></trkpt><trkpt lat="53.370484728186135" lon="14.691086886342665"><ele>12.0</ele><time>2026-04-16T09:54:21.903Z</time></trkpt><trkpt lat="53.37036234070923" lon="14.69124742013331"><ele>12.0</ele><time>2026-04-16T09:54:22.903Z</time></trkpt><trkpt lat="53.37023606336602" lon="14.69142066548237"><ele>12.0</ele><time>2026-04-16T09:54:23.903Z</time></trkpt><trkpt lat="53.37011884163643" lon="14.691583839966887"><ele>12.0</ele><time>2026-04-16T09:54:24.903Z</time></trkpt><trkpt lat="53.370012589147755" lon="14.691728112520524"><ele>12.0</ele><time>2026-04-16T09:54:25.903Z</time></trkpt><trkpt lat="53.369913717074866" lon="14.691864660835716"><ele>12.0</ele><time>2026-04-16T09:54:26.903Z</time></trkpt><trkpt lat="53.36980139455782" lon="14.691991067327088"><ele>12.0</ele><time>2026-04-16T09:54:27.903Z</time></trkpt><trkpt lat="53.3697098573117" lon="14.692116215728682"><ele>12.0</ele><time>2026-04-16T09:54:28.903Z</time></trkpt><trkpt lat="53.36962395803294" lon="14.692237394183369"><ele>12.0</ele><time>2026-04-16T09:54:29.903Z</time></trkpt><trkpt lat="53.36954515266638" lon="14.692359374175677"><ele>12.0</ele><time>2026-04-16T09:54:30.903Z</time></trkpt><trkpt lat="53.36946068815617" lon="14.692486008914246"><ele>12.25</ele><time>2026-04-16T09:54:31.903Z</time></trkpt><trkpt lat="53.369371701366425" lon="14.69260797952653"><ele>12.5</ele><time>2026-04-16T09:54:32.903Z</time></trkpt><trkpt lat="53.36927669031693" lon="14.692735960077572"><ele>12.75</ele><time>2026-04-16T09:54:33.903Z</time></trkpt><trkpt lat="53.36918221768121" lon="14.692854243568487"><ele>13.0</ele><time>2026-04-16T09:54:34.903Z</time></trkpt><trkpt lat="53.369094677031356" lon="14.692972412968945"><ele>13.0</ele><time>2026-04-16T09:54:35.903Z</time></trkpt><trkpt lat="53.36901853009667" lon="14.693099654866836"><ele>13.0</ele><time>2026-04-16T09:54:36.903Z</time></trkpt><trkpt lat="53.368933090829536" lon="14.693198249141602"><ele>13.0</ele><time>2026-04-16T09:54:37.903Z</time></trkpt><trkpt lat="53.36885031482097" lon="14.69331164249129"><ele>13.0</ele><time>2026-04-16T09:54:38.903Z</time></trkpt><trkpt lat="53.3687663130029" lon="14.693429811267471"><ele>13.0</ele><time>2026-04-16T09:54:39.903Z</time></trkpt><trkpt lat="53.36868516316819" lon="14.69354433220182"><ele>14.0</ele><time>2026-04-16T09:54:40.903Z</time></trkpt><trkpt lat="53.36860377308296" lon="14.69365035790886"><ele>15.0</ele><time>2026-04-16T09:54:41.903Z</time></trkpt><trkpt lat="53.36851831187186" lon="14.693755910255339"><ele>16.0</ele><time>2026-04-16T09:54:42.903Z</time></trkpt><trkpt lat="53.36843981394971" lon="14.69387103989489"><ele>17.0</ele><time>2026-04-16T09:54:43.903Z</time></trkpt><trkpt lat="53.36836879811504" lon="14.693969231239922"><ele>18.0</ele><time>2026-04-16T09:54:44.903Z</time></trkpt><trkpt lat="53.36829181246784" lon="14.69405992884188"><ele>18.0</ele><time>2026-04-16T09:54:45.903Z</time></trkpt><trkpt lat="53.368218516797654" lon="14.694147832144282"><ele>18.0</ele><time>2026-04-16T09:54:46.903Z</time></trkpt><trkpt lat="53.36814128187123" lon="14.694229984701352"><ele>18.0</ele><time>2026-04-16T09:54:47.903Z</time></trkpt><trkpt lat="53.3680644853057" lon="14.694329723669423"><ele>18.0</ele><time>2026-04-16T09:54:48.903Z</time></trkpt><trkpt lat="53.367988804344165" lon="14.69443605064583"><ele>18.0</ele><time>2026-04-16T09:54:49.903Z</time></trkpt><trkpt lat="53.36790527536536" lon="14.69454193704998"><ele>19.75</ele><time>2026-04-16T09:54:50.903Z</time></trkpt><trkpt lat="53.36781760006988" lon="14.694667599039153"><ele>21.5</ele><time>2026-04-16T09:54:51.903Z</time></trkpt><trkpt lat="53.36773993755898" lon="14.694806813626307"><ele>23.25</ele><time>2026-04-16T09:54:52.903Z</time></trkpt><trkpt lat="53.367652684892164" lon="14.694934349369932"><ele>25.0</ele><time>2026-04-16T09:54:53.903Z</time></trkpt><trkpt lat="53.367578778792335" lon="14.69506281577943"><ele>25.0</ele><time>2026-04-16T09:54:54.903Z</time></trkpt><trkpt lat="53.367498299307066" lon="14.69518929724895"><ele>25.0</ele><time>2026-04-16T09:54:55.903Z</time></trkpt><trkpt lat="53.36741663278362" lon="14.695324099467813"><ele>25.0</ele><time>2026-04-16T09:54:56.903Z</time></trkpt><trkpt lat="53.36732755839687" lon="14.6954549303635"><ele>25.0</ele><time>2026-04-16T09:54:57.903Z</time></trkpt><trkpt lat="53.36724863726557" lon="14.695585033350978"><ele>24.75</ele><time>2026-04-16T09:54:58.903Z</time></trkpt><trkpt lat="53.36717458240489" lon="14.695699415456016"><ele>24.5</ele><time>2026-04-16T09:54:59.903Z</time></trkpt><trkpt lat="53.36708276764269" lon="14.695834071553675"><ele>24.25</ele><time>2026-04-16T09:55:00.903Z</time></trkpt><trkpt lat="53.36698342932639" lon="14.695983758522788"><ele>24.0</ele><time>2026-04-16T09:55:01.903Z</time></trkpt><trkpt lat="53.36686324859913" lon="14.696127012778106"><ele>23.5</ele><time>2026-04-16T09:55:02.903Z</time></trkpt><trkpt lat="53.366751069006625" lon="14.69626764109863"><ele>23.0</ele><time>2026-04-16T09:55:03.903Z</time></trkpt><trkpt lat="53.366658358719555" lon="14.696396832712294"><ele>22.5</ele><time>2026-04-16T09:55:04.903Z</time></trkpt><trkpt lat="53.366560698996395" lon="14.6965353947913"><ele>22.0</ele><time>2026-04-16T09:55:05.903Z</time></trkpt><trkpt lat="53.36646095550471" lon="14.696693086071237"><ele>22.25</ele><time>2026-04-16T09:55:06.903Z</time></trkpt><trkpt lat="53.36635213412112" lon="14.69682680420998"><ele>22.5</ele><time>2026-04-16T09:55:07.903Z</time></trkpt><trkpt lat="53.36624925343293" lon="14.696961766979571"><ele>22.75</ele><time>2026-04-16T09:55:08.903Z</time></trkpt><trkpt lat="53.36614080593041" lon="14.697110357952333"><ele>23.0</ele><time>2026-04-16T09:55:09.903Z</time></trkpt><trkpt lat="53.36605935340448" lon="14.697255854607924"><ele>23.25</ele><time>2026-04-16T09:55:10.903Z</time></trkpt><trkpt lat="53.365976085398025" lon="14.697381983764805"><ele>23.5</ele><time>2026-04-16T09:55:11.903Z</time></trkpt><trkpt lat="53.36589840957219" lon="14.697517341478726"><ele>23.75</ele><time>2026-04-16T09:55:12.903Z</time></trkpt><trkpt lat="53.365801222440076" lon="14.697637339398895"><ele>24.0</ele><time>2026-04-16T09:55:13.903Z</time></trkpt><trkpt lat="53.36572215602709" lon="14.697768546201631"><ele>24.25</ele><time>2026-04-16T09:55:14.903Z</time></trkpt><trkpt lat="53.365634138941296" lon="14.697899041267524"><ele>24.5</ele><time>2026-04-16T09:55:15.903Z</time></trkpt><trkpt lat="53.36555226064434" lon="14.698053996339574"><ele>24.75</ele><time>2026-04-16T09:55:16.903Z</time></trkpt><trkpt lat="53.36545795058384" lon="14.698201070948572"><ele>25.0</ele><time>2026-04-16T09:55:17.903Z</time></trkpt><trkpt lat="53.36536560454954" lon="14.698394881399786"><ele>25.4</ele><time>2026-04-16T09:55:18.903Z</time></trkpt><trkpt lat="53.36525280177639" lon="14.698545210735366"><ele>25.8</ele><time>2026-04-16T09:55:19.903Z</time></trkpt><trkpt lat="53.36515332414243" lon="14.698681907315276"><ele>26.200000000000003</ele><time>2026-04-16T09:55:20.904Z</time></trkpt><trkpt lat="53.36506817840316" lon="14.698779318572559"><ele>26.6</ele><time>2026-04-16T09:55:21.904Z</time></trkpt><trkpt lat="53.36502074042304" lon="14.698856476787489"><ele>27.0</ele><time>2026-04-16T09:55:22.904Z</time></trkpt><trkpt lat="53.36495543873289" lon="14.698883968873849"><ele>27.0</ele><time>2026-04-16T09:55:23.904Z</time></trkpt><trkpt lat="53.364879257181" lon="14.698961764403277"><ele>27.000000000000004</ele><time>2026-04-16T09:55:25.904Z</time></trkpt><trkpt lat="53.36494391483513" lon="14.699167639056117"><ele>27.000000000000004</ele><time>2026-04-16T09:55:30.904Z</time></trkpt><trkpt lat="53.36500055199142" lon="14.699214137738053"><ele>27.0</ele><time>2026-04-16T09:55:36.904Z</time></trkpt><trkpt lat="53.365075520574656" lon="14.69927011134828"><ele>27.0</ele><time>2026-04-16T09:55:47.901Z</time></trkpt><trkpt lat="53.36517846652726" lon="14.699337248579662"><ele>27.0</ele><time>2026-04-16T09:55:50.9Z</time></trkpt><trkpt lat="53.365283499542045" lon="14.699433772728442"><ele>27.0</ele><time>2026-04-16T09:55:52.9Z</time></trkpt><trkpt lat="53.365342733902985" lon="14.699493050874525"><ele>27.0</ele><time>2026-04-16T09:55:53.9Z</time></trkpt><trkpt lat="53.36540354864889" lon="14.699534002915094"><ele>27.0</ele><time>2026-04-16T09:55:54.9Z</time></trkpt><trkpt lat="53.3654892900154" lon="14.69956121895754"><ele>27.0</ele><time>2026-04-16T09:55:55.9Z</time></trkpt><trkpt lat="53.365582740233826" lon="14.699577740901415"><ele>27.0</ele><time>2026-04-16T09:55:56.9Z</time></trkpt><trkpt lat="53.36566663374623" lon="14.699603401685055"><ele>26.0</ele><time>2026-04-16T09:55:57.9Z</time></trkpt><trkpt lat="53.365745899463235" lon="14.699632615933476"><ele>25.000000000000004</ele><time>2026-04-16T09:55:58.9Z</time></trkpt><trkpt lat="53.3658136403654" lon="14.699682661354748"><ele>24.0</ele><time>2026-04-16T09:55:59.9Z</time></trkpt><trkpt lat="53.365889854409176" lon="14.699815272292875"><ele>23.0</ele><time>2026-04-16T09:56:00.9Z</time></trkpt><trkpt lat="53.36596203467144" lon="14.699939900529182"><ele>22.0</ele><time>2026-04-16T09:56:01.9Z</time></trkpt><trkpt lat="53.36602705203672" lon="14.700049432534643"><ele>22.0</ele><time>2026-04-16T09:56:02.9Z</time></trkpt><trkpt lat="53.366103222565606" lon="14.700156074074329"><ele>22.0</ele><time>2026-04-16T09:56:03.901Z</time></trkpt><trkpt lat="53.36618692366421" lon="14.700275210736407"><ele>22.0</ele><time>2026-04-16T09:56:04.901Z</time></trkpt><trkpt lat="53.36627900141816" lon="14.700398681054448"><ele>22.0</ele><time>2026-04-16T09:56:05.901Z</time></trkpt><trkpt lat="53.3663770847476" lon="14.700512392966564"><ele>22.0</ele><time>2026-04-16T09:56:06.901Z</time></trkpt><trkpt lat="53.366445960185544" lon="14.70063600057097"><ele>22.75</ele><time>2026-04-16T09:56:07.901Z</time></trkpt><trkpt lat="53.36652063162079" lon="14.700779071597628"><ele>23.5</ele><time>2026-04-16T09:56:08.901Z</time></trkpt><trkpt lat="53.36660147380991" lon="14.700926388862333"><ele>24.25</ele><time>2026-04-16T09:56:09.901Z</time></trkpt><trkpt lat="53.3666940010553" lon="14.701106868864747"><ele>25.0</ele><time>2026-04-16T09:56:10.901Z</time></trkpt><trkpt lat="53.36677806386103" lon="14.701247825222678"><ele>25.6</ele><time>2026-04-16T09:56:11.901Z</time></trkpt><trkpt lat="53.3668526244257" lon="14.701368778595556"><ele>26.2</ele><time>2026-04-16T09:56:12.901Z</time></trkpt><trkpt lat="53.36692329217227" lon="14.701485545938269"><ele>26.799999999999997</ele><time>2026-04-16T09:56:13.901Z</time></trkpt><trkpt lat="53.36698557194576" lon="14.701611629027807"><ele>27.4</ele><time>2026-04-16T09:56:14.901Z</time></trkpt><trkpt lat="53.367071249182246" lon="14.701753690380984"><ele>28.0</ele><time>2026-04-16T09:56:15.901Z</time></trkpt><trkpt lat="53.36716804906072" lon="14.701898115120253"><ele>26.5</ele><time>2026-04-16T09:56:16.901Z</time></trkpt><trkpt lat="53.36724763858943" lon="14.702044207758092"><ele>25.0</ele><time>2026-04-16T09:56:17.901Z</time></trkpt><trkpt lat="53.36733068468574" lon="14.702186898559317"><ele>23.5</ele><time>2026-04-16T09:56:18.901Z</time></trkpt><trkpt lat="53.36741852774383" lon="14.702332541958969"><ele>22.0</ele><time>2026-04-16T09:56:19.901Z</time></trkpt><trkpt lat="53.36750808454138" lon="14.702493286836383"><ele>22.0</ele><time>2026-04-16T09:56:20.901Z</time></trkpt><trkpt lat="53.36758094107735" lon="14.702639626694593"><ele>22.0</ele><time>2026-04-16T09:56:21.901Z</time></trkpt><trkpt lat="53.36766284998793" lon="14.70276852903601"><ele>22.0</ele><time>2026-04-16T09:56:22.901Z</time></trkpt><trkpt lat="53.36774190886789" lon="14.70289409644738"><ele>22.0</ele><time>2026-04-16T09:56:23.901Z</time></trkpt><trkpt lat="53.367821194488045" lon="14.703016617582074"><ele>22.0</ele><time>2026-04-16T09:56:24.901Z</time></trkpt><trkpt lat="53.36790223613262" lon="14.703158904476473"><ele>21.5</ele><time>2026-04-16T09:56:25.901Z</time></trkpt><trkpt lat="53.36797964225309" lon="14.703284355441168"><ele>21.0</ele><time>2026-04-16T09:56:26.901Z</time></trkpt><trkpt lat="53.368056342400536" lon="14.703410224308264"><ele>20.5</ele><time>2026-04-16T09:56:27.901Z</time></trkpt><trkpt lat="53.36813992347955" lon="14.703549926392991"><ele>20.0</ele><time>2026-04-16T09:56:28.901Z</time></trkpt><trkpt lat="53.368234811966495" lon="14.703718927043607"><ele>20.0</ele><time>2026-04-16T09:56:29.901Z</time></trkpt><trkpt lat="53.368332039332" lon="14.70392458857136"><ele>20.0</ele><time>2026-04-16T09:56:30.901Z</time></trkpt><trkpt lat="53.36843525561055" lon="14.70410427364291"><ele>20.0</ele><time>2026-04-16T09:56:31.901Z</time></trkpt><trkpt lat="53.36855629244415" lon="14.704266441845643"><ele>20.0</ele><time>2026-04-16T09:56:32.901Z</time></trkpt><trkpt lat="53.36865593705797" lon="14.704401876415197"><ele>20.0</ele><time>2026-04-16T09:56:33.901Z</time></trkpt><trkpt lat="53.368755997408755" lon="14.704560375467153"><ele>20.0</ele><time>2026-04-16T09:56:34.901Z</time></trkpt><trkpt lat="53.36882981334372" lon="14.704682470442615"><ele>20.0</ele><time>2026-04-16T09:56:35.901Z</time></trkpt><trkpt lat="53.368900673144275" lon="14.704788523602891"><ele>20.666666666666668</ele><time>2026-04-16T09:56:36.901Z</time></trkpt><trkpt lat="53.36894314282195" lon="14.704880024591397"><ele>21.333333333333336</ele><time>2026-04-16T09:56:37.901Z</time></trkpt><trkpt lat="53.36898716267383" lon="14.704960415526934"><ele>22.0</ele><time>2026-04-16T09:56:38.901Z</time></trkpt><trkpt lat="53.36904320194794" lon="14.705036819421071"><ele>22.666666666666668</ele><time>2026-04-16T09:56:39.901Z</time></trkpt><trkpt lat="53.36908418382376" lon="14.705124282514117"><ele>23.333333333333332</ele><time>2026-04-16T09:56:40.901Z</time></trkpt><trkpt lat="53.36911061146368" lon="14.705360894790497"><ele>24.0</ele><time>2026-04-16T09:56:42.901Z</time></trkpt><trkpt lat="53.36909628094754" lon="14.705502341752192"><ele>24.4</ele><time>2026-04-16T09:56:43.901Z</time></trkpt><trkpt lat="53.36907803069829" lon="14.705668641919951"><ele>24.799999999999997</ele><time>2026-04-16T09:56:44.901Z</time></trkpt><trkpt lat="53.36906398907444" lon="14.70580251037373"><ele>25.200000000000003</ele><time>2026-04-16T09:56:45.901Z</time></trkpt><trkpt lat="53.369045950856005" lon="14.705965387068826"><ele>25.6</ele><time>2026-04-16T09:56:46.901Z</time></trkpt><trkpt lat="53.36902666252728" lon="14.706116298910532"><ele>26.0</ele><time>2026-04-16T09:56:47.901Z</time></trkpt><trkpt lat="53.369004752631" lon="14.706269931944943"><ele>26.166666666666664</ele><time>2026-04-16T09:56:48.901Z</time></trkpt><trkpt lat="53.368986133445695" lon="14.706417010069117"><ele>26.333333333333332</ele><time>2026-04-16T09:56:49.901Z</time></trkpt><trkpt lat="53.368976771700844" lon="14.706561535533009"><ele>26.5</ele><time>2026-04-16T09:56:50.901Z</time></trkpt><trkpt lat="53.36896549429585" lon="14.706711997261412"><ele>26.666666666666664</ele><time>2026-04-16T09:56:51.901Z</time></trkpt><trkpt lat="53.36896600778605" lon="14.706818476356457"><ele>26.833333333333332</ele><time>2026-04-16T09:56:52.901Z</time></trkpt><trkpt lat="53.36893845920602" lon="14.70695152599547"><ele>27.0</ele><time>2026-04-16T09:56:53.901Z</time></trkpt><trkpt lat="53.368883971926664" lon="14.70707429226954"><ele>26.5</ele><time>2026-04-16T09:56:54.901Z</time></trkpt><trkpt lat="53.36880246715077" lon="14.707229337186973"><ele>26.0</ele><time>2026-04-16T09:56:55.901Z</time></trkpt><trkpt lat="53.36873910033962" lon="14.707394077007082"><ele>25.5</ele><time>2026-04-16T09:56:56.901Z</time></trkpt><trkpt lat="53.36867102728786" lon="14.707557587101357"><ele>25.0</ele><time>2026-04-16T09:56:57.901Z</time></trkpt><trkpt lat="53.3686005145515" lon="14.707724681280608"><ele>24.25</ele><time>2026-04-16T09:56:58.901Z</time></trkpt><trkpt lat="53.368537662337005" lon="14.707879817032186"><ele>23.5</ele><time>2026-04-16T09:56:59.901Z</time></trkpt><trkpt lat="53.36847810209224" lon="14.708041606114426"><ele>22.75</ele><time>2026-04-16T09:57:00.901Z</time></trkpt><trkpt lat="53.368416421675356" lon="14.70819863758133"><ele>22.0</ele><time>2026-04-16T09:57:01.901Z</time></trkpt><trkpt lat="53.368348604909826" lon="14.708355843324602"><ele>22.0</ele><time>2026-04-16T09:57:02.901Z</time></trkpt><trkpt lat="53.36829189132926" lon="14.708509960667886"><ele>22.0</ele><time>2026-04-16T09:57:03.901Z</time></trkpt><trkpt lat="53.36822997883219" lon="14.70866624810759"><ele>22.0</ele><time>2026-04-16T09:57:04.901Z</time></trkpt><trkpt lat="53.3681642172126" lon="14.70881335310862"><ele>22.0</ele><time>2026-04-16T09:57:05.901Z</time></trkpt><trkpt lat="53.368105156819944" lon="14.708967368440085"><ele>22.0</ele><time>2026-04-16T09:57:06.901Z</time></trkpt><trkpt lat="53.36803732939789" lon="14.709135609944516"><ele>21.5</ele><time>2026-04-16T09:57:07.902Z</time></trkpt><trkpt lat="53.36796458629446" lon="14.709287998703397"><ele>21.0</ele><time>2026-04-16T09:57:08.902Z</time></trkpt><trkpt lat="53.36788165346269" lon="14.709469724367773"><ele>20.5</ele><time>2026-04-16T09:57:09.902Z</time></trkpt><trkpt lat="53.367804797207825" lon="14.709642028760161"><ele>20.0</ele><time>2026-04-16T09:57:10.902Z</time></trkpt><trkpt lat="53.367721480823725" lon="14.709834572557977"><ele>20.0</ele><time>2026-04-16T09:57:11.902Z</time></trkpt><trkpt lat="53.36762466513967" lon="14.710026234437635"><ele>20.0</ele><time>2026-04-16T09:57:12.902Z</time></trkpt><trkpt lat="53.3675447649014" lon="14.710207123565954"><ele>20.0</ele><time>2026-04-16T09:57:13.902Z</time></trkpt><trkpt lat="53.36746732166313" lon="14.710398732645634"><ele>20.0</ele><time>2026-04-16T09:57:14.902Z</time></trkpt><trkpt lat="53.367404726124406" lon="14.710557449584247"><ele>20.0</ele><time>2026-04-16T09:57:15.902Z</time></trkpt><trkpt lat="53.36733179638865" lon="14.710721400170156"><ele>20.0</ele><time>2026-04-16T09:57:16.902Z</time></trkpt><trkpt lat="53.36726008632996" lon="14.710865864938544"><ele>20.0</ele><time>2026-04-16T09:57:17.902Z</time></trkpt><trkpt lat="53.36717898855949" lon="14.711061372832694"><ele>20.0</ele><time>2026-04-16T09:57:18.902Z</time></trkpt><trkpt lat="53.367105714532485" lon="14.711217324963068"><ele>20.0</ele><time>2026-04-16T09:57:19.902Z</time></trkpt><trkpt lat="53.36702643118424" lon="14.711400841835825"><ele>20.0</ele><time>2026-04-16T09:57:20.902Z</time></trkpt><trkpt lat="53.36695584377165" lon="14.711599378934187"><ele>20.0</ele><time>2026-04-16T09:57:21.902Z</time></trkpt><trkpt lat="53.36687722708335" lon="14.711793712696664"><ele>20.0</ele><time>2026-04-16T09:57:22.902Z</time></trkpt><trkpt lat="53.3667887280616" lon="14.711974130977673"><ele>21.5</ele><time>2026-04-16T09:57:23.902Z</time></trkpt><trkpt lat="53.36669357761183" lon="14.71214169912051"><ele>23.0</ele><time>2026-04-16T09:57:24.902Z</time></trkpt><trkpt lat="53.3666012954636" lon="14.712315778802404"><ele>24.5</ele><time>2026-04-16T09:57:25.902Z</time></trkpt><trkpt lat="53.36650854845318" lon="14.712494851780901"><ele>26.0</ele><time>2026-04-16T09:57:26.902Z</time></trkpt><trkpt lat="53.36642587648004" lon="14.712680899404674"><ele>26.666666666666664</ele><time>2026-04-16T09:57:27.902Z</time></trkpt><trkpt lat="53.36634329006506" lon="14.71286537002084"><ele>27.333333333333336</ele><time>2026-04-16T09:57:28.902Z</time></trkpt><trkpt lat="53.3662460839161" lon="14.713052132428306"><ele>28.0</ele><time>2026-04-16T09:57:29.902Z</time></trkpt><trkpt lat="53.366134133885" lon="14.713260781183525"><ele>28.0</ele><time>2026-04-16T09:57:30.902Z</time></trkpt><trkpt lat="53.36601621197605" lon="14.713439020257603"><ele>28.0</ele><time>2026-04-16T09:57:31.902Z</time></trkpt><trkpt lat="53.36591267572533" lon="14.713603425746907"><ele>28.0</ele><time>2026-04-16T09:57:32.902Z</time></trkpt><trkpt lat="53.36580684479773" lon="14.713753199514255"><ele>28.0</ele><time>2026-04-16T09:57:33.902Z</time></trkpt><trkpt lat="53.36570789133074" lon="14.713928350282977"><ele>28.25</ele><time>2026-04-16T09:57:34.902Z</time></trkpt><trkpt lat="53.3655960863245" lon="14.714082892417109"><ele>28.5</ele><time>2026-04-16T09:57:35.902Z</time></trkpt><trkpt lat="53.36549287601705" lon="14.714252642760819"><ele>28.75</ele><time>2026-04-16T09:57:36.902Z</time></trkpt><trkpt lat="53.365390304981716" lon="14.71441235268593"><ele>29.0</ele><time>2026-04-16T09:57:37.902Z</time></trkpt><trkpt lat="53.36529637346504" lon="14.714593869955563"><ele>29.25</ele><time>2026-04-16T09:57:38.902Z</time></trkpt><trkpt lat="53.36519831645365" lon="14.7147729089142"><ele>29.5</ele><time>2026-04-16T09:57:39.902Z</time></trkpt><trkpt lat="53.36509256065336" lon="14.71494526900359"><ele>29.75</ele><time>2026-04-16T09:57:40.902Z</time></trkpt><trkpt lat="53.36499755135134" lon="14.715084946580681"><ele>30.0</ele><time>2026-04-16T09:57:41.902Z</time></trkpt><trkpt lat="53.36491780816377" lon="14.715194577930475"><ele>30.25</ele><time>2026-04-16T09:57:42.902Z</time></trkpt><trkpt lat="53.36482628754119" lon="14.715327092891444"><ele>30.5</ele><time>2026-04-16T09:57:43.902Z</time></trkpt><trkpt lat="53.364717694548254" lon="14.715475891664793"><ele>30.75</ele><time>2026-04-16T09:57:44.902Z</time></trkpt><trkpt lat="53.36463022119725" lon="14.715626843219754"><ele>31.0</ele><time>2026-04-16T09:57:45.902Z</time></trkpt><trkpt lat="53.36454679265483" lon="14.71578956980735"><ele>30.25</ele><time>2026-04-16T09:57:46.899Z</time></trkpt><trkpt lat="53.36447117576326" lon="14.715966852624437"><ele>29.5</ele><time>2026-04-16T09:57:47.899Z</time></trkpt><trkpt lat="53.36440726830799" lon="14.716114176704428"><ele>28.75</ele><time>2026-04-16T09:57:48.899Z</time></trkpt><trkpt lat="53.36432578844036" lon="14.716247391001858"><ele>28.0</ele><time>2026-04-16T09:57:49.9Z</time></trkpt><trkpt lat="53.3642281499997" lon="14.716358751550286"><ele>28.0</ele><time>2026-04-16T09:57:50.9Z</time></trkpt><trkpt lat="53.364130592508126" lon="14.716511774408081"><ele>28.0</ele><time>2026-04-16T09:57:51.9Z</time></trkpt><trkpt lat="53.36403957978162" lon="14.716691118682832"><ele>28.0</ele><time>2026-04-16T09:57:52.9Z</time></trkpt><trkpt lat="53.36394739678546" lon="14.716878599299479"><ele>28.0</ele><time>2026-04-16T09:57:53.899Z</time></trkpt><trkpt lat="53.36386722739759" lon="14.717068804084214"><ele>28.5</ele><time>2026-04-16T09:57:54.899Z</time></trkpt><trkpt lat="53.36379589352755" lon="14.717248614889254"><ele>29.0</ele><time>2026-04-16T09:57:55.899Z</time></trkpt><trkpt lat="53.363696961059986" lon="14.717426107571685"><ele>29.5</ele><time>2026-04-16T09:57:56.899Z</time></trkpt><trkpt lat="53.36361429186914" lon="14.717589155685152"><ele>30.0</ele><time>2026-04-16T09:57:57.899Z</time></trkpt><trkpt lat="53.36352487791817" lon="14.717770872713162"><ele>30.0</ele><time>2026-04-16T09:57:58.899Z</time></trkpt><trkpt lat="53.363424056625114" lon="14.71793012367751"><ele>30.0</ele><time>2026-04-16T09:57:59.899Z</time></trkpt><trkpt lat="53.36334039149069" lon="14.718085719031881"><ele>30.0</ele><time>2026-04-16T09:58:00.899Z</time></trkpt><trkpt lat="53.36324237533614" lon="14.71823683915944"><ele>30.0</ele><time>2026-04-16T09:58:01.899Z</time></trkpt><trkpt lat="53.363140702517654" lon="14.718385285704457"><ele>30.0</ele><time>2026-04-16T09:58:02.899Z</time></trkpt><trkpt lat="53.363044734522745" lon="14.718524931954514"><ele>30.0</ele><time>2026-04-16T09:58:03.899Z</time></trkpt><trkpt lat="53.36295755356699" lon="14.718646388339263"><ele>30.0</ele><time>2026-04-16T09:58:04.899Z</time></trkpt><trkpt lat="53.36288203208059" lon="14.718749440058254"><ele>30.0</ele><time>2026-04-16T09:58:05.899Z</time></trkpt><trkpt lat="53.36279409395313" lon="14.718836140110588"><ele>30.0</ele><time>2026-04-16T09:58:06.899Z</time></trkpt><trkpt lat="53.36269624936608" lon="14.718918222493272"><ele>29.166666666666668</ele><time>2026-04-16T09:58:07.899Z</time></trkpt><trkpt lat="53.36262052591174" lon="14.718972806694847"><ele>28.333333333333336</ele><time>2026-04-16T09:58:08.899Z</time></trkpt><trkpt lat="53.36255531179734" lon="14.71904332787401"><ele>27.5</ele><time>2026-04-16T09:58:09.899Z</time></trkpt><trkpt lat="53.36246455893559" lon="14.719067975529335"><ele>26.666666666666668</ele><time>2026-04-16T09:58:10.899Z</time></trkpt><trkpt lat="53.362392545113224" lon="14.719152775149299"><ele>25.833333333333336</ele><time>2026-04-16T09:58:11.899Z</time></trkpt><trkpt lat="53.362321848199855" lon="14.719234984015616"><ele>25.0</ele><time>2026-04-16T09:58:12.899Z</time></trkpt><trkpt lat="53.362233479501455" lon="14.719349846740355"><ele>24.0</ele><time>2026-04-16T09:58:13.899Z</time></trkpt><trkpt lat="53.36213936368638" lon="14.719511401021043"><ele>23.0</ele><time>2026-04-16T09:58:14.899Z</time></trkpt><trkpt lat="53.36204424433043" lon="14.719730784752526"><ele>22.0</ele><time>2026-04-16T09:58:15.899Z</time></trkpt><trkpt lat="53.36197985928219" lon="14.719882300629278"><ele>21.0</ele><time>2026-04-16T09:58:16.899Z</time></trkpt><trkpt lat="53.361927816111304" lon="14.720004530575677"><ele>21.0</ele><time>2026-04-16T09:58:17.899Z</time></trkpt><trkpt lat="53.36188096378025" lon="14.720117252786599"><ele>21.0</ele><time>2026-04-16T09:58:18.899Z</time></trkpt><trkpt lat="53.36184269643947" lon="14.720202539040402"><ele>21.0</ele><time>2026-04-16T09:58:19.899Z</time></trkpt><trkpt lat="53.361799544064496" lon="14.720292003654636"><ele>21.0</ele><time>2026-04-16T09:58:20.899Z</time></trkpt><trkpt lat="53.361748303605374" lon="14.720411993420782"><ele>21.0</ele><time>2026-04-16T09:58:21.899Z</time></trkpt><trkpt lat="53.36169915410659" lon="14.7205311598958"><ele>21.0</ele><time>2026-04-16T09:58:22.899Z</time></trkpt><trkpt lat="53.36165109919558" lon="14.720631321902726"><ele>20.6</ele><time>2026-04-16T09:58:23.899Z</time></trkpt><trkpt lat="53.36160927274569" lon="14.720718921427977"><ele>20.200000000000003</ele><time>2026-04-16T09:58:24.899Z</time></trkpt><trkpt lat="53.36155088784236" lon="14.720825485695704"><ele>19.799999999999997</ele><time>2026-04-16T09:58:25.899Z</time></trkpt><trkpt lat="53.36147865580077" lon="14.720931265351007"><ele>19.4</ele><time>2026-04-16T09:58:26.899Z</time></trkpt><trkpt lat="53.36141255926573" lon="14.721053426251691"><ele>19.0</ele><time>2026-04-16T09:58:27.899Z</time></trkpt><trkpt lat="53.361347430931254" lon="14.721214359038372"><ele>19.0</ele><time>2026-04-16T09:58:28.899Z</time></trkpt><trkpt lat="53.36126799279377" lon="14.721330026419627"><ele>19.0</ele><time>2026-04-16T09:58:29.899Z</time></trkpt><trkpt lat="53.361211421906916" lon="14.72147269384871"><ele>19.0</ele><time>2026-04-16T09:58:30.899Z</time></trkpt><trkpt lat="53.36113872609936" lon="14.721579007976095"><ele>19.0</ele><time>2026-04-16T09:58:31.899Z</time></trkpt><trkpt lat="53.361075330099794" lon="14.721700767288976"><ele>19.0</ele><time>2026-04-16T09:58:32.899Z</time></trkpt><trkpt lat="53.36102884370741" lon="14.72182995501058"><ele>20.2</ele><time>2026-04-16T09:58:33.899Z</time></trkpt><trkpt lat="53.36095229104927" lon="14.721953256205756"><ele>21.4</ele><time>2026-04-16T09:58:34.899Z</time></trkpt><trkpt lat="53.36088472148528" lon="14.722090649699405"><ele>22.6</ele><time>2026-04-16T09:58:35.9Z</time></trkpt><trkpt lat="53.360811844646236" lon="14.72222856332382"><ele>23.8</ele><time>2026-04-16T09:58:36.9Z</time></trkpt><trkpt lat="53.36072771510479" lon="14.722361774388999"><ele>25.0</ele><time>2026-04-16T09:58:37.9Z</time></trkpt><trkpt lat="53.36064737866511" lon="14.722517956420656"><ele>25.0</ele><time>2026-04-16T09:58:38.9Z</time></trkpt><trkpt lat="53.36056567969697" lon="14.722675994369807"><ele>25.0</ele><time>2026-04-16T09:58:39.9Z</time></trkpt><trkpt lat="53.36048693885122" lon="14.722866335904168"><ele>25.0</ele><time>2026-04-16T09:58:40.9Z</time></trkpt><trkpt lat="53.360400510294845" lon="14.723042641632366"><ele>25.0</ele><time>2026-04-16T09:58:41.9Z</time></trkpt><trkpt lat="53.360309025548474" lon="14.723240048050245"><ele>24.333333333333336</ele><time>2026-04-16T09:58:42.9Z</time></trkpt><trkpt lat="53.36021181754491" lon="14.723449070537514"><ele>23.666666666666668</ele><time>2026-04-16T09:58:43.9Z</time></trkpt><trkpt lat="53.36011364362598" lon="14.723656678004323"><ele>23.0</ele><time>2026-04-16T09:58:44.9Z</time></trkpt><trkpt lat="53.36001824271705" lon="14.723858547085243"><ele>23.0</ele><time>2026-04-16T09:58:45.9Z</time></trkpt><trkpt lat="53.35992180322054" lon="14.724062892215262"><ele>23.0</ele><time>2026-04-16T09:58:46.9Z</time></trkpt><trkpt lat="53.35984768600164" lon="14.72426977921448"><ele>23.0</ele><time>2026-04-16T09:58:47.9Z</time></trkpt><trkpt lat="53.35976181337691" lon="14.724475879233962"><ele>23.0</ele><time>2026-04-16T09:58:48.9Z</time></trkpt><trkpt lat="53.35965770968059" lon="14.724682949075003"><ele>21.666666666666668</ele><time>2026-04-16T09:58:49.9Z</time></trkpt><trkpt lat="53.35955875561561" lon="14.724888688944377"><ele>20.333333333333332</ele><time>2026-04-16T09:58:50.9Z</time></trkpt><trkpt lat="53.359468141753666" lon="14.725114138864527"><ele>19.0</ele><time>2026-04-16T09:58:51.9Z</time></trkpt><trkpt lat="53.35938283386332" lon="14.725336653875495"><ele>19.0</ele><time>2026-04-16T09:58:52.9Z</time></trkpt><trkpt lat="53.35928362307634" lon="14.725562988486837"><ele>19.0</ele><time>2026-04-16T09:58:53.9Z</time></trkpt><trkpt lat="53.35917818796486" lon="14.725742294031852"><ele>19.0</ele><time>2026-04-16T09:58:54.9Z</time></trkpt><trkpt lat="53.35909666487166" lon="14.725941650168815"><ele>18.4</ele><time>2026-04-16T09:58:55.9Z</time></trkpt><trkpt lat="53.35902401457264" lon="14.726099317045811"><ele>17.799999999999997</ele><time>2026-04-16T09:58:56.9Z</time></trkpt><trkpt lat="53.35894887529159" lon="14.726222509010816"><ele>17.200000000000003</ele><time>2026-04-16T09:58:57.9Z</time></trkpt><trkpt lat="53.35889940381274" lon="14.726371280482368"><ele>16.6</ele><time>2026-04-16T09:58:58.9Z</time></trkpt><trkpt lat="53.35883235178637" lon="14.726493298238202"><ele>16.0</ele><time>2026-04-16T09:58:59.9Z</time></trkpt><trkpt lat="53.3587780350519" lon="14.726612193230986"><ele>15.999999999999998</ele><time>2026-04-16T09:59:00.9Z</time></trkpt><trkpt lat="53.35871737828552" lon="14.72670829414498"><ele>16.0</ele><time>2026-04-16T09:59:01.9Z</time></trkpt><trkpt lat="53.358673834504664" lon="14.726799437866179"><ele>16.0</ele><time>2026-04-16T09:59:02.9Z</time></trkpt><trkpt lat="53.35864561698091" lon="14.726906743609522"><ele>16.0</ele><time>2026-04-16T09:59:03.9Z</time></trkpt><trkpt lat="53.35859588913113" lon="14.726980699919144"><ele>15.999999999999998</ele><time>2026-04-16T09:59:04.9Z</time></trkpt><trkpt lat="53.35852849989168" lon="14.727170602331107"><ele>16.0</ele><time>2026-04-16T09:59:06.9Z</time></trkpt><trkpt lat="53.358464969927006" lon="14.727265777360214"><ele>17.5</ele><time>2026-04-16T09:59:07.9Z</time></trkpt><trkpt lat="53.35842993045722" lon="14.727419752325895"><ele>19.0</ele><time>2026-04-16T09:59:08.9Z</time></trkpt><trkpt lat="53.358371132234566" lon="14.727593664671097"><ele>20.5</ele><time>2026-04-16T09:59:09.9Z</time></trkpt><trkpt lat="53.35831839954782" lon="14.727788174102306"><ele>22.0</ele><time>2026-04-16T09:59:10.9Z</time></trkpt><trkpt lat="53.358240475770636" lon="14.728028078731187"><ele>22.0</ele><time>2026-04-16T09:59:11.9Z</time></trkpt><trkpt lat="53.358170125531984" lon="14.728284431533835"><ele>22.0</ele><time>2026-04-16T09:59:12.9Z</time></trkpt><trkpt lat="53.35811870376267" lon="14.72850889005494"><ele>22.0</ele><time>2026-04-16T09:59:13.9Z</time></trkpt><trkpt lat="53.358076237556965" lon="14.728691617665719"><ele>22.0</ele><time>2026-04-16T09:59:14.9Z</time></trkpt><trkpt lat="53.35802224274409" lon="14.72888957406944"><ele>22.0</ele><time>2026-04-16T09:59:15.9Z</time></trkpt><trkpt lat="53.35794600838604" lon="14.72912580082433"><ele>22.0</ele><time>2026-04-16T09:59:16.9Z</time></trkpt><trkpt lat="53.35789248469151" lon="14.729324338012093"><ele>22.0</ele><time>2026-04-16T09:59:17.9Z</time></trkpt><trkpt lat="53.35783309797416" lon="14.729538778207408"><ele>22.0</ele><time>2026-04-16T09:59:18.9Z</time></trkpt><trkpt lat="53.35777889973441" lon="14.72973448336037"><ele>22.25</ele><time>2026-04-16T09:59:19.9Z</time></trkpt><trkpt lat="53.357725693017635" lon="14.729926910837097"><ele>22.5</ele><time>2026-04-16T09:59:20.9Z</time></trkpt><trkpt lat="53.35766944348207" lon="14.730134913205884"><ele>22.75</ele><time>2026-04-16T09:59:21.9Z</time></trkpt><trkpt lat="53.35762338640084" lon="14.730330436593562"><ele>23.0</ele><time>2026-04-16T09:59:22.9Z</time></trkpt><trkpt lat="53.35757185972538" lon="14.730546122132738"><ele>23.0</ele><time>2026-04-16T09:59:23.9Z</time></trkpt><trkpt lat="53.35751994803977" lon="14.730767120422643"><ele>23.0</ele><time>2026-04-16T09:59:24.9Z</time></trkpt><trkpt lat="53.3574687999745" lon="14.730987245857461"><ele>23.0</ele><time>2026-04-16T09:59:25.9Z</time></trkpt><trkpt lat="53.35741675186459" lon="14.73120548295878"><ele>23.0</ele><time>2026-04-16T09:59:26.9Z</time></trkpt><trkpt lat="53.35736203060394" lon="14.73143438483195"><ele>22.25</ele><time>2026-04-16T09:59:27.9Z</time></trkpt><trkpt lat="53.357308972568944" lon="14.73166201744913"><ele>21.5</ele><time>2026-04-16T09:59:28.9Z</time></trkpt><trkpt lat="53.357273404499885" lon="14.731883813968308"><ele>20.75</ele><time>2026-04-16T09:59:29.9Z</time></trkpt><trkpt lat="53.357224795991165" lon="14.732090739645889"><ele>20.0</ele><time>2026-04-16T09:59:30.9Z</time></trkpt><trkpt lat="53.3571624098206" lon="14.73227931064239"><ele>19.166666666666668</ele><time>2026-04-16T09:59:31.9Z</time></trkpt><trkpt lat="53.357119938453266" lon="14.73245840930932"><ele>18.333333333333336</ele><time>2026-04-16T09:59:32.9Z</time></trkpt><trkpt lat="53.35710687654309" lon="14.732615667228519"><ele>17.5</ele><time>2026-04-16T09:59:33.9Z</time></trkpt><trkpt lat="53.357078963088995" lon="14.732742017495763"><ele>16.666666666666668</ele><time>2026-04-16T09:59:34.9Z</time></trkpt><trkpt lat="53.35705551141129" lon="14.732874734973882"><ele>15.833333333333334</ele><time>2026-04-16T09:59:35.9Z</time></trkpt><trkpt lat="53.35703611861494" lon="14.732993286073876"><ele>15.0</ele><time>2026-04-16T09:59:36.9Z</time></trkpt><trkpt lat="53.35700183892084" lon="14.733120651879476"><ele>15.0</ele><time>2026-04-16T09:59:37.9Z</time></trkpt><trkpt lat="53.356981483644475" lon="14.73325339663574"><ele>15.0</ele><time>2026-04-16T09:59:38.9Z</time></trkpt><trkpt lat="53.35696106833615" lon="14.733413135124174"><ele>15.0</ele><time>2026-04-16T09:59:39.9Z</time></trkpt><trkpt lat="53.3569332540555" lon="14.733571439140203"><ele>15.0</ele><time>2026-04-16T09:59:40.901Z</time></trkpt><trkpt lat="53.356908015464434" lon="14.73373640788142"><ele>15.0</ele><time>2026-04-16T09:59:41.901Z</time></trkpt><trkpt lat="53.3568922743124" lon="14.733889926398646"><ele>15.2</ele><time>2026-04-16T09:59:42.901Z</time></trkpt><trkpt lat="53.35687676274423" lon="14.734026689389294"><ele>15.4</ele><time>2026-04-16T09:59:43.901Z</time></trkpt><trkpt lat="53.35686121207378" lon="14.734181138424908"><ele>15.600000000000001</ele><time>2026-04-16T09:59:44.901Z</time></trkpt><trkpt lat="53.35683937856779" lon="14.734357896664429"><ele>15.8</ele><time>2026-04-16T09:59:45.901Z</time></trkpt><trkpt lat="53.3568175094562" lon="14.734529915182604"><ele>16.0</ele><time>2026-04-16T09:59:46.901Z</time></trkpt><trkpt lat="53.35680544966407" lon="14.734709108959962"><ele>16.0</ele><time>2026-04-16T09:59:47.901Z</time></trkpt><trkpt lat="53.35679865643834" lon="14.734874017333324"><ele>16.0</ele><time>2026-04-16T09:59:48.901Z</time></trkpt><trkpt lat="53.35679178507611" lon="14.735043696584484"><ele>16.0</ele><time>2026-04-16T09:59:49.901Z</time></trkpt><trkpt lat="53.356781480828566" lon="14.735219387370186"><ele>16.0</ele><time>2026-04-16T09:59:50.901Z</time></trkpt><trkpt lat="53.35676980588044" lon="14.735385852445082"><ele>16.0</ele><time>2026-04-16T09:59:51.901Z</time></trkpt><trkpt lat="53.35676448000738" lon="14.735543425899193"><ele>16.0</ele><time>2026-04-16T09:59:52.898Z</time></trkpt><trkpt lat="53.35675529124522" lon="14.735688707934907"><ele>16.0</ele><time>2026-04-16T09:59:53.898Z</time></trkpt><trkpt lat="53.356744159069414" lon="14.73585006677713"><ele>16.0</ele><time>2026-04-16T09:59:54.898Z</time></trkpt><trkpt lat="53.356725387866135" lon="14.736013808550686"><ele>16.0</ele><time>2026-04-16T09:59:55.898Z</time></trkpt><trkpt lat="53.35669386565614" lon="14.736168835755139"><ele>16.0</ele><time>2026-04-16T09:59:56.899Z</time></trkpt><trkpt lat="53.35665828864008" lon="14.736289651338769"><ele>15.833333333333332</ele><time>2026-04-16T09:59:57.899Z</time></trkpt><trkpt lat="53.356632192017905" lon="14.736403251259974"><ele>15.666666666666666</ele><time>2026-04-16T09:59:58.898Z</time></trkpt><trkpt lat="53.35660464356581" lon="14.736548331317726"><ele>15.5</ele><time>2026-04-16T10:00:00.899Z</time></trkpt><trkpt lat="53.356573027932" lon="14.736676759938392"><ele>15.333333333333332</ele><time>2026-04-16T10:00:03.898Z</time></trkpt><trkpt lat="53.35653864713912" lon="14.736780459962324"><ele>15.166666666666666</ele><time>2026-04-16T10:00:06.898Z</time></trkpt><trkpt lat="53.35648206875711" lon="14.736924991125562"><ele>15.0</ele><time>2026-04-16T10:00:59.899Z</time></trkpt><trkpt lat="53.35639806698995" lon="14.736922610995853"><ele>15.166666666666666</ele><time>2026-04-16T10:01:00.899Z</time></trkpt><trkpt lat="53.356296228312154" lon="14.736991711611086"><ele>15.333333333333332</ele><time>2026-04-16T10:01:02.899Z</time></trkpt><trkpt lat="53.35620450756614" lon="14.737031209605629"><ele>15.5</ele><time>2026-04-16T10:01:04.899Z</time></trkpt><trkpt lat="53.35614094464205" lon="14.737035807172562"><ele>15.666666666666666</ele><time>2026-04-16T10:01:05.899Z</time></trkpt><trkpt lat="53.356082406875416" lon="14.736977572785792"><ele>15.833333333333332</ele><time>2026-04-16T10:01:06.899Z</time></trkpt><trkpt lat="53.356041561204876" lon="14.73687684919477"><ele>16.0</ele><time>2026-04-16T10:01:07.899Z</time></trkpt><trkpt lat="53.35599630821111" lon="14.736726270810564"><ele>16.0</ele><time>2026-04-16T10:01:09.899Z</time></trkpt><trkpt lat="53.35587808338818" lon="14.73671323397173"><ele>16.0</ele><time>2026-04-16T10:01:11.899Z</time></trkpt><trkpt lat="53.35575435014925" lon="14.736760618706958"><ele>16.0</ele><time>2026-04-16T10:01:13.899Z</time></trkpt><trkpt lat="53.35567154817482" lon="14.736764334470898"><ele>16.0</ele><time>2026-04-16T10:01:14.899Z</time></trkpt><trkpt lat="53.355577440966925" lon="14.736781529963634"><ele>16.0</ele><time>2026-04-16T10:01:15.899Z</time></trkpt><trkpt lat="53.35548283667022" lon="14.73677986672918"><ele>17.75</ele><time>2026-04-16T10:01:16.899Z</time></trkpt><trkpt lat="53.35538660100238" lon="14.736772581675124"><ele>19.5</ele><time>2026-04-16T10:01:17.899Z</time></trkpt><trkpt lat="53.35527574667818" lon="14.736790124143198"><ele>21.25</ele><time>2026-04-16T10:01:18.899Z</time></trkpt><trkpt lat="53.35515607719909" lon="14.736772926222843"><ele>23.0</ele><time>2026-04-16T10:01:19.899Z</time></trkpt><trkpt lat="53.35503093271709" lon="14.736761990578957"><ele>23.0</ele><time>2026-04-16T10:01:20.899Z</time></trkpt><trkpt lat="53.3549110105686" lon="14.736743523255184"><ele>23.0</ele><time>2026-04-16T10:01:21.899Z</time></trkpt><trkpt lat="53.35481120837984" lon="14.736737195169134"><ele>23.0</ele><time>2026-04-16T10:01:22.899Z</time></trkpt><trkpt lat="53.35472782138116" lon="14.736730659373306"><ele>23.0</ele><time>2026-04-16T10:01:23.899Z</time></trkpt><trkpt lat="53.35465025546182" lon="14.73672396223276"><ele>23.0</ele><time>2026-04-16T10:01:24.899Z</time></trkpt><trkpt lat="53.35454492562947" lon="14.736693992984014"><ele>23.599999999999998</ele><time>2026-04-16T10:01:26.899Z</time></trkpt><trkpt lat="53.35447353460456" lon="14.736687171726736"><ele>24.2</ele><time>2026-04-16T10:01:28.899Z</time></trkpt><trkpt lat="53.354419045433" lon="14.7368867264815"><ele>24.8</ele><time>2026-04-16T10:01:30.899Z</time></trkpt><trkpt lat="53.3543940767272" lon="14.737035519551698"><ele>25.4</ele><time>2026-04-16T10:01:31.899Z</time></trkpt><trkpt lat="53.35435324873321" lon="14.737250814537575"><ele>26.0</ele><time>2026-04-16T10:01:32.899Z</time></trkpt><trkpt lat="53.35431625039649" lon="14.737440773592917"><ele>26.0</ele><time>2026-04-16T10:01:33.899Z</time></trkpt><trkpt lat="53.354284333994286" lon="14.737609978830807"><ele>26.0</ele><time>2026-04-16T10:01:34.899Z</time></trkpt><trkpt lat="53.354257495310016" lon="14.737764734228747"><ele>26.0</ele><time>2026-04-16T10:01:35.899Z</time></trkpt><trkpt lat="53.354240542291784" lon="14.737878165311482"><ele>26.0</ele><time>2026-04-16T10:01:36.9Z</time></trkpt><trkpt lat="53.35420786618194" lon="14.738010629071551"><ele>26.0</ele><time>2026-04-16T10:01:38.9Z</time></trkpt><trkpt lat="53.35408673347384" lon="14.737998157067889"><ele>26.25</ele><time>2026-04-16T10:01:40.9Z</time></trkpt><trkpt lat="53.35398128250795" lon="14.737961210063665"><ele>26.5</ele><time>2026-04-16T10:01:41.9Z</time></trkpt><trkpt lat="53.35385864037132" lon="14.737900754033525"><ele>26.75</ele><time>2026-04-16T10:01:42.9Z</time></trkpt><trkpt lat="53.35373292723379" lon="14.737851331014015"><ele>27.0</ele><time>2026-04-16T10:01:43.9Z</time></trkpt><trkpt lat="53.35358163584537" lon="14.737831991433833"><ele>28.333333333333336</ele><time>2026-04-16T10:01:44.9Z</time></trkpt><trkpt lat="53.35343170593381" lon="14.73780036785769"><ele>29.666666666666668</ele><time>2026-04-16T10:01:45.9Z</time></trkpt><trkpt lat="53.353259467032956" lon="14.737758742023486"><ele>31.0</ele><time>2026-04-16T10:01:46.9Z</time></trkpt><trkpt lat="53.35309042344981" lon="14.737712274759863"><ele>30.666666666666668</ele><time>2026-04-16T10:01:47.9Z</time></trkpt><trkpt lat="53.352907086975755" lon="14.737666808026269"><ele>30.333333333333336</ele><time>2026-04-16T10:01:48.9Z</time></trkpt><trkpt lat="53.35271018330153" lon="14.737619559411973"><ele>30.0</ele><time>2026-04-16T10:01:49.9Z</time></trkpt><trkpt lat="53.352518129009226" lon="14.73758081274444"><ele>30.0</ele><time>2026-04-16T10:01:50.9Z</time></trkpt><trkpt lat="53.35231936328197" lon="14.737589431353014"><ele>30.0</ele><time>2026-04-16T10:01:51.9Z</time></trkpt><trkpt lat="53.35213596438693" lon="14.73763220484288"><ele>30.0</ele><time>2026-04-16T10:01:52.9Z</time></trkpt><trkpt lat="53.351982430801854" lon="14.737654391406597"><ele>30.75</ele><time>2026-04-16T10:01:53.9Z</time></trkpt><trkpt lat="53.35182938422297" lon="14.737649614378789"><ele>31.5</ele><time>2026-04-16T10:01:54.9Z</time></trkpt><trkpt lat="53.35169047591517" lon="14.737623300561207"><ele>32.25</ele><time>2026-04-16T10:01:55.9Z</time></trkpt><trkpt lat="53.35157676343165" lon="14.737573583666268"><ele>33.0</ele><time>2026-04-16T10:01:56.9Z</time></trkpt><trkpt lat="53.3514982391685" lon="14.737515676726806"><ele>33.0</ele><time>2026-04-16T10:01:57.9Z</time></trkpt><trkpt lat="53.35142628417684" lon="14.737465283427857"><ele>33.0</ele><time>2026-04-16T10:01:58.898Z</time></trkpt><trkpt lat="53.351348852153876" lon="14.737423657894256"><ele>33.0</ele><time>2026-04-16T10:02:00.898Z</time></trkpt><trkpt lat="53.351263225271495" lon="14.737724253481199"><ele>33.0</ele><time>2026-04-16T10:02:02.898Z</time></trkpt><trkpt lat="53.35125840542656" lon="14.737879728778635"><ele>33.0</ele><time>2026-04-16T10:02:03.898Z</time></trkpt><trkpt lat="53.35124619200648" lon="14.738038203016842"><ele>33.0</ele><time>2026-04-16T10:02:04.897Z</time></trkpt><trkpt lat="53.3512247128036" lon="14.738184845793462"><ele>33.0</ele><time>2026-04-16T10:02:05.898Z</time></trkpt><trkpt lat="53.35119560060924" lon="14.738344727754816"><ele>33.0</ele><time>2026-04-16T10:02:06.898Z</time></trkpt><trkpt lat="53.35115795466824" lon="14.73846119701798"><ele>33.0</ele><time>2026-04-16T10:02:07.898Z</time></trkpt><trkpt lat="53.3510990337139" lon="14.73857732935288"><ele>33.0</ele><time>2026-04-16T10:02:08.897Z</time></trkpt><trkpt lat="53.35101980658719" lon="14.738676284430698"><ele>33.0</ele><time>2026-04-16T10:02:09.897Z</time></trkpt><trkpt lat="53.350944782279775" lon="14.738739992492528"><ele>33.0</ele><time>2026-04-16T10:02:10.897Z</time></trkpt><trkpt lat="53.35086947340094" lon="14.738911958722085"><ele>33.0</ele><time>2026-04-16T10:02:12.897Z</time></trkpt><trkpt lat="53.350853924076006" lon="14.739091303763727"><ele>33.0</ele><time>2026-04-16T10:02:13.897Z</time></trkpt><trkpt lat="53.350868064644196" lon="14.739295358240105"><ele>32.666666666666664</ele><time>2026-04-16T10:02:14.898Z</time></trkpt><trkpt lat="53.35086462290307" lon="14.73948788842287"><ele>32.333333333333336</ele><time>2026-04-16T10:02:15.898Z</time></trkpt><trkpt lat="53.35085495133984" lon="14.739652856395486"><ele>32.0</ele><time>2026-04-16T10:02:16.898Z</time></trkpt><trkpt lat="53.35084089272453" lon="14.739798007670771"><ele>31.666666666666668</ele><time>2026-04-16T10:02:17.898Z</time></trkpt><trkpt lat="53.35081989941409" lon="14.739919565666243"><ele>31.333333333333336</ele><time>2026-04-16T10:02:18.898Z</time></trkpt><trkpt lat="53.35079572127309" lon="14.740016986419588"><ele>31.0</ele><time>2026-04-16T10:02:19.898Z</time></trkpt><trkpt lat="53.35077661605096" lon="14.740212723180536"><ele>30.666666666666668</ele><time>2026-04-16T10:02:21.898Z</time></trkpt><trkpt lat="53.35073474878388" lon="14.740374906190379"><ele>30.333333333333336</ele><time>2026-04-16T10:02:23.898Z</time></trkpt><trkpt lat="53.35067375344266" lon="14.740437380238104"><ele>30.0</ele><time>2026-04-16T10:02:24.898Z</time></trkpt><trkpt lat="53.35060946926875" lon="14.740506615679081"><ele>29.666666666666664</ele><time>2026-04-16T10:02:25.898Z</time></trkpt><trkpt lat="53.35054411833258" lon="14.74054302826184"><ele>29.333333333333332</ele><time>2026-04-16T10:02:26.898Z</time></trkpt><trkpt lat="53.35047234052378" lon="14.74057908708649"><ele>29.0</ele><time>2026-04-16T10:02:27.898Z</time></trkpt><trkpt lat="53.350385979787355" lon="14.740601288736643"><ele>28.999999999999996</ele><time>2026-04-16T10:02:28.898Z</time></trkpt><trkpt lat="53.35030827543779" lon="14.740620175458698"><ele>29.0</ele><time>2026-04-16T10:02:30.898Z</time></trkpt><trkpt lat="53.35025295018349" lon="14.74056887443093"><ele>29.0</ele><time>2026-04-16T10:02:32.898Z</time></trkpt><trkpt lat="53.35021008586406" lon="14.740487765605163"><ele>29.0</ele><time>2026-04-16T10:02:33.898Z</time></trkpt><trkpt lat="53.35015477007809" lon="14.74037614523023"><ele>28.999999999999996</ele><time>2026-04-16T10:02:34.898Z</time></trkpt><trkpt lat="53.35007985165697" lon="14.74027118556906"><ele>29.0</ele><time>2026-04-16T10:02:35.898Z</time></trkpt><trkpt lat="53.35001865104154" lon="14.74018808018044"><ele>29.75</ele><time>2026-04-16T10:02:36.898Z</time></trkpt><trkpt lat="53.349962730153536" lon="14.740072569887756"><ele>30.5</ele><time>2026-04-16T10:02:38.898Z</time></trkpt><trkpt lat="53.34979701641823" lon="14.73988377063751"><ele>31.25</ele><time>2026-04-16T10:02:39.898Z</time></trkpt><trkpt lat="53.349698422663515" lon="14.739743209386447"><ele>32.0</ele><time>2026-04-16T10:02:40.898Z</time></trkpt><trkpt lat="53.349608884573726" lon="14.73960315662287"><ele>32.5</ele><time>2026-04-16T10:02:41.898Z</time></trkpt><trkpt lat="53.349506994913284" lon="14.739497495683132"><ele>33.0</ele><time>2026-04-16T10:02:42.898Z</time></trkpt><trkpt lat="53.34940124394683" lon="14.739364625038876"><ele>33.5</ele><time>2026-04-16T10:02:43.898Z</time></trkpt><trkpt lat="53.3493026877347" lon="14.739229881286823"><ele>34.0</ele><time>2026-04-16T10:02:44.898Z</time></trkpt><trkpt lat="53.34921701023833" lon="14.739115602015255"><ele>34.6</ele><time>2026-04-16T10:02:45.898Z</time></trkpt><trkpt lat="53.34913031045239" lon="14.738991479572467"><ele>35.2</ele><time>2026-04-16T10:02:46.898Z</time></trkpt><trkpt lat="53.34904862011581" lon="14.73885492205304"><ele>35.800000000000004</ele><time>2026-04-16T10:02:47.898Z</time></trkpt><trkpt lat="53.34897430625399" lon="14.738734145365044"><ele>36.4</ele><time>2026-04-16T10:02:48.898Z</time></trkpt><trkpt lat="53.348894361592" lon="14.73861616224943"><ele>37.0</ele><time>2026-04-16T10:02:49.898Z</time></trkpt><trkpt lat="53.34882187379258" lon="14.73849772621561"><ele>37.4</ele><time>2026-04-16T10:02:50.898Z</time></trkpt><trkpt lat="53.348758984140694" lon="14.738378579880148"><ele>37.800000000000004</ele><time>2026-04-16T10:02:51.898Z</time></trkpt><trkpt lat="53.34868006600297" lon="14.73825696790861"><ele>38.2</ele><time>2026-04-16T10:02:52.898Z</time></trkpt><trkpt lat="53.34862042873832" lon="14.738128568933822"><ele>38.6</ele><time>2026-04-16T10:02:53.898Z</time></trkpt><trkpt lat="53.348566066327564" lon="14.738014218872035"><ele>39.0</ele><time>2026-04-16T10:02:54.898Z</time></trkpt><trkpt lat="53.34852378803215" lon="14.737891920569963"><ele>39.0</ele><time>2026-04-16T10:02:55.898Z</time></trkpt><trkpt lat="53.348489978866645" lon="14.73772627002135"><ele>39.0</ele><time>2026-04-16T10:02:56.898Z</time></trkpt><trkpt lat="53.34846001419604" lon="14.737529973226561"><ele>39.0</ele><time>2026-04-16T10:02:57.898Z</time></trkpt><trkpt lat="53.348423892134676" lon="14.737334381612488"><ele>39.0</ele><time>2026-04-16T10:02:58.898Z</time></trkpt><trkpt lat="53.3483918405278" lon="14.737143855102753"><ele>38.833333333333336</ele><time>2026-04-16T10:02:59.898Z</time></trkpt><trkpt lat="53.34836674696995" lon="14.736974575307487"><ele>38.666666666666664</ele><time>2026-04-16T10:03:00.898Z</time></trkpt><trkpt lat="53.348350400284595" lon="14.73682830786757"><ele>38.5</ele><time>2026-04-16T10:03:01.898Z</time></trkpt><trkpt lat="53.3483442015461" lon="14.736683645011432"><ele>38.33333333333333</ele><time>2026-04-16T10:03:02.898Z</time></trkpt><trkpt lat="53.34833729233821" lon="14.736569419233586"><ele>38.166666666666664</ele><time>2026-04-16T10:03:03.898Z</time></trkpt><trkpt lat="53.34830977889424" lon="14.73645544851863"><ele>38.0</ele><time>2026-04-16T10:03:04.898Z</time></trkpt><trkpt lat="53.34825478371233" lon="14.736330835204058"><ele>38.0</ele><time>2026-04-16T10:03:06.898Z</time></trkpt><trkpt lat="53.348187201040616" lon="14.736253517958637"><ele>38.0</ele><time>2026-04-16T10:03:09.898Z</time></trkpt><trkpt lat="53.3481120545534" lon="14.736225076263759"><ele>38.0</ele><time>2026-04-16T10:03:10.898Z</time></trkpt><trkpt lat="53.34798795047038" lon="14.736208958686744"><ele>38.0</ele><time>2026-04-16T10:03:11.898Z</time></trkpt><trkpt lat="53.347876231513254" lon="14.736180183915717"><ele>38.0</ele><time>2026-04-16T10:03:12.898Z</time></trkpt><trkpt lat="53.34777348111128" lon="14.736160816504956"><ele>38.0</ele><time>2026-04-16T10:03:13.898Z</time></trkpt><trkpt lat="53.34768400167009" lon="14.736130283934752"><ele>38.0</ele><time>2026-04-16T10:03:14.898Z</time></trkpt><trkpt lat="53.347611511861345" lon="14.736102895636822"><ele>38.0</ele><time>2026-04-16T10:03:15.898Z</time></trkpt><trkpt lat="53.34755813884026" lon="14.736029836590003"><ele>38.0</ele><time>2026-04-16T10:03:16.898Z</time></trkpt><trkpt lat="53.347528855789" lon="14.735924947892787"><ele>38.0</ele><time>2026-04-16T10:03:18.899Z</time></trkpt><trkpt lat="53.34738209512232" lon="14.736024696493425"><ele>38.0</ele><time>2026-04-16T10:03:19.899Z</time></trkpt><trkpt lat="53.3472787274666" lon="14.736172297727608"><ele>38.0</ele><time>2026-04-16T10:03:20.899Z</time></trkpt><trkpt lat="53.347177653017255" lon="14.736355861586183"><ele>38.0</ele><time>2026-04-16T10:03:21.899Z</time></trkpt><trkpt lat="53.347080940616976" lon="14.736564774489507"><ele>38.0</ele><time>2026-04-16T10:03:22.899Z</time></trkpt><trkpt lat="53.346990506579615" lon="14.736800631775255"><ele>37.8</ele><time>2026-04-16T10:03:23.899Z</time></trkpt><trkpt lat="53.346913524397664" lon="14.73702059042456"><ele>37.599999999999994</ele><time>2026-04-16T10:03:24.899Z</time></trkpt><trkpt lat="53.34688793270483" lon="14.737157330921185"><ele>37.400000000000006</ele><time>2026-04-16T10:03:25.899Z</time></trkpt><trkpt lat="53.346833680917314" lon="14.737325446112571"><ele>37.2</ele><time>2026-04-16T10:03:27.899Z</time></trkpt><trkpt lat="53.34679867770626" lon="14.737438995668338"><ele>37.0</ele><time>2026-04-16T10:03:29.899Z</time></trkpt><trkpt lat="53.34676678176584" lon="14.737541842017993"><ele>37.0</ele><time>2026-04-16T10:03:57.899Z</time></trkpt><trkpt lat="53.34673284688647" lon="14.737636030206614"><ele>37.0</ele><time>2026-04-16T10:03:58.899Z</time></trkpt><trkpt lat="53.3467080265479" lon="14.737770891125143"><ele>37.0</ele><time>2026-04-16T10:03:59.899Z</time></trkpt><trkpt lat="53.34666102165249" lon="14.737942546632036"><ele>37.0</ele><time>2026-04-16T10:04:00.899Z</time></trkpt><trkpt lat="53.3465940569543" lon="14.738164676965807"><ele>37.0</ele><time>2026-04-16T10:04:01.899Z</time></trkpt><trkpt lat="53.346523105465536" lon="14.738409952922375"><ele>37.333333333333336</ele><time>2026-04-16T10:04:02.899Z</time></trkpt><trkpt lat="53.34644490632734" lon="14.738693089172871"><ele>37.666666666666664</ele><time>2026-04-16T10:04:03.899Z</time></trkpt><trkpt lat="53.34636621558339" lon="14.738996198077025"><ele>38.0</ele><time>2026-04-16T10:04:04.897Z</time></trkpt><trkpt lat="53.34627509601884" lon="14.739325360811126"><ele>37.666666666666664</ele><time>2026-04-16T10:04:05.897Z</time></trkpt><trkpt lat="53.346179086300054" lon="14.739657549675591"><ele>37.333333333333336</ele><time>2026-04-16T10:04:06.897Z</time></trkpt><trkpt lat="53.34609390546061" lon="14.739965676380178"><ele>37.0</ele><time>2026-04-16T10:04:07.897Z</time></trkpt><trkpt lat="53.346007533041565" lon="14.740273684691346"><ele>37.0</ele><time>2026-04-16T10:04:08.897Z</time></trkpt><trkpt lat="53.34591829686345" lon="14.740565650726317"><ele>37.0</ele><time>2026-04-16T10:04:09.897Z</time></trkpt><trkpt lat="53.34581844841075" lon="14.740852294824737"><ele>37.0</ele><time>2026-04-16T10:04:10.897Z</time></trkpt><trkpt lat="53.345725864898114" lon="14.741158531062327"><ele>37.0</ele><time>2026-04-16T10:04:11.897Z</time></trkpt><trkpt lat="53.345624675267366" lon="14.741496364845805"><ele>37.0</ele><time>2026-04-16T10:04:12.897Z</time></trkpt><trkpt lat="53.34552061326066" lon="14.74184628997583"><ele>37.66666666666667</ele><time>2026-04-16T10:04:13.897Z</time></trkpt><trkpt lat="53.34542837832379" lon="14.742196985486999"><ele>38.333333333333336</ele><time>2026-04-16T10:04:14.896Z</time></trkpt><trkpt lat="53.34533018782245" lon="14.742527625933612"><ele>39.0</ele><time>2026-04-16T10:04:15.896Z</time></trkpt><trkpt lat="53.345251422007514" lon="14.742789224669698"><ele>39.0</ele><time>2026-04-16T10:04:16.897Z</time></trkpt><trkpt lat="53.345163937987465" lon="14.743082416725123"><ele>39.0</ele><time>2026-04-16T10:04:18.897Z</time></trkpt><trkpt lat="53.345084918555784" lon="14.743305707903563"><ele>39.0</ele><time>2026-04-16T10:04:19.897Z</time></trkpt><trkpt lat="53.34502517784896" lon="14.743487065313001"><ele>38.75</ele><time>2026-04-16T10:04:20.897Z</time></trkpt><trkpt lat="53.34496142381077" lon="14.743695950668284"><ele>38.5</ele><time>2026-04-16T10:04:21.897Z</time></trkpt><trkpt lat="53.344900237028426" lon="14.743865708124295"><ele>38.25</ele><time>2026-04-16T10:04:22.897Z</time></trkpt><trkpt lat="53.344834666276036" lon="14.744009127522068"><ele>38.0</ele><time>2026-04-16T10:04:23.897Z</time></trkpt><trkpt lat="53.344802480579375" lon="14.744175545538106"><ele>38.0</ele><time>2026-04-16T10:04:24.897Z</time></trkpt><trkpt lat="53.34477231893781" lon="14.744273674372996"><ele>38.0</ele><time>2026-04-16T10:04:25.897Z</time></trkpt><trkpt lat="53.344747755310905" lon="14.744412661573037"><ele>38.0</ele><time>2026-04-16T10:04:27.897Z</time></trkpt><trkpt lat="53.34454732556721" lon="14.744177633153637"><ele>38.0</ele><time>2026-04-16T10:04:33.897Z</time></trkpt><trkpt lat="53.34449078897496" lon="14.744081316549126"><ele>37.8</ele><time>2026-04-16T10:04:34.897Z</time></trkpt><trkpt lat="53.34443909636141" lon="14.744006526054237"><ele>37.599999999999994</ele><time>2026-04-16T10:04:35.897Z</time></trkpt><trkpt lat="53.344386839971804" lon="14.743901066067052"><ele>37.400000000000006</ele><time>2026-04-16T10:04:36.897Z</time></trkpt><trkpt lat="53.344309951605425" lon="14.743780031602483"><ele>37.2</ele><time>2026-04-16T10:04:37.897Z</time></trkpt><trkpt lat="53.344233021398054" lon="14.743664712915276"><ele>37.0</ele><time>2026-04-16T10:04:38.897Z</time></trkpt><trkpt lat="53.3441481531378" lon="14.743521039069616"><ele>37.4</ele><time>2026-04-16T10:04:39.897Z</time></trkpt><trkpt lat="53.34407012621401" lon="14.74340756043812"><ele>37.800000000000004</ele><time>2026-04-16T10:04:40.897Z</time></trkpt><trkpt lat="53.34399212906972" lon="14.743285732325138"><ele>38.2</ele><time>2026-04-16T10:04:41.897Z</time></trkpt><trkpt lat="53.34393068495201" lon="14.743173173783928"><ele>38.6</ele><time>2026-04-16T10:04:42.897Z</time></trkpt><trkpt lat="53.343856866491016" lon="14.743046703710384"><ele>39.0</ele><time>2026-04-16T10:04:43.897Z</time></trkpt><trkpt lat="53.343787767475696" lon="14.742926170668905"><ele>38.0</ele><time>2026-04-16T10:04:44.897Z</time></trkpt><trkpt lat="53.34372389960523" lon="14.742829814743462"><ele>37.0</ele><time>2026-04-16T10:04:45.897Z</time></trkpt><trkpt lat="53.343650057096454" lon="14.742708909811064"><ele>36.0</ele><time>2026-04-16T10:04:46.897Z</time></trkpt><trkpt lat="53.34358167969886" lon="14.742594545111576"><ele>35.0</ele><time>2026-04-16T10:04:47.897Z</time></trkpt><trkpt lat="53.34351472999217" lon="14.742489604181987"><ele>34.0</ele><time>2026-04-16T10:04:48.897Z</time></trkpt><trkpt lat="53.34344601776113" lon="14.74236652382382"><ele>33.8</ele><time>2026-04-16T10:04:49.897Z</time></trkpt><trkpt lat="53.34337087205167" lon="14.742244990637527"><ele>33.599999999999994</ele><time>2026-04-16T10:04:50.897Z</time></trkpt><trkpt lat="53.34329997959886" lon="14.742141797717236"><ele>33.4</ele><time>2026-04-16T10:04:51.897Z</time></trkpt><trkpt lat="53.34323306556108" lon="14.742035090961894"><ele>33.199999999999996</ele><time>2026-04-16T10:04:52.897Z</time></trkpt><trkpt lat="53.34315970272386" lon="14.741919737002588"><ele>33.0</ele><time>2026-04-16T10:04:53.897Z</time></trkpt><trkpt lat="53.34309924783108" lon="14.741812891837757"><ele>33.666666666666664</ele><time>2026-04-16T10:04:54.897Z</time></trkpt><trkpt lat="53.34302506246098" lon="14.74168500941845"><ele>34.333333333333336</ele><time>2026-04-16T10:04:55.897Z</time></trkpt><trkpt lat="53.342966374814964" lon="14.74159044823896"><ele>35.0</ele><time>2026-04-16T10:04:56.897Z</time></trkpt><trkpt lat="53.34291246997696" lon="14.741500542717898"><ele>35.66666666666667</ele><time>2026-04-16T10:04:57.898Z</time></trkpt><trkpt lat="53.3428649132889" lon="14.74142167046655"><ele>36.333333333333336</ele><time>2026-04-16T10:04:58.898Z</time></trkpt><trkpt lat="53.342789460819475" lon="14.741315694756915"><ele>37.0</ele><time>2026-04-16T10:05:00.898Z</time></trkpt><trkpt lat="53.34270563726573" lon="14.74133273722059"><ele>37.0</ele><time>2026-04-16T10:05:02.898Z</time></trkpt><trkpt lat="53.34263860212317" lon="14.741531468540574"><ele>37.0</ele><time>2026-04-16T10:05:04.898Z</time></trkpt><trkpt lat="53.3426022223553" lon="14.74172297787066"><ele>37.0</ele><time>2026-04-16T10:05:05.898Z</time></trkpt><trkpt lat="53.342542533084774" lon="14.741894999938127"><ele>37.0</ele><time>2026-04-16T10:05:06.898Z</time></trkpt><trkpt lat="53.342469982251366" lon="14.742082909703974"><ele>37.0</ele><time>2026-04-16T10:05:07.898Z</time></trkpt><trkpt lat="53.34238910430256" lon="14.742278664373304"><ele>37.0</ele><time>2026-04-16T10:05:08.898Z</time></trkpt><trkpt lat="53.34231758095594" lon="14.742458109590011"><ele>37.0</ele><time>2026-04-16T10:05:09.898Z</time></trkpt><trkpt lat="53.34224598395529" lon="14.742615326149995"><ele>37.0</ele><time>2026-04-16T10:05:10.898Z</time></trkpt><trkpt lat="53.34217440716491" lon="14.742789910201845"><ele>37.0</ele><time>2026-04-16T10:05:11.898Z</time></trkpt><trkpt lat="53.34210632983376" lon="14.742965033848051"><ele>37.0</ele><time>2026-04-16T10:05:12.898Z</time></trkpt><trkpt lat="53.34203086136722" lon="14.743137664523033"><ele>37.0</ele><time>2026-04-16T10:05:13.898Z</time></trkpt><trkpt lat="53.34195844018434" lon="14.743308444166468"><ele>37.0</ele><time>2026-04-16T10:05:14.898Z</time></trkpt><trkpt lat="53.341902262498365" lon="14.743429731204454"><ele>36.25</ele><time>2026-04-16T10:05:15.898Z</time></trkpt><trkpt lat="53.341840980655725" lon="14.7435924719301"><ele>35.5</ele><time>2026-04-16T10:05:16.898Z</time></trkpt><trkpt lat="53.34177451075039" lon="14.743755769605253"><ele>34.75</ele><time>2026-04-16T10:05:17.898Z</time></trkpt><trkpt lat="53.34171257502599" lon="14.743918136136184"><ele>34.0</ele><time>2026-04-16T10:05:18.898Z</time></trkpt><trkpt lat="53.34164441260881" lon="14.744105862343279"><ele>34.0</ele><time>2026-04-16T10:05:19.898Z</time></trkpt><trkpt lat="53.34156779229612" lon="14.744282105633088"><ele>34.0</ele><time>2026-04-16T10:05:20.898Z</time></trkpt><trkpt lat="53.34149173787459" lon="14.744459877041121"><ele>34.0</ele><time>2026-04-16T10:05:21.898Z</time></trkpt><trkpt lat="53.3414145001976" lon="14.744634097249387"><ele>34.0</ele><time>2026-04-16T10:05:22.898Z</time></trkpt><trkpt lat="53.341337842333495" lon="14.744839328600078"><ele>34.25</ele><time>2026-04-16T10:05:23.898Z</time></trkpt><trkpt lat="53.34126193328635" lon="14.745052565341217"><ele>34.5</ele><time>2026-04-16T10:05:24.898Z</time></trkpt><trkpt lat="53.34119692532732" lon="14.745230400497515"><ele>34.75</ele><time>2026-04-16T10:05:25.898Z</time></trkpt><trkpt lat="53.34113923329575" lon="14.745389027937739"><ele>35.0</ele><time>2026-04-16T10:05:26.898Z</time></trkpt><trkpt lat="53.34107427109396" lon="14.745561951994608"><ele>34.5</ele><time>2026-04-16T10:05:27.898Z</time></trkpt><trkpt lat="53.34099413147207" lon="14.745728076312634"><ele>34.0</ele><time>2026-04-16T10:05:28.898Z</time></trkpt><trkpt lat="53.34090671443572" lon="14.745887704797179"><ele>33.5</ele><time>2026-04-16T10:05:29.898Z</time></trkpt><trkpt lat="53.3407801847179" lon="14.745979183612409"><ele>33.0</ele><time>2026-04-16T10:05:30.898Z</time></trkpt><trkpt lat="53.34064582346488" lon="14.746136384034427"><ele>32.75</ele><time>2026-04-16T10:05:31.898Z</time></trkpt><trkpt lat="53.34052014258201" lon="14.746277025623247"><ele>32.5</ele><time>2026-04-16T10:05:32.898Z</time></trkpt><trkpt lat="53.34041365311432" lon="14.746393130933392"><ele>32.25</ele><time>2026-04-16T10:05:33.898Z</time></trkpt><trkpt lat="53.34030937734526" lon="14.746492089013202"><ele>32.0</ele><time>2026-04-16T10:05:34.898Z</time></trkpt><trkpt lat="53.340214076950254" lon="14.746564842827826"><ele>32.0</ele><time>2026-04-16T10:05:35.898Z</time></trkpt><trkpt lat="53.34012122139136" lon="14.746586633255943"><ele>32.0</ele><time>2026-04-16T10:05:36.898Z</time></trkpt><trkpt lat="53.34007379100681" lon="14.746857593156168"><ele>32.0</ele><time>2026-04-16T10:05:37.898Z</time></trkpt><trkpt lat="53.340004649049604" lon="14.74706661230937"><ele>32.0</ele><time>2026-04-16T10:05:38.898Z</time></trkpt><trkpt lat="53.339937960560334" lon="14.747274477126457"><ele>32.0</ele><time>2026-04-16T10:05:39.898Z</time></trkpt><trkpt lat="53.339886258286974" lon="14.747453059801261"><ele>32.0</ele><time>2026-04-16T10:05:40.898Z</time></trkpt><trkpt lat="53.339817395394626" lon="14.747673688702548"><ele>32.0</ele><time>2026-04-16T10:05:41.898Z</time></trkpt><trkpt lat="53.33975786688961" lon="14.747891047921435"><ele>32.0</ele><time>2026-04-16T10:05:42.898Z</time></trkpt><trkpt lat="53.33970854725448" lon="14.748095714314152"><ele>32.4</ele><time>2026-04-16T10:05:43.898Z</time></trkpt><trkpt lat="53.33967343447347" lon="14.74828385396766"><ele>32.800000000000004</ele><time>2026-04-16T10:05:44.898Z</time></trkpt><trkpt lat="53.33963543474381" lon="14.748460000992317"><ele>33.2</ele><time>2026-04-16T10:05:45.898Z</time></trkpt><trkpt lat="53.33960744518382" lon="14.748630313675372"><ele>33.6</ele><time>2026-04-16T10:05:46.898Z</time></trkpt><trkpt lat="53.339576449507234" lon="14.748770553423494"><ele>34.0</ele><time>2026-04-16T10:05:47.898Z</time></trkpt><trkpt lat="53.33954490954669" lon="14.748891410257455"><ele>34.0</ele><time>2026-04-16T10:05:48.898Z</time></trkpt><trkpt lat="53.33951424454066" lon="14.749031699152262"><ele>34.0</ele><time>2026-04-16T10:05:50.898Z</time></trkpt><trkpt lat="53.339641426954024" lon="14.749284773207004"><ele>34.0</ele><time>2026-04-16T10:05:54.898Z</time></trkpt><trkpt lat="53.33971538760409" lon="14.74934910740976"><ele>34.0</ele><time>2026-04-16T10:05:55.898Z</time></trkpt><trkpt lat="53.339752629329" lon="14.749448193184996"><ele>34.0</ele><time>2026-04-16T10:05:57.898Z</time></trkpt><trkpt lat="53.33965755189592" lon="14.749455744867314"><ele>35.0</ele><time>2026-04-16T10:05:59.898Z</time></trkpt><trkpt lat="53.33954860071812" lon="14.749469754912337"><ele>36.0</ele><time>2026-04-16T10:06:00.898Z</time></trkpt><trkpt lat="53.33943278798176" lon="14.749513281629596"><ele>37.0</ele><time>2026-04-16T10:06:01.899Z</time></trkpt><trkpt lat="53.339321154075414" lon="14.74953113453908"><ele>38.0</ele><time>2026-04-16T10:06:02.899Z</time></trkpt><trkpt lat="53.339208100284665" lon="14.749623585126946"><ele>38.0</ele><time>2026-04-16T10:06:03.899Z</time></trkpt><trkpt lat="53.33910132917925" lon="14.749789598272002"><ele>38.0</ele><time>2026-04-16T10:06:04.899Z</time></trkpt><trkpt lat="53.33901873507034" lon="14.749936855081"><ele>38.0</ele><time>2026-04-16T10:06:05.899Z</time></trkpt><trkpt lat="53.338934342423016" lon="14.750034591403635"><ele>38.0</ele><time>2026-04-16T10:06:06.899Z</time></trkpt><trkpt lat="53.3388529404019" lon="14.750101068497965"><ele>38.199999999999996</ele><time>2026-04-16T10:06:07.899Z</time></trkpt><trkpt lat="53.33876465358479" lon="14.75010236596265"><ele>38.4</ele><time>2026-04-16T10:06:08.899Z</time></trkpt><trkpt lat="53.33866829790571" lon="14.750030933396705"><ele>38.599999999999994</ele><time>2026-04-16T10:06:09.899Z</time></trkpt><trkpt lat="53.33855790596359" lon="14.749910564356886"><ele>38.8</ele><time>2026-04-16T10:06:10.896Z</time></trkpt><trkpt lat="53.33846692581898" lon="14.749817376737074"><ele>39.0</ele><time>2026-04-16T10:06:11.896Z</time></trkpt><trkpt lat="53.33837722376435" lon="14.749729348123816"><ele>39.0</ele><time>2026-04-16T10:06:12.896Z</time></trkpt><trkpt lat="53.33829273929175" lon="14.749643918976206"><ele>39.0</ele><time>2026-04-16T10:06:13.896Z</time></trkpt><trkpt lat="53.33821518738691" lon="14.749531503346414"><ele>39.0</ele><time>2026-04-16T10:06:14.896Z</time></trkpt><trkpt lat="53.33812275584936" lon="14.749407606467202"><ele>39.0</ele><time>2026-04-16T10:06:15.896Z</time></trkpt><trkpt lat="53.33802313144227" lon="14.749282997564643"><ele>39.0</ele><time>2026-04-16T10:06:16.896Z</time></trkpt><trkpt lat="53.33793502533894" lon="14.74917484853226"><ele>39.8</ele><time>2026-04-16T10:06:17.896Z</time></trkpt><trkpt lat="53.33785150313856" lon="14.749078179822304"><ele>40.599999999999994</ele><time>2026-04-16T10:06:18.896Z</time></trkpt><trkpt lat="53.33777215948276" lon="14.749000914481643"><ele>41.4</ele><time>2026-04-16T10:06:19.896Z</time></trkpt><trkpt lat="53.337652928985285" lon="14.74901415241792"><ele>42.199999999999996</ele><time>2026-04-16T10:06:20.896Z</time></trkpt><trkpt lat="53.3375478681968" lon="14.749134351773883"><ele>43.0</ele><time>2026-04-16T10:06:21.896Z</time></trkpt><trkpt lat="53.33742342632384" lon="14.749235166631301"><ele>43.0</ele><time>2026-04-16T10:06:22.896Z</time></trkpt><trkpt lat="53.337302395370436" lon="14.74934641422148"><ele>43.0</ele><time>2026-04-16T10:06:23.896Z</time></trkpt><trkpt lat="53.33717654967956" lon="14.749426906806013"><ele>43.0</ele><time>2026-04-16T10:06:24.896Z</time></trkpt><trkpt lat="53.33703376450435" lon="14.749490421148806"><ele>43.0</ele><time>2026-04-16T10:06:25.896Z</time></trkpt><trkpt lat="53.33689803071229" lon="14.749532626606799"><ele>43.0</ele><time>2026-04-16T10:06:26.897Z</time></trkpt><trkpt lat="53.33676805403611" lon="14.749573124562321"><ele>43.0</ele><time>2026-04-16T10:06:27.897Z</time></trkpt><trkpt lat="53.33662877670243" lon="14.749616386413145"><ele>43.0</ele><time>2026-04-16T10:06:28.897Z</time></trkpt><trkpt lat="53.33649226887221" lon="14.749658457835707"><ele>43.0</ele><time>2026-04-16T10:06:29.897Z</time></trkpt><trkpt lat="53.33636472162276" lon="14.749698422187933"><ele>43.5</ele><time>2026-04-16T10:06:30.897Z</time></trkpt><trkpt lat="53.336233696914356" lon="14.749739548786733"><ele>44.0</ele><time>2026-04-16T10:06:31.897Z</time></trkpt><trkpt lat="53.33608743892339" lon="14.749785465321153"><ele>44.5</ele><time>2026-04-16T10:06:32.897Z</time></trkpt><trkpt lat="53.33594039799287" lon="14.74982981111364"><ele>45.0</ele><time>2026-04-16T10:06:33.897Z</time></trkpt><trkpt lat="53.33577846371831" lon="14.74987750334455"><ele>45.0</ele><time>2026-04-16T10:06:34.897Z</time></trkpt><trkpt lat="53.33564005761428" lon="14.749917860327605"><ele>45.0</ele><time>2026-04-16T10:06:35.897Z</time></trkpt><trkpt lat="53.335501336480974" lon="14.749960050066653"><ele>45.0</ele><time>2026-04-16T10:06:36.897Z</time></trkpt><trkpt lat="53.33536910112431" lon="14.75003051882995"><ele>45.0</ele><time>2026-04-16T10:06:37.897Z</time></trkpt><trkpt lat="53.33521799470353" lon="14.750066206282856"><ele>45.25</ele><time>2026-04-16T10:06:38.897Z</time></trkpt><trkpt lat="53.33507319258038" lon="14.750109392937544"><ele>45.5</ele><time>2026-04-16T10:06:39.897Z</time></trkpt><trkpt lat="53.334921627675705" lon="14.75016032896576"><ele>45.75</ele><time>2026-04-16T10:06:40.897Z</time></trkpt><trkpt lat="53.334778946464546" lon="14.750206655781342"><ele>46.0</ele><time>2026-04-16T10:06:41.897Z</time></trkpt><trkpt lat="53.334624933414304" lon="14.750252235618893"><ele>46.0</ele><time>2026-04-16T10:06:42.897Z</time></trkpt><trkpt lat="53.334464487424064" lon="14.750309201405972"><ele>46.0</ele><time>2026-04-16T10:06:43.897Z</time></trkpt><trkpt lat="53.33431414476483" lon="14.750396385886502"><ele>46.0</ele><time>2026-04-16T10:06:44.897Z</time></trkpt><trkpt lat="53.334175599647565" lon="14.750493982371106"><ele>46.0</ele><time>2026-04-16T10:06:45.897Z</time></trkpt><trkpt lat="53.334045586382565" lon="14.75062566431172"><ele>46.0</ele><time>2026-04-16T10:06:46.897Z</time></trkpt><trkpt lat="53.33391547107934" lon="14.750760570200189"><ele>46.0</ele><time>2026-04-16T10:06:47.897Z</time></trkpt><trkpt lat="53.33379737928117" lon="14.7508827300191"><ele>46.0</ele><time>2026-04-16T10:06:48.897Z</time></trkpt><trkpt lat="53.33367763337632" lon="14.750991131787655"><ele>46.25</ele><time>2026-04-16T10:06:49.897Z</time></trkpt><trkpt lat="53.33354864821751" lon="14.75101704770944"><ele>46.5</ele><time>2026-04-16T10:06:50.897Z</time></trkpt><trkpt lat="53.3334106812981" lon="14.751062714001293"><ele>46.75</ele><time>2026-04-16T10:06:51.897Z</time></trkpt><trkpt lat="53.33326682257109" lon="14.751105825575593"><ele>47.0</ele><time>2026-04-16T10:06:52.897Z</time></trkpt><trkpt lat="53.3331261474589" lon="14.751143797340319"><ele>48.25</ele><time>2026-04-16T10:06:53.897Z</time></trkpt><trkpt lat="53.33298737379049" lon="14.751195054483405"><ele>49.5</ele><time>2026-04-16T10:06:54.897Z</time></trkpt><trkpt lat="53.332847355487715" lon="14.751208381266459"><ele>50.75</ele><time>2026-04-16T10:06:55.897Z</time></trkpt><trkpt lat="53.332718696340635" lon="14.75121142327114"><ele>52.0</ele><time>2026-04-16T10:06:56.897Z</time></trkpt><trkpt lat="53.33261747689414" lon="14.751229853321483"><ele>51.99999999999999</ele><time>2026-04-16T10:06:57.897Z</time></trkpt><trkpt lat="53.33253435873163" lon="14.751202325663172"><ele>52.0</ele><time>2026-04-16T10:06:58.897Z</time></trkpt><trkpt lat="53.33246069166576" lon="14.751204923036367"><ele>52.0</ele><time>2026-04-16T10:06:59.897Z</time></trkpt><trkpt lat="53.33238464595076" lon="14.75124434888518"><ele>52.0</ele><time>2026-04-16T10:07:00.897Z</time></trkpt><trkpt lat="53.332306296583354" lon="14.751299835250022"><ele>51.99999999999999</ele><time>2026-04-16T10:07:01.897Z</time></trkpt><trkpt lat="53.332237873435915" lon="14.75143342324713"><ele>52.0</ele><time>2026-04-16T10:07:02.897Z</time></trkpt><trkpt lat="53.33218260740885" lon="14.75162002177982"><ele>52.33333333333333</ele><time>2026-04-16T10:07:03.897Z</time></trkpt><trkpt lat="53.33214075139129" lon="14.751868079597518"><ele>52.66666666666667</ele><time>2026-04-16T10:07:04.897Z</time></trkpt><trkpt lat="53.332100004383804" lon="14.752128760097085"><ele>53.0</ele><time>2026-04-16T10:07:05.897Z</time></trkpt><trkpt lat="53.33206099616392" lon="14.752361886631475"><ele>53.0</ele><time>2026-04-16T10:07:06.897Z</time></trkpt><trkpt lat="53.33202183931662" lon="14.752558922754984"><ele>53.0</ele><time>2026-04-16T10:07:07.897Z</time></trkpt><trkpt lat="53.33195947199173" lon="14.752727181831544"><ele>53.0</ele><time>2026-04-16T10:07:08.897Z</time></trkpt><trkpt lat="53.331920271983634" lon="14.752904462577096"><ele>53.0</ele><time>2026-04-16T10:07:09.897Z</time></trkpt><trkpt lat="53.33186442007347" lon="14.75305987528733"><ele>52.8</ele><time>2026-04-16T10:07:10.897Z</time></trkpt><trkpt lat="53.33180946628885" lon="14.753222152176473"><ele>52.599999999999994</ele><time>2026-04-16T10:07:11.897Z</time></trkpt><trkpt lat="53.33177541976932" lon="14.75336946756265"><ele>52.400000000000006</ele><time>2026-04-16T10:07:12.897Z</time></trkpt><trkpt lat="53.33172751376548" lon="14.753535519169784"><ele>52.2</ele><time>2026-04-16T10:07:13.897Z</time></trkpt><trkpt lat="53.33167673771532" lon="14.753699045078985"><ele>52.0</ele><time>2026-04-16T10:07:14.897Z</time></trkpt><trkpt lat="53.33163212074885" lon="14.753866718172986"><ele>51.5</ele><time>2026-04-16T10:07:15.897Z</time></trkpt><trkpt lat="53.33156002620865" lon="14.753998117092504"><ele>51.0</ele><time>2026-04-16T10:07:16.897Z</time></trkpt><trkpt lat="53.33150266191876" lon="14.754214238315033"><ele>50.5</ele><time>2026-04-16T10:07:17.897Z</time></trkpt><trkpt lat="53.33146504648046" lon="14.75439191711094"><ele>50.0</ele><time>2026-04-16T10:07:18.897Z</time></trkpt><trkpt lat="53.33141683698744" lon="14.754547968733581"><ele>49.25</ele><time>2026-04-16T10:07:19.897Z</time></trkpt><trkpt lat="53.33135200472433" lon="14.754695176678673"><ele>48.5</ele><time>2026-04-16T10:07:20.897Z</time></trkpt><trkpt lat="53.33128445138207" lon="14.754866869870348"><ele>47.75</ele><time>2026-04-16T10:07:21.897Z</time></trkpt><trkpt lat="53.33124104174921" lon="14.755030107913942"><ele>47.0</ele><time>2026-04-16T10:07:22.897Z</time></trkpt><trkpt lat="53.33120660833972" lon="14.755218132967173"><ele>46.400000000000006</ele><time>2026-04-16T10:07:23.897Z</time></trkpt><trkpt lat="53.33116618105738" lon="14.755382894300881"><ele>45.800000000000004</ele><time>2026-04-16T10:07:24.897Z</time></trkpt><trkpt lat="53.331140390446976" lon="14.75553128231703"><ele>45.2</ele><time>2026-04-16T10:07:25.897Z</time></trkpt><trkpt lat="53.33108412324229" lon="14.755701158826541"><ele>44.6</ele><time>2026-04-16T10:07:26.897Z</time></trkpt><trkpt lat="53.33104827144157" lon="14.755856294044925"><ele>44.0</ele><time>2026-04-16T10:07:27.897Z</time></trkpt><trkpt lat="53.330985997267824" lon="14.756021678057946"><ele>43.800000000000004</ele><time>2026-04-16T10:07:28.897Z</time></trkpt><trkpt lat="53.330959449067024" lon="14.756187721724865"><ele>43.6</ele><time>2026-04-16T10:07:29.897Z</time></trkpt><trkpt lat="53.33091036873787" lon="14.756330519738125"><ele>43.4</ele><time>2026-04-16T10:07:30.898Z</time></trkpt><trkpt lat="53.33087907330161" lon="14.756494662072532"><ele>43.2</ele><time>2026-04-16T10:07:31.898Z</time></trkpt><trkpt lat="53.33088116385891" lon="14.756627759708863"><ele>43.0</ele><time>2026-04-16T10:07:32.898Z</time></trkpt><trkpt lat="53.33087476214264" lon="14.756739386499186"><ele>43.0</ele><time>2026-04-16T10:07:33.898Z</time></trkpt><trkpt lat="53.33086782757965" lon="14.756855539950655"><ele>43.0</ele><time>2026-04-16T10:07:34.898Z</time></trkpt><trkpt lat="53.33086121257327" lon="14.756960489437338"><ele>43.0</ele><time>2026-04-16T10:07:35.898Z</time></trkpt><trkpt lat="53.33084842836697" lon="14.757163118154939"><ele>43.0</ele><time>2026-04-16T10:07:37.898Z</time></trkpt><trkpt lat="53.33080620859968" lon="14.757242010374544"><ele>43.0</ele><time>2026-04-16T10:07:38.898Z</time></trkpt><trkpt lat="53.33076585701772" lon="14.757413193671407"><ele>43.0</ele><time>2026-04-16T10:07:39.898Z</time></trkpt><trkpt lat="53.33073939242012" lon="14.757584190511373"><ele>42.25</ele><time>2026-04-16T10:07:40.898Z</time></trkpt><trkpt lat="53.33070664512628" lon="14.757768914903092"><ele>41.5</ele><time>2026-04-16T10:07:41.898Z</time></trkpt><trkpt lat="53.33066497806227" lon="14.757965331109427"><ele>40.75</ele><time>2026-04-16T10:07:42.898Z</time></trkpt><trkpt lat="53.33064629563228" lon="14.758168566554307"><ele>40.0</ele><time>2026-04-16T10:07:43.898Z</time></trkpt><trkpt lat="53.33064178840479" lon="14.758347197989227"><ele>40.0</ele><time>2026-04-16T10:07:44.898Z</time></trkpt><trkpt lat="53.33064930115047" lon="14.758490173157895"><ele>40.0</ele><time>2026-04-16T10:07:45.898Z</time></trkpt><trkpt lat="53.33066566033905" lon="14.758630514418048"><ele>40.0</ele><time>2026-04-16T10:07:46.898Z</time></trkpt><trkpt lat="53.330688354900296" lon="14.758760476143943"><ele>40.0</ele><time>2026-04-16T10:07:47.898Z</time></trkpt><trkpt lat="53.330724479160864" lon="14.758903131543253"><ele>40.0</ele><time>2026-04-16T10:07:48.898Z</time></trkpt><trkpt lat="53.33079523632064" lon="14.759084618039081"><ele>39.5</ele><time>2026-04-16T10:07:49.898Z</time></trkpt><trkpt lat="53.33086236588533" lon="14.759283639589004"><ele>39.0</ele><time>2026-04-16T10:07:50.898Z</time></trkpt><trkpt lat="53.330930807418284" lon="14.759479222242907"><ele>38.5</ele><time>2026-04-16T10:07:51.898Z</time></trkpt><trkpt lat="53.33098380172901" lon="14.75971098024294"><ele>38.0</ele><time>2026-04-16T10:07:52.898Z</time></trkpt><trkpt lat="53.331034936165764" lon="14.75990673689453"><ele>38.0</ele><time>2026-04-16T10:07:53.898Z</time></trkpt><trkpt lat="53.3310722658437" lon="14.760075983778563"><ele>38.0</ele><time>2026-04-16T10:07:54.898Z</time></trkpt><trkpt lat="53.33109712385088" lon="14.760249603278133"><ele>38.0</ele><time>2026-04-16T10:07:55.898Z</time></trkpt><trkpt lat="53.331110642729016" lon="14.76043099852798"><ele>38.0</ele><time>2026-04-16T10:07:56.898Z</time></trkpt><trkpt lat="53.331119911060114" lon="14.760591923435872"><ele>38.0</ele><time>2026-04-16T10:07:57.898Z</time></trkpt><trkpt lat="53.33112634357272" lon="14.760726839678222"><ele>38.0</ele><time>2026-04-16T10:07:58.898Z</time></trkpt><trkpt lat="53.33113940407129" lon="14.760847729169887"><ele>38.0</ele><time>2026-04-16T10:07:59.898Z</time></trkpt><trkpt lat="53.331197394564704" lon="14.761015601783939"><ele>38.0</ele><time>2026-04-16T10:08:01.898Z</time></trkpt><trkpt lat="53.331239579415886" lon="14.76116012944014"><ele>38.0</ele><time>2026-04-16T10:08:02.898Z</time></trkpt><trkpt lat="53.33127589911128" lon="14.761320484749126"><ele>38.0</ele><time>2026-04-16T10:08:03.898Z</time></trkpt><trkpt lat="53.33130644272176" lon="14.761493662470794"><ele>38.199999999999996</ele><time>2026-04-16T10:08:04.898Z</time></trkpt><trkpt lat="53.33133892321135" lon="14.761694155638137"><ele>38.4</ele><time>2026-04-16T10:08:05.898Z</time></trkpt><trkpt lat="53.33136523792847" lon="14.761887620534543"><ele>38.599999999999994</ele><time>2026-04-16T10:08:06.898Z</time></trkpt><trkpt lat="53.331384416575915" lon="14.762031878796959"><ele>38.8</ele><time>2026-04-16T10:08:07.898Z</time></trkpt><trkpt lat="53.33140098265913" lon="14.762168687412982"><ele>39.0</ele><time>2026-04-16T10:08:08.898Z</time></trkpt><trkpt lat="53.33142828130519" lon="14.762292614698026"><ele>39.0</ele><time>2026-04-16T10:08:09.898Z</time></trkpt><trkpt lat="53.33142112822298" lon="14.762425051910807"><ele>39.0</ele><time>2026-04-16T10:08:10.898Z</time></trkpt><trkpt lat="53.33141986723152" lon="14.762571321020891"><ele>39.0</ele><time>2026-04-16T10:08:12.898Z</time></trkpt><trkpt lat="53.331270781862486" lon="14.762596760305623"><ele>39.0</ele><time>2026-04-16T10:08:15.898Z</time></trkpt><trkpt lat="53.331172791244505" lon="14.762595322753375"><ele>39.0</ele><time>2026-04-16T10:08:16.895Z</time></trkpt><trkpt lat="53.33107672091676" lon="14.762587738474007"><ele>38.666666666666664</ele><time>2026-04-16T10:08:17.895Z</time></trkpt><trkpt lat="53.33097387496104" lon="14.762568821036194"><ele>38.333333333333336</ele><time>2026-04-16T10:08:18.895Z</time></trkpt><trkpt lat="53.33090539232635" lon="14.76257362839173"><ele>38.0</ele><time>2026-04-16T10:08:19.895Z</time></trkpt><trkpt lat="53.33085113572485" lon="14.762484070685783"><ele>37.66666666666667</ele><time>2026-04-16T10:08:20.895Z</time></trkpt><trkpt lat="53.33078432217073" lon="14.762409183906508"><ele>37.333333333333336</ele><time>2026-04-16T10:08:21.895Z</time></trkpt><trkpt lat="53.33073077465192" lon="14.762284545488825"><ele>37.0</ele><time>2026-04-16T10:08:22.895Z</time></trkpt><trkpt lat="53.33072841744091" lon="14.762144969597946"><ele>37.0</ele><time>2026-04-16T10:08:23.895Z</time></trkpt><trkpt lat="53.33067894879575" lon="14.762023749860242"><ele>37.0</ele><time>2026-04-16T10:08:24.895Z</time></trkpt><trkpt lat="53.330587682526335" lon="14.761910839706092"><ele>37.0</ele><time>2026-04-16T10:08:25.895Z</time></trkpt><trkpt lat="53.33047597167353" lon="14.761867503093638"><ele>37.0</ele><time>2026-04-16T10:08:26.895Z</time></trkpt><trkpt lat="53.330342299817616" lon="14.761878362228067"><ele>36.75</ele><time>2026-04-16T10:08:27.895Z</time></trkpt><trkpt lat="53.33021182330915" lon="14.761887579495465"><ele>36.5</ele><time>2026-04-16T10:08:28.895Z</time></trkpt><trkpt lat="53.33007332577609" lon="14.761867657845796"><ele>36.25</ele><time>2026-04-16T10:08:29.895Z</time></trkpt><trkpt lat="53.32990461978233" lon="14.761871058354878"><ele>36.0</ele><time>2026-04-16T10:08:30.895Z</time></trkpt><trkpt lat="53.329723706871604" lon="14.761875317991425"><ele>36.0</ele><time>2026-04-16T10:08:31.895Z</time></trkpt><trkpt lat="53.32956242603878" lon="14.761879486369155"><ele>36.0</ele><time>2026-04-16T10:08:32.895Z</time></trkpt><trkpt lat="53.329418058125995" lon="14.761886436773816"><ele>36.0</ele><time>2026-04-16T10:08:33.895Z</time></trkpt><trkpt lat="53.32930804990064" lon="14.761900829481105"><ele>36.0</ele><time>2026-04-16T10:08:34.895Z</time></trkpt><trkpt lat="53.329228959482975" lon="14.761908225154794"><ele>36.0</ele><time>2026-04-16T10:08:35.895Z</time></trkpt><trkpt lat="53.329137261094814" lon="14.761897224472202"><ele>36.0</ele><time>2026-04-16T10:08:38.895Z</time></trkpt><trkpt lat="53.32906189227858" lon="14.761941051871206"><ele>36.0</ele><time>2026-04-16T10:26:07.893Z</time></trkpt><trkpt lat="53.32914238889404" lon="14.761982051189232"><ele>36.0</ele><time>2026-04-16T10:26:21.893Z</time></trkpt><trkpt lat="53.32919712007676" lon="14.761927731095533"><ele>36.0</ele><time>2026-04-16T10:27:16.892Z</time></trkpt><trkpt lat="53.32926575086742" lon="14.76188897573052"><ele>36.0</ele><time>2026-04-16T10:27:55.892Z</time></trkpt><trkpt lat="53.32933622799267" lon="14.761873596181164"><ele>36.0</ele><time>2026-04-16T10:27:57.892Z</time></trkpt><trkpt lat="53.32942553943773" lon="14.761876381344353"><ele>36.0</ele><time>2026-04-16T10:28:01.892Z</time></trkpt><trkpt lat="53.32952764863617" lon="14.761868578032455"><ele>36.0</ele><time>2026-04-16T10:28:03.892Z</time></trkpt><trkpt lat="53.3296243804805" lon="14.761864607773129"><ele>36.0</ele><time>2026-04-16T10:28:05.892Z</time></trkpt><trkpt lat="53.329714248290124" lon="14.761867357576886"><ele>36.0</ele><time>2026-04-16T10:28:07.892Z</time></trkpt><trkpt lat="53.32979186665973" lon="14.761891473245603"><ele>35.833333333333336</ele><time>2026-04-16T10:28:09.892Z</time></trkpt><trkpt lat="53.32986397442161" lon="14.761897331409601"><ele>35.666666666666664</ele><time>2026-04-16T10:28:11.892Z</time></trkpt><trkpt lat="53.32993857643332" lon="14.761901508268492"><ele>35.5</ele><time>2026-04-16T10:29:17.892Z</time></trkpt><trkpt lat="53.330016906382994" lon="14.761889261989555"><ele>35.33333333333333</ele><time>2026-04-16T10:29:19.892Z</time></trkpt><trkpt lat="53.33008160609161" lon="14.761889502393318"><ele>35.166666666666664</ele><time>2026-04-16T10:29:20.892Z</time></trkpt><trkpt lat="53.33016885024794" lon="14.761891930557411"><ele>35.0</ele><time>2026-04-16T10:29:21.892Z</time></trkpt><trkpt lat="53.33024872905115" lon="14.76188627110986"><ele>35.0</ele><time>2026-04-16T10:29:22.893Z</time></trkpt><trkpt lat="53.33031539338788" lon="14.761887039335281"><ele>35.0</ele><time>2026-04-16T10:29:23.892Z</time></trkpt><trkpt lat="53.330438511042736" lon="14.761896542993236"><ele>35.0</ele><time>2026-04-16T10:29:25.892Z</time></trkpt><trkpt lat="53.3305146300886" lon="14.761911917856569"><ele>35.0</ele><time>2026-04-16T10:29:26.892Z</time></trkpt><trkpt lat="53.33059596511615" lon="14.76195424361321"><ele>35.0</ele><time>2026-04-16T10:29:27.892Z</time></trkpt><trkpt lat="53.330662441293676" lon="14.7620458339767"><ele>35.0</ele><time>2026-04-16T10:29:28.892Z</time></trkpt><trkpt lat="53.33071611666478" lon="14.762164884612933"><ele>35.33333333333333</ele><time>2026-04-16T10:29:29.892Z</time></trkpt><trkpt lat="53.33074770169384" lon="14.762297953409263"><ele>35.666666666666664</ele><time>2026-04-16T10:29:30.892Z</time></trkpt><trkpt lat="53.33078315198672" lon="14.762419818527187"><ele>36.0</ele><time>2026-04-16T10:29:31.892Z</time></trkpt><trkpt lat="53.33083525810568" lon="14.76250147278367"><ele>36.333333333333336</ele><time>2026-04-16T10:29:32.892Z</time></trkpt><trkpt lat="53.33091097340744" lon="14.762567517227014"><ele>36.66666666666667</ele><time>2026-04-16T10:29:33.892Z</time></trkpt><trkpt lat="53.33098665366377" lon="14.7626087521871"><ele>37.0</ele><time>2026-04-16T10:29:34.892Z</time></trkpt><trkpt lat="53.331089904577404" lon="14.762646608126765"><ele>37.0</ele><time>2026-04-16T10:29:35.892Z</time></trkpt><trkpt lat="53.3312076530469" lon="14.762664407125353"><ele>37.0</ele><time>2026-04-16T10:29:36.892Z</time></trkpt><trkpt lat="53.33129609701453" lon="14.76265544415976"><ele>37.0</ele><time>2026-04-16T10:29:37.892Z</time></trkpt><trkpt lat="53.33138575204266" lon="14.762645574485191"><ele>37.0</ele><time>2026-04-16T10:29:38.892Z</time></trkpt><trkpt lat="53.33149641400384" lon="14.762631261767408"><ele>37.0</ele><time>2026-04-16T10:29:39.892Z</time></trkpt><trkpt lat="53.3316151137156" lon="14.762580245484324"><ele>37.5</ele><time>2026-04-16T10:29:40.892Z</time></trkpt><trkpt lat="53.331720421671484" lon="14.762511370343313"><ele>38.0</ele><time>2026-04-16T10:29:41.892Z</time></trkpt><trkpt lat="53.331827632505934" lon="14.76244495853571"><ele>38.5</ele><time>2026-04-16T10:29:42.892Z</time></trkpt><trkpt lat="53.331933613204924" lon="14.762365778899994"><ele>39.0</ele><time>2026-04-16T10:29:43.892Z</time></trkpt><trkpt lat="53.332054741507264" lon="14.762306796243411"><ele>39.0</ele><time>2026-04-16T10:29:44.892Z</time></trkpt><trkpt lat="53.33217328138659" lon="14.76230140958512"><ele>39.0</ele><time>2026-04-16T10:29:45.892Z</time></trkpt><trkpt lat="53.33231747652175" lon="14.762315390114724"><ele>39.0</ele><time>2026-04-16T10:29:46.892Z</time></trkpt><trkpt lat="53.33245010932215" lon="14.762337166674435"><ele>39.0</ele><time>2026-04-16T10:29:47.892Z</time></trkpt><trkpt lat="53.33255627296097" lon="14.762358886781458"><ele>38.8</ele><time>2026-04-16T10:29:48.892Z</time></trkpt><trkpt lat="53.332648353988645" lon="14.762382257693147"><ele>38.599999999999994</ele><time>2026-04-16T10:29:49.892Z</time></trkpt><trkpt lat="53.33274945932894" lon="14.762426408778452"><ele>38.4</ele><time>2026-04-16T10:29:50.892Z</time></trkpt><trkpt lat="53.33286454796424" lon="14.762451481769673"><ele>38.199999999999996</ele><time>2026-04-16T10:29:51.892Z</time></trkpt><trkpt lat="53.332989370809216" lon="14.762479338586592"><ele>38.0</ele><time>2026-04-16T10:29:52.892Z</time></trkpt><trkpt lat="53.333133743103566" lon="14.76251155838219"><ele>39.0</ele><time>2026-04-16T10:29:53.892Z</time></trkpt><trkpt lat="53.33327346534867" lon="14.762542660862527"><ele>40.0</ele><time>2026-04-16T10:29:54.892Z</time></trkpt><trkpt lat="53.33339613992119" lon="14.762546674731107"><ele>41.0</ele><time>2026-04-16T10:29:55.892Z</time></trkpt><trkpt lat="53.33350681980073" lon="14.762588775562088"><ele>42.0</ele><time>2026-04-16T10:29:56.892Z</time></trkpt><trkpt lat="53.33361298602597" lon="14.762612318612582"><ele>42.0</ele><time>2026-04-16T10:29:57.892Z</time></trkpt><trkpt lat="53.33371159352701" lon="14.762636576483928"><ele>42.0</ele><time>2026-04-16T10:29:58.892Z</time></trkpt><trkpt lat="53.333802284567156" lon="14.762678769861946"><ele>42.0</ele><time>2026-04-16T10:29:59.892Z</time></trkpt><trkpt lat="53.333918664947824" lon="14.762707972341778"><ele>42.0</ele><time>2026-04-16T10:30:00.892Z</time></trkpt><trkpt lat="53.33403167664324" lon="14.76273794329908"><ele>42.0</ele><time>2026-04-16T10:30:01.892Z</time></trkpt><trkpt lat="53.33414566320776" lon="14.762798515752566"><ele>40.75</ele><time>2026-04-16T10:30:02.892Z</time></trkpt><trkpt lat="53.33426500978305" lon="14.762838662660261"><ele>39.5</ele><time>2026-04-16T10:30:03.892Z</time></trkpt><trkpt lat="53.33440272849346" lon="14.762874261428015"><ele>38.25</ele><time>2026-04-16T10:30:04.893Z</time></trkpt><trkpt lat="53.33455837879444" lon="14.762907255470692"><ele>37.0</ele><time>2026-04-16T10:30:05.893Z</time></trkpt><trkpt lat="53.3347176100909" lon="14.762931483780207"><ele>36.75</ele><time>2026-04-16T10:30:06.893Z</time></trkpt><trkpt lat="53.33486785933607" lon="14.762949150269417"><ele>36.5</ele><time>2026-04-16T10:30:07.893Z</time></trkpt><trkpt lat="53.33499446176933" lon="14.762971636939874"><ele>36.25</ele><time>2026-04-16T10:30:08.893Z</time></trkpt><trkpt lat="53.33512796698574" lon="14.762991067452296"><ele>36.0</ele><time>2026-04-16T10:30:09.893Z</time></trkpt><trkpt lat="53.335257948736256" lon="14.763015961835158"><ele>36.0</ele><time>2026-04-16T10:30:10.893Z</time></trkpt><trkpt lat="53.33537306025198" lon="14.763037756554318"><ele>36.0</ele><time>2026-04-16T10:30:11.893Z</time></trkpt><trkpt lat="53.33550093390191" lon="14.763068213656306"><ele>36.0</ele><time>2026-04-16T10:30:12.893Z</time></trkpt><trkpt lat="53.33564406332148" lon="14.763090016660865"><ele>36.0</ele><time>2026-04-16T10:30:13.893Z</time></trkpt><trkpt lat="53.335790786657036" lon="14.763115769086413"><ele>35.75</ele><time>2026-04-16T10:30:14.893Z</time></trkpt><trkpt lat="53.33593431623932" lon="14.763133986260037"><ele>35.5</ele><time>2026-04-16T10:30:15.893Z</time></trkpt><trkpt lat="53.33606191016158" lon="14.763145631185749"><ele>35.25</ele><time>2026-04-16T10:30:16.893Z</time></trkpt><trkpt lat="53.33619943060458" lon="14.763136574577832"><ele>35.0</ele><time>2026-04-16T10:30:17.893Z</time></trkpt><trkpt lat="53.33632752313772" lon="14.763152093305356"><ele>35.25</ele><time>2026-04-16T10:30:18.893Z</time></trkpt><trkpt lat="53.33644287576223" lon="14.763160004378307"><ele>35.5</ele><time>2026-04-16T10:30:19.893Z</time></trkpt><trkpt lat="53.33657826949538" lon="14.76318643988975"><ele>35.75</ele><time>2026-04-16T10:30:20.893Z</time></trkpt><trkpt lat="53.33671972704674" lon="14.763198642770433"><ele>36.0</ele><time>2026-04-16T10:30:21.893Z</time></trkpt><trkpt lat="53.33684446290567" lon="14.763209423267082"><ele>36.0</ele><time>2026-04-16T10:30:22.893Z</time></trkpt><trkpt lat="53.336968271700854" lon="14.763220151560656"><ele>36.0</ele><time>2026-04-16T10:30:23.893Z</time></trkpt><trkpt lat="53.33710274622022" lon="14.763232211947876"><ele>36.0</ele><time>2026-04-16T10:30:24.893Z</time></trkpt><trkpt lat="53.337228145850304" lon="14.763219183427932"><ele>36.0</ele><time>2026-04-16T10:30:25.893Z</time></trkpt><trkpt lat="53.33735732127076" lon="14.763264913503411"><ele>36.0</ele><time>2026-04-16T10:30:26.893Z</time></trkpt><trkpt lat="53.33748131205475" lon="14.763259215945963"><ele>36.0</ele><time>2026-04-16T10:30:27.893Z</time></trkpt><trkpt lat="53.3375925881475" lon="14.763251673897475"><ele>36.0</ele><time>2026-04-16T10:30:28.893Z</time></trkpt><trkpt lat="53.33771218093602" lon="14.763264900387165"><ele>36.0</ele><time>2026-04-16T10:30:29.893Z</time></trkpt><trkpt lat="53.33783717378739" lon="14.763284349411228"><ele>36.0</ele><time>2026-04-16T10:30:30.893Z</time></trkpt><trkpt lat="53.33797977889982" lon="14.763291353035722"><ele>36.0</ele><time>2026-04-16T10:30:31.893Z</time></trkpt><trkpt lat="53.33811624659255" lon="14.763326985393709"><ele>36.0</ele><time>2026-04-16T10:30:32.893Z</time></trkpt><trkpt lat="53.33823259556366" lon="14.763332599474078"><ele>36.0</ele><time>2026-04-16T10:30:33.893Z</time></trkpt><trkpt lat="53.338340928240136" lon="14.763331905099454"><ele>35.0</ele><time>2026-04-16T10:30:34.893Z</time></trkpt><trkpt lat="53.33844388600377" lon="14.763349579804352"><ele>34.0</ele><time>2026-04-16T10:30:35.893Z</time></trkpt><trkpt lat="53.33854241503602" lon="14.763347828890028"><ele>33.0</ele><time>2026-04-16T10:30:36.893Z</time></trkpt><trkpt lat="53.33861951665717" lon="14.763367596719258"><ele>32.0</ele><time>2026-04-16T10:30:37.893Z</time></trkpt><trkpt lat="53.33868919225191" lon="14.763361955885264"><ele>31.0</ele><time>2026-04-16T10:30:38.893Z</time></trkpt><trkpt lat="53.33875681350426" lon="14.763385285801407"><ele>30.0</ele><time>2026-04-16T10:30:39.893Z</time></trkpt><trkpt lat="53.33886400184737" lon="14.763432339778113"><ele>29.2</ele><time>2026-04-16T10:30:41.893Z</time></trkpt><trkpt lat="53.33894137493014" lon="14.763448021911362"><ele>28.4</ele><time>2026-04-16T10:30:43.893Z</time></trkpt><trkpt lat="53.33901309480407" lon="14.763499713810043"><ele>27.6</ele><time>2026-04-16T10:30:53.893Z</time></trkpt><trkpt lat="53.33912229368324" lon="14.763405439007343"><ele>26.8</ele><time>2026-04-16T10:30:55.893Z</time></trkpt><trkpt lat="53.33918548933434" lon="14.76328344600158"><ele>26.0</ele><time>2026-04-16T10:30:56.893Z</time></trkpt><trkpt lat="53.33928422243671" lon="14.76316765721779"><ele>26.0</ele><time>2026-04-16T10:30:57.893Z</time></trkpt><trkpt lat="53.33939583127658" lon="14.762997236864793"><ele>26.0</ele><time>2026-04-16T10:30:58.893Z</time></trkpt><trkpt lat="53.3395253439344" lon="14.762800026593863"><ele>26.0</ele><time>2026-04-16T10:30:59.893Z</time></trkpt><trkpt lat="53.33966224417491" lon="14.762591596580888"><ele>24.666666666666664</ele><time>2026-04-16T10:31:00.893Z</time></trkpt><trkpt lat="53.339785241087434" lon="14.762403733027227"><ele>23.333333333333332</ele><time>2026-04-16T10:31:01.893Z</time></trkpt><trkpt lat="53.339912114663626" lon="14.762210390033845"><ele>22.0</ele><time>2026-04-16T10:31:02.893Z</time></trkpt><trkpt lat="53.340039838719356" lon="14.76201819722357"><ele>22.333333333333332</ele><time>2026-04-16T10:31:03.893Z</time></trkpt><trkpt lat="53.34017309150006" lon="14.761814573526998"><ele>22.666666666666668</ele><time>2026-04-16T10:31:04.893Z</time></trkpt><trkpt lat="53.34031550261252" lon="14.761598347865004"><ele>23.0</ele><time>2026-04-16T10:31:05.893Z</time></trkpt><trkpt lat="53.34045919947617" lon="14.761380714625227"><ele>22.333333333333336</ele><time>2026-04-16T10:31:06.893Z</time></trkpt><trkpt lat="53.34060033524682" lon="14.7611670196065"><ele>21.666666666666668</ele><time>2026-04-16T10:31:07.893Z</time></trkpt><trkpt lat="53.340735390410686" lon="14.760939848473983"><ele>21.0</ele><time>2026-04-16T10:31:08.893Z</time></trkpt><trkpt lat="53.3408737474646" lon="14.760731286049314"><ele>22.333333333333336</ele><time>2026-04-16T10:31:09.893Z</time></trkpt><trkpt lat="53.34101718801922" lon="14.760519169845827"><ele>23.666666666666668</ele><time>2026-04-16T10:31:10.894Z</time></trkpt><trkpt lat="53.34115829307978" lon="14.760302171287249"><ele>25.0</ele><time>2026-04-16T10:31:11.894Z</time></trkpt><trkpt lat="53.341297964166166" lon="14.760088294560992"><ele>24.666666666666668</ele><time>2026-04-16T10:31:12.894Z</time></trkpt><trkpt lat="53.341434773207325" lon="14.759880183100373"><ele>24.333333333333336</ele><time>2026-04-16T10:31:13.894Z</time></trkpt><trkpt lat="53.3415666629586" lon="14.759673219083822"><ele>24.0</ele><time>2026-04-16T10:31:14.894Z</time></trkpt><trkpt lat="53.34170269687546" lon="14.759469196403062"><ele>26.666666666666664</ele><time>2026-04-16T10:31:15.894Z</time></trkpt><trkpt lat="53.34183230145599" lon="14.759275469952952"><ele>29.333333333333332</ele><time>2026-04-16T10:31:16.894Z</time></trkpt><trkpt lat="53.34195205264581" lon="14.759089090879016"><ele>32.0</ele><time>2026-04-16T10:31:17.894Z</time></trkpt><trkpt lat="53.34206305861231" lon="14.758906734146498"><ele>32.0</ele><time>2026-04-16T10:31:18.894Z</time></trkpt><trkpt lat="53.342175685163106" lon="14.758698422973772"><ele>32.0</ele><time>2026-04-16T10:31:19.894Z</time></trkpt><trkpt lat="53.34229837985432" lon="14.758465605588855"><ele>32.0</ele><time>2026-04-16T10:31:20.894Z</time></trkpt><trkpt lat="53.342418619651156" lon="14.758214700208956"><ele>31.0</ele><time>2026-04-16T10:31:21.894Z</time></trkpt><trkpt lat="53.34253375513115" lon="14.75795064064315"><ele>30.0</ele><time>2026-04-16T10:31:22.891Z</time></trkpt><trkpt lat="53.34264714441515" lon="14.757673767886839"><ele>29.0</ele><time>2026-04-16T10:31:23.891Z</time></trkpt><trkpt lat="53.34275432456219" lon="14.757390767652433"><ele>29.0</ele><time>2026-04-16T10:31:24.891Z</time></trkpt><trkpt lat="53.34285528950874" lon="14.757107308605312"><ele>29.0</ele><time>2026-04-16T10:31:25.891Z</time></trkpt><trkpt lat="53.34294613533405" lon="14.756828353724122"><ele>29.0</ele><time>2026-04-16T10:31:26.891Z</time></trkpt><trkpt lat="53.34302675954365" lon="14.756557421151609"><ele>27.333333333333332</ele><time>2026-04-16T10:31:27.891Z</time></trkpt><trkpt lat="53.3430980632983" lon="14.75629601598065"><ele>25.666666666666664</ele><time>2026-04-16T10:31:28.891Z</time></trkpt><trkpt lat="53.343163930061245" lon="14.756037644744984"><ele>24.0</ele><time>2026-04-16T10:31:29.891Z</time></trkpt><trkpt lat="53.3432225622937" lon="14.755783572663672"><ele>24.0</ele><time>2026-04-16T10:31:30.891Z</time></trkpt><trkpt lat="53.343276595633334" lon="14.755521359483188"><ele>24.0</ele><time>2026-04-16T10:31:31.891Z</time></trkpt><trkpt lat="53.3433311868641" lon="14.75524957224736"><ele>24.0</ele><time>2026-04-16T10:31:32.891Z</time></trkpt><trkpt lat="53.343385782395075" lon="14.75497663822063"><ele>24.333333333333336</ele><time>2026-04-16T10:31:33.891Z</time></trkpt><trkpt lat="53.343440650190395" lon="14.754710962798951"><ele>24.666666666666668</ele><time>2026-04-16T10:31:34.891Z</time></trkpt><trkpt lat="53.34349692977201" lon="14.75445800305976"><ele>25.0</ele><time>2026-04-16T10:31:35.891Z</time></trkpt><trkpt lat="53.343546633750215" lon="14.754224216199908"><ele>25.25</ele><time>2026-04-16T10:31:36.891Z</time></trkpt><trkpt lat="53.34359523743653" lon="14.753983938798534"><ele>25.5</ele><time>2026-04-16T10:31:37.891Z</time></trkpt><trkpt lat="53.34364273388923" lon="14.753756961623317"><ele>25.75</ele><time>2026-04-16T10:31:38.891Z</time></trkpt><trkpt lat="53.34368843790103" lon="14.753525860601279"><ele>26.0</ele><time>2026-04-16T10:31:39.891Z</time></trkpt><trkpt lat="53.34373638227973" lon="14.753291802016005"><ele>26.0</ele><time>2026-04-16T10:31:40.891Z</time></trkpt><trkpt lat="53.343783353671235" lon="14.753077156960599"><ele>26.0</ele><time>2026-04-16T10:31:41.891Z</time></trkpt><trkpt lat="53.34382437422305" lon="14.752862047652076"><ele>26.0</ele><time>2026-04-16T10:31:42.891Z</time></trkpt><trkpt lat="53.34386753089404" lon="14.752651926233801"><ele>26.0</ele><time>2026-04-16T10:31:43.891Z</time></trkpt><trkpt lat="53.34391588919274" lon="14.752435624643944"><ele>25.75</ele><time>2026-04-16T10:31:44.891Z</time></trkpt><trkpt lat="53.34400058770231" lon="14.75224652474038"><ele>25.5</ele><time>2026-04-16T10:31:45.891Z</time></trkpt><trkpt lat="53.34406401807937" lon="14.75205891382282"><ele>25.25</ele><time>2026-04-16T10:31:46.891Z</time></trkpt><trkpt lat="53.34416585470842" lon="14.751934705258716"><ele>25.0</ele><time>2026-04-16T10:31:47.891Z</time></trkpt><trkpt lat="53.3442739230501" lon="14.751802789467972"><ele>25.0</ele><time>2026-04-16T10:31:48.891Z</time></trkpt><trkpt lat="53.344385205505745" lon="14.751678667958004"><ele>25.0</ele><time>2026-04-16T10:31:49.891Z</time></trkpt><trkpt lat="53.34450779457945" lon="14.751563550212932"><ele>25.0</ele><time>2026-04-16T10:31:50.891Z</time></trkpt><trkpt lat="53.34463211871422" lon="14.751462401708785"><ele>25.0</ele><time>2026-04-16T10:31:51.891Z</time></trkpt><trkpt lat="53.34474453500228" lon="14.751368875706698"><ele>25.0</ele><time>2026-04-16T10:31:52.891Z</time></trkpt><trkpt lat="53.34485283534173" lon="14.751264308308986"><ele>25.0</ele><time>2026-04-16T10:31:53.891Z</time></trkpt><trkpt lat="53.344965828328824" lon="14.751164068019357"><ele>25.0</ele><time>2026-04-16T10:31:54.891Z</time></trkpt><trkpt lat="53.345079744204455" lon="14.75106215162583"><ele>25.0</ele><time>2026-04-16T10:31:55.891Z</time></trkpt><trkpt lat="53.34519569725844" lon="14.750962334915103"><ele>24.75</ele><time>2026-04-16T10:31:56.891Z</time></trkpt><trkpt lat="53.345310165715134" lon="14.750863690544232"><ele>24.5</ele><time>2026-04-16T10:31:57.891Z</time></trkpt><trkpt lat="53.345419140106394" lon="14.750765204597489"><ele>24.25</ele><time>2026-04-16T10:31:58.891Z</time></trkpt><trkpt lat="53.34552242023724" lon="14.750679321784947"><ele>24.0</ele><time>2026-04-16T10:31:59.891Z</time></trkpt><trkpt lat="53.34562457150986" lon="14.750588656544325"><ele>24.0</ele><time>2026-04-16T10:32:00.891Z</time></trkpt><trkpt lat="53.34571907769944" lon="14.750499413558076"><ele>24.0</ele><time>2026-04-16T10:32:01.891Z</time></trkpt><trkpt lat="53.34581809156587" lon="14.750409319400996"><ele>24.0</ele><time>2026-04-16T10:32:02.891Z</time></trkpt><trkpt lat="53.34592206227628" lon="14.750321770023092"><ele>24.0</ele><time>2026-04-16T10:32:03.891Z</time></trkpt><trkpt lat="53.346027527835815" lon="14.750230106344448"><ele>24.2</ele><time>2026-04-16T10:32:04.891Z</time></trkpt><trkpt lat="53.34612106978206" lon="14.750150023924778"><ele>24.4</ele><time>2026-04-16T10:32:05.891Z</time></trkpt><trkpt lat="53.346206562357125" lon="14.750079693635014"><ele>24.6</ele><time>2026-04-16T10:32:06.891Z</time></trkpt><trkpt lat="53.34628630002805" lon="14.750014820042304"><ele>24.8</ele><time>2026-04-16T10:32:07.891Z</time></trkpt><trkpt lat="53.34635681673037" lon="14.749949600155835"><ele>25.0</ele><time>2026-04-16T10:32:08.891Z</time></trkpt><trkpt lat="53.34643315287695" lon="14.749882908248265"><ele>24.6</ele><time>2026-04-16T10:32:09.891Z</time></trkpt><trkpt lat="53.34653291459321" lon="14.749793575476788"><ele>24.2</ele><time>2026-04-16T10:32:10.891Z</time></trkpt><trkpt lat="53.34663599125471" lon="14.749706076509378"><ele>23.799999999999997</ele><time>2026-04-16T10:32:11.891Z</time></trkpt><trkpt lat="53.34672398802429" lon="14.749623818209571"><ele>23.4</ele><time>2026-04-16T10:32:12.891Z</time></trkpt><trkpt lat="53.34680601828209" lon="14.749554959671261"><ele>23.0</ele><time>2026-04-16T10:32:13.891Z</time></trkpt><trkpt lat="53.34688941257028" lon="14.749483807268625"><ele>23.0</ele><time>2026-04-16T10:32:14.891Z</time></trkpt><trkpt lat="53.34698485562985" lon="14.74940038544111"><ele>23.0</ele><time>2026-04-16T10:32:15.891Z</time></trkpt><trkpt lat="53.347086890324775" lon="14.749315763751827"><ele>23.0</ele><time>2026-04-16T10:32:16.891Z</time></trkpt><trkpt lat="53.34719286717119" lon="14.7492213121743"><ele>23.0</ele><time>2026-04-16T10:32:17.891Z</time></trkpt><trkpt lat="53.34729717731761" lon="14.749131213057188"><ele>23.0</ele><time>2026-04-16T10:32:18.891Z</time></trkpt><trkpt lat="53.347391661835715" lon="14.749046732675774"><ele>23.0</ele><time>2026-04-16T10:32:19.891Z</time></trkpt><trkpt lat="53.34748791627432" lon="14.748958582379787"><ele>23.0</ele><time>2026-04-16T10:32:20.891Z</time></trkpt><trkpt lat="53.34758103692481" lon="14.748875339391628"><ele>23.0</ele><time>2026-04-16T10:32:21.892Z</time></trkpt><trkpt lat="53.34767280406259" lon="14.748792585780278"><ele>23.0</ele><time>2026-04-16T10:32:22.892Z</time></trkpt><trkpt lat="53.34776227704283" lon="14.748713340674684"><ele>23.0</ele><time>2026-04-16T10:32:23.892Z</time></trkpt><trkpt lat="53.34785841052539" lon="14.748630911432587"><ele>23.0</ele><time>2026-04-16T10:32:24.892Z</time></trkpt><trkpt lat="53.34796468623951" lon="14.748544838260635"><ele>23.0</ele><time>2026-04-16T10:32:25.892Z</time></trkpt><trkpt lat="53.3480587139214" lon="14.748467335984797"><ele>23.0</ele><time>2026-04-16T10:32:26.892Z</time></trkpt><trkpt lat="53.34814698239093" lon="14.748388081436717"><ele>23.0</ele><time>2026-04-16T10:32:27.892Z</time></trkpt><trkpt lat="53.34823492351838" lon="14.748302792316366"><ele>23.0</ele><time>2026-04-16T10:32:28.892Z</time></trkpt><trkpt lat="53.34832639258014" lon="14.748228219172956"><ele>23.0</ele><time>2026-04-16T10:32:29.892Z</time></trkpt><trkpt lat="53.34842326739648" lon="14.748146341501938"><ele>23.0</ele><time>2026-04-16T10:32:30.892Z</time></trkpt><trkpt lat="53.34851805834665" lon="14.748066096081345"><ele>23.0</ele><time>2026-04-16T10:32:31.892Z</time></trkpt><trkpt lat="53.34861358217112" lon="14.747981900988005"><ele>23.0</ele><time>2026-04-16T10:32:32.892Z</time></trkpt><trkpt lat="53.34871586139705" lon="14.747888390651116"><ele>23.0</ele><time>2026-04-16T10:32:33.892Z</time></trkpt><trkpt lat="53.34881860476379" lon="14.747788506877146"><ele>23.0</ele><time>2026-04-16T10:32:34.892Z</time></trkpt><trkpt lat="53.34890503115998" lon="14.747695028181772"><ele>23.0</ele><time>2026-04-16T10:32:35.892Z</time></trkpt><trkpt lat="53.348982162474165" lon="14.74764781572265"><ele>23.0</ele><time>2026-04-16T10:32:36.892Z</time></trkpt><trkpt lat="53.349038729428294" lon="14.747598063497554"><ele>23.0</ele><time>2026-04-16T10:32:37.892Z</time></trkpt><trkpt lat="53.349019569196436" lon="14.747345210615872"><ele>23.0</ele><time>2026-04-16T10:32:38.892Z</time></trkpt><trkpt lat="53.349018591016126" lon="14.74716135281259"><ele>23.0</ele><time>2026-04-16T10:32:39.892Z</time></trkpt><trkpt lat="53.34902155619739" lon="14.746951618631982"><ele>23.0</ele><time>2026-04-16T10:32:40.892Z</time></trkpt><trkpt lat="53.3490372113827" lon="14.746759009599476"><ele>23.0</ele><time>2026-04-16T10:32:41.892Z</time></trkpt><trkpt lat="53.349067354378754" lon="14.746567968123198"><ele>22.75</ele><time>2026-04-16T10:32:42.892Z</time></trkpt><trkpt lat="53.349111801533425" lon="14.746383156677062"><ele>22.5</ele><time>2026-04-16T10:32:43.892Z</time></trkpt><trkpt lat="53.349170409685975" lon="14.746218814896734"><ele>22.25</ele><time>2026-04-16T10:32:44.892Z</time></trkpt><trkpt lat="53.34923809184249" lon="14.746068957514474"><ele>22.0</ele><time>2026-04-16T10:32:45.892Z</time></trkpt><trkpt lat="53.349311378664666" lon="14.745917963589108"><ele>22.0</ele><time>2026-04-16T10:32:46.892Z</time></trkpt><trkpt lat="53.34940082867529" lon="14.74576776543986"><ele>22.0</ele><time>2026-04-16T10:32:47.892Z</time></trkpt><trkpt lat="53.34950047355943" lon="14.745627965929724"><ele>22.0</ele><time>2026-04-16T10:32:48.892Z</time></trkpt><trkpt lat="53.349591807713544" lon="14.745500214554303"><ele>22.0</ele><time>2026-04-16T10:32:49.892Z</time></trkpt><trkpt lat="53.349673953277794" lon="14.745367198850282"><ele>22.0</ele><time>2026-04-16T10:32:50.892Z</time></trkpt><trkpt lat="53.34976864106016" lon="14.745229750552548"><ele>22.0</ele><time>2026-04-16T10:32:51.892Z</time></trkpt><trkpt lat="53.34986059116852" lon="14.7450935420367"><ele>22.0</ele><time>2026-04-16T10:32:52.892Z</time></trkpt><trkpt lat="53.349943995185185" lon="14.744974795565858"><ele>22.0</ele><time>2026-04-16T10:32:53.892Z</time></trkpt><trkpt lat="53.35001642031194" lon="14.744857594213075"><ele>22.25</ele><time>2026-04-16T10:32:54.892Z</time></trkpt><trkpt lat="53.350098649358124" lon="14.74474369581287"><ele>22.5</ele><time>2026-04-16T10:32:55.892Z</time></trkpt><trkpt lat="53.350182573879074" lon="14.74462275876715"><ele>22.75</ele><time>2026-04-16T10:32:56.892Z</time></trkpt><trkpt lat="53.35027305029085" lon="14.744489132012443"><ele>23.0</ele><time>2026-04-16T10:32:57.892Z</time></trkpt><trkpt lat="53.35036319515471" lon="14.744376624721411"><ele>23.0</ele><time>2026-04-16T10:32:58.892Z</time></trkpt><trkpt lat="53.35042551964133" lon="14.744285388950452"><ele>23.0</ele><time>2026-04-16T10:32:59.892Z</time></trkpt><trkpt lat="53.35049108585827" lon="14.74418008679005"><ele>23.0</ele><time>2026-04-16T10:33:01.892Z</time></trkpt><trkpt lat="53.35054985372547" lon="14.744097706326595"><ele>23.0</ele><time>2026-04-16T10:33:02.892Z</time></trkpt><trkpt lat="53.35063357738792" lon="14.743981349416945"><ele>23.0</ele><time>2026-04-16T10:33:03.892Z</time></trkpt><trkpt lat="53.35073098037013" lon="14.743841055578287"><ele>23.0</ele><time>2026-04-16T10:33:04.892Z</time></trkpt><trkpt lat="53.350845214570654" lon="14.743680639638336"><ele>23.0</ele><time>2026-04-16T10:33:05.892Z</time></trkpt><trkpt lat="53.350982096481225" lon="14.743515329872512"><ele>23.0</ele><time>2026-04-16T10:33:06.892Z</time></trkpt><trkpt lat="53.3511277296657" lon="14.743357339839966"><ele>23.0</ele><time>2026-04-16T10:33:07.892Z</time></trkpt><trkpt lat="53.351276434559345" lon="14.743190919934243"><ele>23.0</ele><time>2026-04-16T10:33:08.892Z</time></trkpt><trkpt lat="53.35141848821531" lon="14.743004286324284"><ele>23.0</ele><time>2026-04-16T10:33:09.892Z</time></trkpt><trkpt lat="53.35155361796903" lon="14.742830883647448"><ele>23.0</ele><time>2026-04-16T10:33:10.892Z</time></trkpt><trkpt lat="53.35171518413873" lon="14.74265763008536"><ele>23.0</ele><time>2026-04-16T10:33:11.892Z</time></trkpt><trkpt lat="53.35188015191162" lon="14.742467994825269"><ele>23.0</ele><time>2026-04-16T10:33:12.892Z</time></trkpt><trkpt lat="53.35202618288365" lon="14.742271767784583"><ele>23.0</ele><time>2026-04-16T10:33:13.892Z</time></trkpt><trkpt lat="53.35217013486903" lon="14.742117822306394"><ele>23.0</ele><time>2026-04-16T10:33:14.892Z</time></trkpt><trkpt lat="53.35229601207426" lon="14.741973631805555"><ele>23.0</ele><time>2026-04-16T10:33:15.892Z</time></trkpt><trkpt lat="53.352427427092" lon="14.741814330413831"><ele>23.666666666666668</ele><time>2026-04-16T10:33:16.892Z</time></trkpt><trkpt lat="53.3525715351951" lon="14.741663930454568"><ele>24.333333333333336</ele><time>2026-04-16T10:33:17.892Z</time></trkpt><trkpt lat="53.352695972292544" lon="14.741496773655864"><ele>25.0</ele><time>2026-04-16T10:33:18.892Z</time></trkpt><trkpt lat="53.352820807259185" lon="14.741315894369551"><ele>25.0</ele><time>2026-04-16T10:33:19.892Z</time></trkpt><trkpt lat="53.35296406346775" lon="14.741147491117436"><ele>25.0</ele><time>2026-04-16T10:33:20.892Z</time></trkpt><trkpt lat="53.35310509611158" lon="14.740991967541873"><ele>25.0</ele><time>2026-04-16T10:33:21.892Z</time></trkpt><trkpt lat="53.3532329972763" lon="14.740839699360356"><ele>24.75</ele><time>2026-04-16T10:33:22.892Z</time></trkpt><trkpt lat="53.35335672908311" lon="14.740697652703389"><ele>24.5</ele><time>2026-04-16T10:33:23.892Z</time></trkpt><trkpt lat="53.35347417518465" lon="14.740553044351707"><ele>24.25</ele><time>2026-04-16T10:33:24.892Z</time></trkpt><trkpt lat="53.35358699997068" lon="14.740405946881186"><ele>24.0</ele><time>2026-04-16T10:33:25.892Z</time></trkpt><trkpt lat="53.353699854182715" lon="14.74029527388505"><ele>24.25</ele><time>2026-04-16T10:33:26.892Z</time></trkpt><trkpt lat="53.353798891997265" lon="14.740177572152001"><ele>24.5</ele><time>2026-04-16T10:33:27.893Z</time></trkpt><trkpt lat="53.353896222472706" lon="14.740062080332633"><ele>24.75</ele><time>2026-04-16T10:33:28.89Z</time></trkpt><trkpt lat="53.35398876568254" lon="14.739951942316964"><ele>25.0</ele><time>2026-04-16T10:33:29.889Z</time></trkpt><trkpt lat="53.354071498926984" lon="14.739853616516063"><ele>25.0</ele><time>2026-04-16T10:33:30.889Z</time></trkpt><trkpt lat="53.35414987838192" lon="14.739759956080457"><ele>25.0</ele><time>2026-04-16T10:33:31.889Z</time></trkpt><trkpt lat="53.35423666200993" lon="14.739654454898652"><ele>25.0</ele><time>2026-04-16T10:33:32.889Z</time></trkpt><trkpt lat="53.3543409436086" lon="14.739526658844543"><ele>25.0</ele><time>2026-04-16T10:33:33.889Z</time></trkpt><trkpt lat="53.354463735037946" lon="14.73937083850613"><ele>26.0</ele><time>2026-04-16T10:33:34.889Z</time></trkpt><trkpt lat="53.354592428774055" lon="14.73919897142474"><ele>27.0</ele><time>2026-04-16T10:33:35.889Z</time></trkpt><trkpt lat="53.35472237692697" lon="14.739022873088693"><ele>28.0</ele><time>2026-04-16T10:33:36.889Z</time></trkpt><trkpt lat="53.35486188939184" lon="14.738834034073834"><ele>25.666666666666668</ele><time>2026-04-16T10:33:37.889Z</time></trkpt><trkpt lat="53.35499201845644" lon="14.738655886306598"><ele>23.333333333333336</ele><time>2026-04-16T10:33:38.889Z</time></trkpt><trkpt lat="53.35510950253469" lon="14.738495316027326"><ele>21.0</ele><time>2026-04-16T10:33:39.889Z</time></trkpt><trkpt lat="53.35521704704365" lon="14.73834752504643"><ele>21.0</ele><time>2026-04-16T10:33:40.889Z</time></trkpt><trkpt lat="53.355327951893294" lon="14.738197433268642"><ele>21.0</ele><time>2026-04-16T10:33:41.889Z</time></trkpt><trkpt lat="53.35542697485977" lon="14.738063421661929"><ele>21.0</ele><time>2026-04-16T10:33:42.889Z</time></trkpt><trkpt lat="53.355520342775684" lon="14.737936477311173"><ele>21.0</ele><time>2026-04-16T10:33:43.889Z</time></trkpt><trkpt lat="53.35561081671926" lon="14.737813776541396"><ele>20.2</ele><time>2026-04-16T10:33:44.889Z</time></trkpt><trkpt lat="53.35569659637481" lon="14.73769761151651"><ele>19.400000000000002</ele><time>2026-04-16T10:33:45.889Z</time></trkpt><trkpt lat="53.35577195878858" lon="14.73759559510936"><ele>18.6</ele><time>2026-04-16T10:33:46.889Z</time></trkpt><trkpt lat="53.355841806076214" lon="14.737501107278774"><ele>17.8</ele><time>2026-04-16T10:33:47.889Z</time></trkpt><trkpt lat="53.355907269121765" lon="14.737413450545814"><ele>17.0</ele><time>2026-04-16T10:33:48.889Z</time></trkpt><trkpt lat="53.35596685703654" lon="14.73733218052941"><ele>17.0</ele><time>2026-04-16T10:33:49.889Z</time></trkpt><trkpt lat="53.35606408684133" lon="14.737210796137273"><ele>17.0</ele><time>2026-04-16T10:33:51.889Z</time></trkpt><trkpt lat="53.35612897047417" lon="14.737180060034417"><ele>17.0</ele><time>2026-04-16T10:33:52.889Z</time></trkpt><trkpt lat="53.356170007304605" lon="14.73705128539014"><ele>17.0</ele><time>2026-04-16T10:33:54.889Z</time></trkpt><trkpt lat="53.35612886797562" lon="14.73697091808943"><ele>17.0</ele><time>2026-04-16T10:33:55.889Z</time></trkpt><trkpt lat="53.35606475786788" lon="14.736883523683543"><ele>17.0</ele><time>2026-04-16T10:33:56.889Z</time></trkpt><trkpt lat="53.35599037722957" lon="14.736777330673231"><ele>16.75</ele><time>2026-04-16T10:33:57.889Z</time></trkpt><trkpt lat="53.355922285229965" lon="14.736626216996767"><ele>16.5</ele><time>2026-04-16T10:33:58.889Z</time></trkpt><trkpt lat="53.35587881200538" lon="14.736459464967943"><ele>16.25</ele><time>2026-04-16T10:33:59.889Z</time></trkpt><trkpt lat="53.355804494492986" lon="14.736294843437674"><ele>16.0</ele><time>2026-04-16T10:34:00.889Z</time></trkpt><trkpt lat="53.355731336406826" lon="14.736130450638292"><ele>15.75</ele><time>2026-04-16T10:34:01.889Z</time></trkpt><trkpt lat="53.35566096143228" lon="14.7359703078323"><ele>15.5</ele><time>2026-04-16T10:34:02.889Z</time></trkpt><trkpt lat="53.35558448174282" lon="14.73579627328449"><ele>15.25</ele><time>2026-04-16T10:34:03.889Z</time></trkpt><trkpt lat="53.35550888432623" lon="14.735626373203552"><ele>15.0</ele><time>2026-04-16T10:34:04.889Z</time></trkpt><trkpt lat="53.35543158679797" lon="14.73545457118244"><ele>15.75</ele><time>2026-04-16T10:34:05.889Z</time></trkpt><trkpt lat="53.355345451642435" lon="14.735267916650422"><ele>16.5</ele><time>2026-04-16T10:34:06.889Z</time></trkpt><trkpt lat="53.35526052503563" lon="14.735061092606587"><ele>17.25</ele><time>2026-04-16T10:34:07.889Z</time></trkpt><trkpt lat="53.355163138075035" lon="14.734870991631682"><ele>18.0</ele><time>2026-04-16T10:34:08.889Z</time></trkpt><trkpt lat="53.35508539633607" lon="14.734703860803988"><ele>18.0</ele><time>2026-04-16T10:34:09.89Z</time></trkpt><trkpt lat="53.35502247473769" lon="14.734541670825248"><ele>18.0</ele><time>2026-04-16T10:34:10.89Z</time></trkpt><trkpt lat="53.354958165730174" lon="14.734391215199725"><ele>18.0</ele><time>2026-04-16T10:34:11.89Z</time></trkpt><trkpt lat="53.354903857110614" lon="14.73422929028989"><ele>18.0</ele><time>2026-04-16T10:34:12.89Z</time></trkpt><trkpt lat="53.354853438526725" lon="14.734036627672783"><ele>18.0</ele><time>2026-04-16T10:34:13.89Z</time></trkpt><trkpt lat="53.35481957527515" lon="14.733836785692436"><ele>18.0</ele><time>2026-04-16T10:34:14.89Z</time></trkpt><trkpt lat="53.35480717183708" lon="14.73362193686672"><ele>18.0</ele><time>2026-04-16T10:34:15.89Z</time></trkpt><trkpt lat="53.35479100097771" lon="14.73343038771357"><ele>18.0</ele><time>2026-04-16T10:34:16.89Z</time></trkpt><trkpt lat="53.354766090957995" lon="14.73326315761058"><ele>18.0</ele><time>2026-04-16T10:34:17.89Z</time></trkpt><trkpt lat="53.35474601637012" lon="14.733128348297306"><ele>18.0</ele><time>2026-04-16T10:34:18.89Z</time></trkpt><trkpt lat="53.35475234234279" lon="14.733010439463959"><ele>18.0</ele><time>2026-04-16T10:34:19.89Z</time></trkpt><trkpt lat="53.35473988702613" lon="14.732880382556914"><ele>18.0</ele><time>2026-04-16T10:34:20.89Z</time></trkpt><trkpt lat="53.3546992662011" lon="14.732699137051094"><ele>18.0</ele><time>2026-04-16T10:34:22.89Z</time></trkpt><trkpt lat="53.354775507762895" lon="14.732580644483832"><ele>17.8</ele><time>2026-04-16T10:34:24.89Z</time></trkpt><trkpt lat="53.354879094378376" lon="14.732452013245394"><ele>17.6</ele><time>2026-04-16T10:34:26.89Z</time></trkpt><trkpt lat="53.35494812828389" lon="14.73241640510875"><ele>17.4</ele><time>2026-04-16T10:34:27.89Z</time></trkpt><trkpt lat="53.35501235062527" lon="14.732391337910677"><ele>17.2</ele><time>2026-04-16T10:34:28.89Z</time></trkpt><trkpt lat="53.355100734586316" lon="14.732376567938047"><ele>17.0</ele><time>2026-04-16T10:34:29.89Z</time></trkpt><trkpt lat="53.35521068444031" lon="14.732299854449046"><ele>17.0</ele><time>2026-04-16T10:34:30.89Z</time></trkpt><trkpt lat="53.35526652316117" lon="14.732225796537499"><ele>17.0</ele><time>2026-04-16T10:34:31.89Z</time></trkpt><trkpt lat="53.35533109981883" lon="14.732101070900331"><ele>17.0</ele><time>2026-04-16T10:34:32.89Z</time></trkpt><trkpt lat="53.35538263337692" lon="14.731909532885133"><ele>17.0</ele><time>2026-04-16T10:34:33.89Z</time></trkpt><trkpt lat="53.355407109276996" lon="14.731789942455498"><ele>17.0</ele><time>2026-04-16T10:34:34.89Z</time></trkpt><trkpt lat="53.355438774960916" lon="14.731616286053148"><ele>16.8</ele><time>2026-04-16T10:34:36.89Z</time></trkpt><trkpt lat="53.355459430092736" lon="14.731492750764378"><ele>16.6</ele><time>2026-04-16T10:34:37.89Z</time></trkpt><trkpt lat="53.35547798678125" lon="14.731388092379113"><ele>16.400000000000002</ele><time>2026-04-16T10:34:39.89Z</time></trkpt><trkpt lat="53.355289452988245" lon="14.731290687823703"><ele>16.2</ele><time>2026-04-16T10:37:49.888Z</time></trkpt><trkpt lat="53.35531521826332" lon="14.731187463765313"><ele>16.0</ele><time>2026-04-16T10:52:16.915Z</time></trkpt><trkpt lat="53.35536365272359" lon="14.731049523845597"><ele>16.0</ele><time>2026-04-16T10:52:18.915Z</time></trkpt><trkpt lat="53.35531123740393" lon="14.73112767166801"><ele>16.0</ele><time>2026-04-16T10:52:23.911Z</time></trkpt><trkpt lat="53.355294060754574" lon="14.731329429806758"><ele>16.0</ele><time>2026-04-16T10:52:25.911Z</time></trkpt><trkpt lat="53.35527912403651" lon="14.731477900023556"><ele>16.0</ele><time>2026-04-16T10:52:26.911Z</time></trkpt><trkpt lat="53.35526522347172" lon="14.731593899372882"><ele>16.0</ele><time>2026-04-16T10:52:27.911Z</time></trkpt><trkpt lat="53.35520366867237" lon="14.731757086192157"><ele>16.0</ele><time>2026-04-16T10:52:29.912Z</time></trkpt><trkpt lat="53.35516611603865" lon="14.731853767256194"><ele>16.0</ele><time>2026-04-16T10:52:30.912Z</time></trkpt><trkpt lat="53.35509333501527" lon="14.732005945539536"><ele>16.0</ele><time>2026-04-16T10:52:32.911Z</time></trkpt><trkpt lat="53.355015726199035" lon="14.732134941671172"><ele>16.0</ele><time>2026-04-16T10:52:34.911Z</time></trkpt><trkpt lat="53.3549755378267" lon="14.732234299913156"><ele>16.0</ele><time>2026-04-16T10:52:36.911Z</time></trkpt><trkpt lat="53.35491317431166" lon="14.732353535835163"><ele>16.166666666666664</ele><time>2026-04-16T10:52:38.912Z</time></trkpt><trkpt lat="53.354825622643304" lon="14.73246365912695"><ele>16.333333333333332</ele><time>2026-04-16T10:52:40.912Z</time></trkpt><trkpt lat="53.3547652973123" lon="14.732535573600599"><ele>16.5</ele><time>2026-04-16T10:52:41.912Z</time></trkpt><trkpt lat="53.35469789179281" lon="14.73260536005034"><ele>16.666666666666668</ele><time>2026-04-16T10:52:43.912Z</time></trkpt><trkpt lat="53.35462993210832" lon="14.732578459442363"><ele>16.833333333333336</ele><time>2026-04-16T10:52:45.912Z</time></trkpt><trkpt lat="53.354570055809184" lon="14.732506958995865"><ele>17.0</ele><time>2026-04-16T10:52:46.912Z</time></trkpt><trkpt lat="53.35449219595465" lon="14.732428797697997"><ele>17.5</ele><time>2026-04-16T10:52:47.912Z</time></trkpt><trkpt lat="53.354403632521034" lon="14.732371270668358"><ele>18.0</ele><time>2026-04-16T10:52:48.912Z</time></trkpt><trkpt lat="53.35426775520184" lon="14.73232565576371"><ele>18.5</ele><time>2026-04-16T10:52:49.912Z</time></trkpt><trkpt lat="53.35414105920228" lon="14.73228001002558"><ele>19.0</ele><time>2026-04-16T10:52:50.912Z</time></trkpt><trkpt lat="53.35400969055383" lon="14.732244522542853"><ele>19.75</ele><time>2026-04-16T10:52:51.912Z</time></trkpt><trkpt lat="53.353863790123036" lon="14.732204506068662"><ele>20.5</ele><time>2026-04-16T10:52:52.912Z</time></trkpt><trkpt lat="53.353719341868526" lon="14.73217994152913"><ele>21.25</ele><time>2026-04-16T10:52:53.912Z</time></trkpt><trkpt lat="53.35361002937851" lon="14.732159979258949"><ele>22.0</ele><time>2026-04-16T10:52:54.912Z</time></trkpt><trkpt lat="53.35350514230989" lon="14.732132222138295"><ele>22.0</ele><time>2026-04-16T10:52:55.912Z</time></trkpt><trkpt lat="53.353410200678866" lon="14.732113174217329"><ele>22.0</ele><time>2026-04-16T10:52:56.912Z</time></trkpt><trkpt lat="53.35333587617565" lon="14.732094243657542"><ele>22.0</ele><time>2026-04-16T10:52:57.912Z</time></trkpt><trkpt lat="53.353247001975035" lon="14.731977686955254"><ele>22.0</ele><time>2026-04-16T10:52:59.912Z</time></trkpt><trkpt lat="53.35323233588309" lon="14.731869788011654"><ele>22.0</ele><time>2026-04-16T10:53:00.912Z</time></trkpt><trkpt lat="53.3532450153772" lon="14.73172229252006"><ele>22.0</ele><time>2026-04-16T10:53:01.912Z</time></trkpt><trkpt lat="53.35325074290582" lon="14.731569948251153"><ele>21.5</ele><time>2026-04-16T10:53:02.912Z</time></trkpt><trkpt lat="53.35327508516124" lon="14.731398269358845"><ele>21.0</ele><time>2026-04-16T10:53:03.912Z</time></trkpt><trkpt lat="53.35329163467783" lon="14.731196056528177"><ele>20.5</ele><time>2026-04-16T10:53:04.912Z</time></trkpt><trkpt lat="53.35331547892606" lon="14.730996872627072"><ele>20.0</ele><time>2026-04-16T10:53:05.912Z</time></trkpt><trkpt lat="53.35333366515115" lon="14.730783939095856"><ele>20.0</ele><time>2026-04-16T10:53:06.912Z</time></trkpt><trkpt lat="53.353357959294975" lon="14.730566367056865"><ele>20.0</ele><time>2026-04-16T10:53:07.912Z</time></trkpt><trkpt lat="53.353367609760376" lon="14.730377903810501"><ele>20.0</ele><time>2026-04-16T10:53:08.912Z</time></trkpt><trkpt lat="53.35338328572306" lon="14.730155410725446"><ele>20.0</ele><time>2026-04-16T10:53:09.912Z</time></trkpt><trkpt lat="53.353385763637355" lon="14.729923357300075"><ele>20.5</ele><time>2026-04-16T10:53:10.912Z</time></trkpt><trkpt lat="53.353381544913766" lon="14.729693282205542"><ele>21.0</ele><time>2026-04-16T10:53:11.912Z</time></trkpt><trkpt lat="53.353383255821306" lon="14.729445092415373"><ele>21.5</ele><time>2026-04-16T10:53:12.912Z</time></trkpt><trkpt lat="53.35340291979496" lon="14.729235118271458"><ele>22.0</ele><time>2026-04-16T10:53:13.912Z</time></trkpt><trkpt lat="53.35341905235001" lon="14.72903762659764"><ele>22.0</ele><time>2026-04-16T10:53:14.912Z</time></trkpt><trkpt lat="53.353457385493364" lon="14.728842396191467"><ele>22.0</ele><time>2026-04-16T10:53:15.912Z</time></trkpt><trkpt lat="53.35345957722048" lon="14.728603545259405"><ele>22.0</ele><time>2026-04-16T10:53:16.912Z</time></trkpt><trkpt lat="53.35343433032868" lon="14.728387219186585"><ele>22.0</ele><time>2026-04-16T10:53:17.912Z</time></trkpt><trkpt lat="53.35342780034786" lon="14.728140291913226"><ele>22.25</ele><time>2026-04-16T10:53:18.912Z</time></trkpt><trkpt lat="53.353417218696386" lon="14.727897576762194"><ele>22.5</ele><time>2026-04-16T10:53:19.912Z</time></trkpt><trkpt lat="53.35341029804851" lon="14.727684942217858"><ele>22.75</ele><time>2026-04-16T10:53:20.912Z</time></trkpt><trkpt lat="53.35340910653925" lon="14.727505160327736"><ele>23.0</ele><time>2026-04-16T10:53:21.912Z</time></trkpt><trkpt lat="53.3534040721434" lon="14.727342646526893"><ele>23.2</ele><time>2026-04-16T10:53:22.912Z</time></trkpt><trkpt lat="53.353411477560414" lon="14.727183754023859"><ele>23.4</ele><time>2026-04-16T10:53:23.912Z</time></trkpt><trkpt lat="53.35340302047873" lon="14.727045499874457"><ele>23.599999999999998</ele><time>2026-04-16T10:53:24.913Z</time></trkpt><trkpt lat="53.35340185188835" lon="14.726910789863528"><ele>23.799999999999997</ele><time>2026-04-16T10:53:25.913Z</time></trkpt><trkpt lat="53.353404671620964" lon="14.72675363104763"><ele>24.0</ele><time>2026-04-16T10:53:26.913Z</time></trkpt><trkpt lat="53.35338891611458" lon="14.72657539895745"><ele>24.166666666666668</ele><time>2026-04-16T10:53:27.913Z</time></trkpt><trkpt lat="53.35338148146476" lon="14.726431702496622"><ele>24.333333333333336</ele><time>2026-04-16T10:53:28.913Z</time></trkpt><trkpt lat="53.35337672607163" lon="14.726323120546779"><ele>24.5</ele><time>2026-04-16T10:53:29.913Z</time></trkpt><trkpt lat="53.35338039683086" lon="14.726181143099227"><ele>24.666666666666668</ele><time>2026-04-16T10:53:31.913Z</time></trkpt><trkpt lat="53.35339326772003" lon="14.72600224445214"><ele>24.833333333333336</ele><time>2026-04-16T10:53:33.913Z</time></trkpt><trkpt lat="53.35339465341651" lon="14.725856074181026"><ele>25.0</ele><time>2026-04-16T10:53:34.913Z</time></trkpt><trkpt lat="53.35340081206116" lon="14.725682702067301"><ele>24.5</ele><time>2026-04-16T10:53:35.913Z</time></trkpt><trkpt lat="53.353398224957765" lon="14.725493365238224"><ele>24.0</ele><time>2026-04-16T10:53:36.913Z</time></trkpt><trkpt lat="53.35339855837109" lon="14.725288598882544"><ele>23.5</ele><time>2026-04-16T10:53:37.913Z</time></trkpt><trkpt lat="53.35338958232382" lon="14.725083410287697"><ele>23.0</ele><time>2026-04-16T10:53:38.913Z</time></trkpt><trkpt lat="53.353379644338276" lon="14.724845619567313"><ele>22.75</ele><time>2026-04-16T10:53:39.913Z</time></trkpt><trkpt lat="53.35337906046031" lon="14.724616055259144"><ele>22.5</ele><time>2026-04-16T10:53:40.913Z</time></trkpt><trkpt lat="53.353378541514964" lon="14.724363076632743"><ele>22.25</ele><time>2026-04-16T10:53:41.913Z</time></trkpt><trkpt lat="53.35336968536323" lon="14.724105653957755"><ele>22.0</ele><time>2026-04-16T10:53:42.913Z</time></trkpt><trkpt lat="53.35335735600859" lon="14.723840645806874"><ele>22.0</ele><time>2026-04-16T10:53:43.913Z</time></trkpt><trkpt lat="53.35333894617087" lon="14.723583294782031"><ele>22.0</ele><time>2026-04-16T10:53:44.913Z</time></trkpt><trkpt lat="53.353320853724455" lon="14.723336819004674"><ele>22.0</ele><time>2026-04-16T10:53:45.913Z</time></trkpt><trkpt lat="53.353303573490045" lon="14.723117333807874"><ele>22.0</ele><time>2026-04-16T10:53:46.913Z</time></trkpt><trkpt lat="53.35328611526332" lon="14.722902269654961"><ele>22.6</ele><time>2026-04-16T10:53:47.913Z</time></trkpt><trkpt lat="53.35327045580852" lon="14.722708282376322"><ele>23.200000000000003</ele><time>2026-04-16T10:53:48.913Z</time></trkpt><trkpt lat="53.353277288130286" lon="14.722535582988506"><ele>23.8</ele><time>2026-04-16T10:53:49.913Z</time></trkpt><trkpt lat="53.35326854265998" lon="14.72237380298397"><ele>24.4</ele><time>2026-04-16T10:53:50.913Z</time></trkpt><trkpt lat="53.35325993901188" lon="14.722214647364908"><ele>25.0</ele><time>2026-04-16T10:53:51.913Z</time></trkpt><trkpt lat="53.35324314687274" lon="14.722070067036196"><ele>25.000000000000004</ele><time>2026-04-16T10:53:52.913Z</time></trkpt><trkpt lat="53.3532355388642" lon="14.721931069963961"><ele>25.0</ele><time>2026-04-16T10:53:53.913Z</time></trkpt><trkpt lat="53.353218950438105" lon="14.721770953540524"><ele>25.0</ele><time>2026-04-16T10:53:54.913Z</time></trkpt><trkpt lat="53.353221475097484" lon="14.721635447559786"><ele>25.0</ele><time>2026-04-16T10:53:55.913Z</time></trkpt><trkpt lat="53.35321147589936" lon="14.721519604713338"><ele>25.000000000000004</ele><time>2026-04-16T10:53:56.913Z</time></trkpt><trkpt lat="53.353197100597285" lon="14.721357938430556"><ele>25.0</ele><time>2026-04-16T10:53:57.913Z</time></trkpt><trkpt lat="53.35318265451498" lon="14.721198795015084"><ele>24.6</ele><time>2026-04-16T10:53:58.913Z</time></trkpt><trkpt lat="53.35317074251752" lon="14.72106780653054"><ele>24.2</ele><time>2026-04-16T10:53:59.913Z</time></trkpt><trkpt lat="53.35315027389434" lon="14.720927877398099"><ele>23.799999999999997</ele><time>2026-04-16T10:54:00.913Z</time></trkpt><trkpt lat="53.35313768260747" lon="14.720716689899177"><ele>23.4</ele><time>2026-04-16T10:54:01.913Z</time></trkpt><trkpt lat="53.35312430282112" lon="14.7205577046718"><ele>23.0</ele><time>2026-04-16T10:54:02.913Z</time></trkpt><trkpt lat="53.35310784180207" lon="14.720371152645845"><ele>22.799999999999997</ele><time>2026-04-16T10:54:03.913Z</time></trkpt><trkpt lat="53.35307508186821" lon="14.720208029688253"><ele>22.6</ele><time>2026-04-16T10:54:04.913Z</time></trkpt><trkpt lat="53.35304198657803" lon="14.720010626085324"><ele>22.4</ele><time>2026-04-16T10:54:05.913Z</time></trkpt><trkpt lat="53.35302654950192" lon="14.71989777356148"><ele>22.200000000000003</ele><time>2026-04-16T10:54:06.913Z</time></trkpt><trkpt lat="53.35301812758861" lon="14.719762453338365"><ele>22.0</ele><time>2026-04-16T10:54:07.913Z</time></trkpt><trkpt lat="53.35298769935288" lon="14.719586590114526"><ele>22.666666666666664</ele><time>2026-04-16T10:54:08.913Z</time></trkpt><trkpt lat="53.35296760342495" lon="14.719412869708021"><ele>23.333333333333332</ele><time>2026-04-16T10:54:09.913Z</time></trkpt><trkpt lat="53.352955776894625" lon="14.719269687684866"><ele>24.0</ele><time>2026-04-16T10:54:10.913Z</time></trkpt><trkpt lat="53.35293562462757" lon="14.71910222569162"><ele>24.666666666666664</ele><time>2026-04-16T10:54:11.914Z</time></trkpt><trkpt lat="53.35292810647191" lon="14.718973075219614"><ele>25.333333333333332</ele><time>2026-04-16T10:54:12.914Z</time></trkpt><trkpt lat="53.35291962730663" lon="14.718859521841734"><ele>26.0</ele><time>2026-04-16T10:54:13.914Z</time></trkpt><trkpt lat="53.35289887344579" lon="14.71861758047369"><ele>26.200000000000003</ele><time>2026-04-16T10:54:15.914Z</time></trkpt><trkpt lat="53.35286774706634" lon="14.718496814598806"><ele>26.400000000000002</ele><time>2026-04-16T10:54:16.914Z</time></trkpt><trkpt lat="53.35285336899437" lon="14.718360823301625"><ele>26.6</ele><time>2026-04-16T10:54:17.914Z</time></trkpt><trkpt lat="53.35282390591004" lon="14.718194133768305"><ele>26.8</ele><time>2026-04-16T10:54:18.914Z</time></trkpt><trkpt lat="53.35280703377966" lon="14.718013531221812"><ele>27.0</ele><time>2026-04-16T10:54:19.914Z</time></trkpt><trkpt lat="53.352801058147335" lon="14.717818727030481"><ele>27.25</ele><time>2026-04-16T10:54:20.914Z</time></trkpt><trkpt lat="53.35279628204062" lon="14.717616520448708"><ele>27.5</ele><time>2026-04-16T10:54:21.914Z</time></trkpt><trkpt lat="53.352779945679906" lon="14.717422479222819"><ele>27.75</ele><time>2026-04-16T10:54:22.914Z</time></trkpt><trkpt lat="53.352750843366415" lon="14.717215229224882"><ele>28.0</ele><time>2026-04-16T10:54:23.914Z</time></trkpt><trkpt lat="53.35273588695909" lon="14.717007294556021"><ele>28.2</ele><time>2026-04-16T10:54:24.914Z</time></trkpt><trkpt lat="53.35272576460898" lon="14.716839778300423"><ele>28.4</ele><time>2026-04-16T10:54:25.914Z</time></trkpt><trkpt lat="53.35272030046033" lon="14.71667808587419"><ele>28.599999999999998</ele><time>2026-04-16T10:54:26.914Z</time></trkpt><trkpt lat="53.35272564146633" lon="14.716536136852465"><ele>28.799999999999997</ele><time>2026-04-16T10:54:27.914Z</time></trkpt><trkpt lat="53.352736197755796" lon="14.716348021551365"><ele>29.0</ele><time>2026-04-16T10:54:28.91Z</time></trkpt><trkpt lat="53.35275150322292" lon="14.716156670805509"><ele>29.2</ele><time>2026-04-16T10:54:29.909Z</time></trkpt><trkpt lat="53.35276554231781" lon="14.71598800030896"><ele>29.4</ele><time>2026-04-16T10:54:30.909Z</time></trkpt><trkpt lat="53.352775975270035" lon="14.715864109062183"><ele>29.6</ele><time>2026-04-16T10:54:31.91Z</time></trkpt><trkpt lat="53.3527841314934" lon="14.715738984684366"><ele>29.8</ele><time>2026-04-16T10:54:32.91Z</time></trkpt><trkpt lat="53.35281227459396" lon="14.71552971415044"><ele>30.0</ele><time>2026-04-16T10:54:34.909Z</time></trkpt><trkpt lat="53.35283332627541" lon="14.715394720584976"><ele>30.0</ele><time>2026-04-16T10:54:35.909Z</time></trkpt><trkpt lat="53.35283902409569" lon="14.715273462984"><ele>30.0</ele><time>2026-04-16T10:54:36.909Z</time></trkpt><trkpt lat="53.35284849784144" lon="14.715111429270202"><ele>30.0</ele><time>2026-04-16T10:54:37.909Z</time></trkpt><trkpt lat="53.352852305281964" lon="14.714938090811758"><ele>30.0</ele><time>2026-04-16T10:54:38.909Z</time></trkpt><trkpt lat="53.35286359467789" lon="14.714780738177387"><ele>30.0</ele><time>2026-04-16T10:54:39.909Z</time></trkpt><trkpt lat="53.35287401020892" lon="14.714651822634554"><ele>30.0</ele><time>2026-04-16T10:54:40.909Z</time></trkpt><trkpt lat="53.35289418729191" lon="14.714509167818678"><ele>30.0</ele><time>2026-04-16T10:54:42.909Z</time></trkpt><trkpt lat="53.352907905573055" lon="14.714343466415638"><ele>30.0</ele><time>2026-04-16T10:55:42.91Z</time></trkpt><trkpt lat="53.352961032257866" lon="14.71416998641064"><ele>30.0</ele><time>2026-04-16T10:55:44.91Z</time></trkpt><trkpt lat="53.352998164428236" lon="14.714064309725346"><ele>30.0</ele><time>2026-04-16T10:55:45.91Z</time></trkpt><trkpt lat="53.35303598308596" lon="14.713956679889773"><ele>30.0</ele><time>2026-04-16T10:55:46.91Z</time></trkpt><trkpt lat="53.352992758151856" lon="14.713754278202359"><ele>30.0</ele><time>2026-04-16T10:55:47.91Z</time></trkpt><trkpt lat="53.35300736107643" lon="14.713597449427818"><ele>30.0</ele><time>2026-04-16T10:55:48.91Z</time></trkpt><trkpt lat="53.353028521184676" lon="14.713383620277089"><ele>30.0</ele><time>2026-04-16T10:55:50.91Z</time></trkpt><trkpt lat="53.35304928447854" lon="14.713267535097291"><ele>30.0</ele><time>2026-04-16T10:55:51.91Z</time></trkpt><trkpt lat="53.35307463833002" lon="14.713133628339502"><ele>30.0</ele><time>2026-04-16T10:55:52.91Z</time></trkpt><trkpt lat="53.35310023770483" lon="14.712985241803805"><ele>30.666666666666668</ele><time>2026-04-16T10:55:53.91Z</time></trkpt><trkpt lat="53.35310842837153" lon="14.71284486940578"><ele>31.333333333333336</ele><time>2026-04-16T10:55:54.91Z</time></trkpt><trkpt lat="53.35313184063625" lon="14.712718208356952"><ele>32.0</ele><time>2026-04-16T10:55:55.91Z</time></trkpt><trkpt lat="53.353155297306145" lon="14.712594379176664"><ele>32.66666666666667</ele><time>2026-04-16T10:55:56.91Z</time></trkpt><trkpt lat="53.35317877721069" lon="14.71246100667141"><ele>33.333333333333336</ele><time>2026-04-16T10:55:57.91Z</time></trkpt><trkpt lat="53.353208864976025" lon="14.712317661061693"><ele>34.0</ele><time>2026-04-16T10:55:58.91Z</time></trkpt><trkpt lat="53.35324919388038" lon="14.712182106761716"><ele>34.4</ele><time>2026-04-16T10:55:59.911Z</time></trkpt><trkpt lat="53.35327790776183" lon="14.712026254407576"><ele>34.8</ele><time>2026-04-16T10:56:00.911Z</time></trkpt><trkpt lat="53.353308702650445" lon="14.711853098251106"><ele>35.2</ele><time>2026-04-16T10:56:01.911Z</time></trkpt><trkpt lat="53.35333424452938" lon="14.711745832118906"><ele>35.6</ele><time>2026-04-16T10:56:02.911Z</time></trkpt><trkpt lat="53.35335898823197" lon="14.711644832739761"><ele>36.0</ele><time>2026-04-16T10:56:03.911Z</time></trkpt><trkpt lat="53.35334636929574" lon="14.71140905462893"><ele>37.2</ele><time>2026-04-16T10:56:05.911Z</time></trkpt><trkpt lat="53.35332073687145" lon="14.711229394248525"><ele>38.400000000000006</ele><time>2026-04-16T10:56:06.911Z</time></trkpt><trkpt lat="53.353295023849846" lon="14.711052616826002"><ele>39.6</ele><time>2026-04-16T10:56:07.911Z</time></trkpt><trkpt lat="53.35326514115748" lon="14.710881081151873"><ele>40.800000000000004</ele><time>2026-04-16T10:56:08.911Z</time></trkpt><trkpt lat="53.35322951729077" lon="14.710753043132069"><ele>42.0</ele><time>2026-04-16T10:56:09.911Z</time></trkpt><trkpt lat="53.35318418983501" lon="14.710631896949698"><ele>43.0</ele><time>2026-04-16T10:56:10.911Z</time></trkpt><trkpt lat="53.35312432128411" lon="14.71051200865029"><ele>44.0</ele><time>2026-04-16T10:56:11.911Z</time></trkpt><trkpt lat="53.35304815692673" lon="14.710377082372867"><ele>45.0</ele><time>2026-04-16T10:56:12.911Z</time></trkpt><trkpt lat="53.35298301479208" lon="14.71023059115595"><ele>46.0</ele><time>2026-04-16T10:56:13.911Z</time></trkpt><trkpt lat="53.35291916549514" lon="14.710081159649002"><ele>47.0</ele><time>2026-04-16T10:56:14.911Z</time></trkpt><trkpt lat="53.352850033771844" lon="14.709928383498793"><ele>48.2</ele><time>2026-04-16T10:56:15.911Z</time></trkpt><trkpt lat="53.352790302866836" lon="14.70975652138803"><ele>49.400000000000006</ele><time>2026-04-16T10:56:16.911Z</time></trkpt><trkpt lat="53.352731836826734" lon="14.709594530664145"><ele>50.599999999999994</ele><time>2026-04-16T10:56:17.911Z</time></trkpt><trkpt lat="53.35268436944106" lon="14.709467924219117"><ele>51.8</ele><time>2026-04-16T10:56:18.911Z</time></trkpt><trkpt lat="53.35264859827394" lon="14.709339182644706"><ele>53.0</ele><time>2026-04-16T10:56:19.911Z</time></trkpt><trkpt lat="53.35261240879215" lon="14.70920256837622"><ele>53.599999999999994</ele><time>2026-04-16T10:56:20.911Z</time></trkpt><trkpt lat="53.35256078265527" lon="14.70906909178121"><ele>54.199999999999996</ele><time>2026-04-16T10:56:21.911Z</time></trkpt><trkpt lat="53.352506400231064" lon="14.708921566674478"><ele>54.8</ele><time>2026-04-16T10:56:22.911Z</time></trkpt><trkpt lat="53.3524337311941" lon="14.70880049519062"><ele>55.4</ele><time>2026-04-16T10:56:23.911Z</time></trkpt><trkpt lat="53.35238564666036" lon="14.708687593798555"><ele>56.0</ele><time>2026-04-16T10:56:24.911Z</time></trkpt><trkpt lat="53.35233512948532" lon="14.708587110324043"><ele>56.16666666666667</ele><time>2026-04-16T10:56:25.911Z</time></trkpt><trkpt lat="53.35227957314855" lon="14.70848036350208"><ele>56.333333333333336</ele><time>2026-04-16T10:56:26.911Z</time></trkpt><trkpt lat="53.35221835169502" lon="14.708385602748065"><ele>56.5</ele><time>2026-04-16T10:56:27.911Z</time></trkpt><trkpt lat="53.352149204400945" lon="14.708281602457415"><ele>56.66666666666667</ele><time>2026-04-16T10:56:28.911Z</time></trkpt><trkpt lat="53.35208173214236" lon="14.708188534394678"><ele>56.833333333333336</ele><time>2026-04-16T10:56:29.911Z</time></trkpt><trkpt lat="53.352015492517495" lon="14.708090867543367"><ele>57.0</ele><time>2026-04-16T10:56:30.911Z</time></trkpt><trkpt lat="53.35195657852848" lon="14.708027112862004"><ele>57.0</ele><time>2026-04-16T10:56:31.911Z</time></trkpt><trkpt lat="53.35187785527682" lon="14.707950337248974"><ele>57.0</ele><time>2026-04-16T10:56:32.911Z</time></trkpt><trkpt lat="53.351774559445865" lon="14.70786806928207"><ele>57.0</ele><time>2026-04-16T10:56:33.911Z</time></trkpt><trkpt lat="53.35169598981676" lon="14.707797783340663"><ele>57.0</ele><time>2026-04-16T10:56:34.907Z</time></trkpt><trkpt lat="53.35162172450423" lon="14.707701229858143"><ele>57.0</ele><time>2026-04-16T10:56:35.908Z</time></trkpt><trkpt lat="53.35155042781732" lon="14.70758601313466"><ele>57.25</ele><time>2026-04-16T10:56:36.908Z</time></trkpt><trkpt lat="53.35147602897647" lon="14.707460544998682"><ele>57.5</ele><time>2026-04-16T10:56:37.907Z</time></trkpt><trkpt lat="53.351388434776666" lon="14.707330087437755"><ele>57.75</ele><time>2026-04-16T10:56:38.908Z</time></trkpt><trkpt lat="53.35130935266898" lon="14.707197340953375"><ele>58.0</ele><time>2026-04-16T10:56:39.908Z</time></trkpt><trkpt lat="53.35122652779362" lon="14.707062840026433"><ele>58.0</ele><time>2026-04-16T10:56:40.907Z</time></trkpt><trkpt lat="53.3511279424262" lon="14.706927183862952"><ele>58.0</ele><time>2026-04-16T10:56:41.908Z</time></trkpt><trkpt lat="53.351033489205136" lon="14.706775728898553"><ele>58.0</ele><time>2026-04-16T10:56:42.908Z</time></trkpt><trkpt lat="53.35093226458863" lon="14.706628585836139"><ele>58.0</ele><time>2026-04-16T10:56:43.907Z</time></trkpt><trkpt lat="53.35083052922801" lon="14.706453916557948"><ele>59.25</ele><time>2026-04-16T10:56:44.907Z</time></trkpt><trkpt lat="53.35072324887018" lon="14.706283068208977"><ele>60.5</ele><time>2026-04-16T10:56:45.907Z</time></trkpt><trkpt lat="53.35062257513896" lon="14.706109465113668"><ele>61.75</ele><time>2026-04-16T10:56:46.908Z</time></trkpt><trkpt lat="53.350527635970884" lon="14.705946498603456"><ele>63.0</ele><time>2026-04-16T10:56:47.907Z</time></trkpt><trkpt lat="53.35044229130642" lon="14.705791612062615"><ele>63.0</ele><time>2026-04-16T10:56:48.907Z</time></trkpt><trkpt lat="53.35035608895662" lon="14.705618083990567"><ele>63.0</ele><time>2026-04-16T10:56:49.907Z</time></trkpt><trkpt lat="53.35027946137184" lon="14.705428995618322"><ele>63.0</ele><time>2026-04-16T10:56:50.907Z</time></trkpt><trkpt lat="53.35021131445287" lon="14.705239527930416"><ele>63.0</ele><time>2026-04-16T10:56:51.907Z</time></trkpt><trkpt lat="53.35014440654055" lon="14.705047551514838"><ele>65.33333333333333</ele><time>2026-04-16T10:56:52.907Z</time></trkpt><trkpt lat="53.35006685755057" lon="14.704834018956676"><ele>67.66666666666666</ele><time>2026-04-16T10:56:53.907Z</time></trkpt><trkpt lat="53.349986965557065" lon="14.70461287081847"><ele>70.0</ele><time>2026-04-16T10:56:54.907Z</time></trkpt><trkpt lat="53.34991184954663" lon="14.704381367409166"><ele>70.5</ele><time>2026-04-16T10:56:55.907Z</time></trkpt><trkpt lat="53.34984283036139" lon="14.704167007394148"><ele>71.0</ele><time>2026-04-16T10:56:56.907Z</time></trkpt><trkpt lat="53.349782110679236" lon="14.703970595917392"><ele>71.5</ele><time>2026-04-16T10:56:57.907Z</time></trkpt><trkpt lat="53.34971736188354" lon="14.70376817206276"><ele>72.0</ele><time>2026-04-16T10:56:58.907Z</time></trkpt><trkpt lat="53.3496704713863" lon="14.70357270927273"><ele>72.0</ele><time>2026-04-16T10:56:59.908Z</time></trkpt><trkpt lat="53.34961492442322" lon="14.703375978879249"><ele>72.0</ele><time>2026-04-16T10:57:00.908Z</time></trkpt><trkpt lat="53.34955093408701" lon="14.703147444201575"><ele>72.0</ele><time>2026-04-16T10:57:01.908Z</time></trkpt><trkpt lat="53.34948819789417" lon="14.702913987836675"><ele>72.0</ele><time>2026-04-16T10:57:02.908Z</time></trkpt><trkpt lat="53.349429473647064" lon="14.702682644566227"><ele>72.66666666666667</ele><time>2026-04-16T10:57:03.908Z</time></trkpt><trkpt lat="53.34936829402684" lon="14.702433833742905"><ele>73.33333333333334</ele><time>2026-04-16T10:57:04.908Z</time></trkpt><trkpt lat="53.3493242729232" lon="14.702199100847235"><ele>74.0</ele><time>2026-04-16T10:57:05.908Z</time></trkpt><trkpt lat="53.349272932554705" lon="14.701967071286923"><ele>74.25</ele><time>2026-04-16T10:57:06.908Z</time></trkpt><trkpt lat="53.3492227582534" lon="14.701746106447361"><ele>74.5</ele><time>2026-04-16T10:57:07.908Z</time></trkpt><trkpt lat="53.34917684115635" lon="14.701534211147498"><ele>74.75</ele><time>2026-04-16T10:57:08.908Z</time></trkpt><trkpt lat="53.34912959384904" lon="14.701338227679157"><ele>75.0</ele><time>2026-04-16T10:57:09.908Z</time></trkpt><trkpt lat="53.34908537475214" lon="14.701122071411227"><ele>75.4</ele><time>2026-04-16T10:57:10.908Z</time></trkpt><trkpt lat="53.34905003790151" lon="14.700909036027248"><ele>75.8</ele><time>2026-04-16T10:57:11.908Z</time></trkpt><trkpt lat="53.34903677644435" lon="14.70073104536715"><ele>76.2</ele><time>2026-04-16T10:57:12.908Z</time></trkpt><trkpt lat="53.34901341132529" lon="14.700610394813571"><ele>76.6</ele><time>2026-04-16T10:57:13.908Z</time></trkpt><trkpt lat="53.3489886274652" lon="14.700483154354812"><ele>77.0</ele><time>2026-04-16T10:57:15.908Z</time></trkpt><trkpt lat="53.34902734469653" lon="14.700380050290352"><ele>77.0</ele><time>2026-04-16T10:57:18.908Z</time></trkpt><trkpt lat="53.34910552362871" lon="14.7002588599648"><ele>77.0</ele><time>2026-04-16T10:57:20.908Z</time></trkpt><trkpt lat="53.34915876895892" lon="14.700183722910987"><ele>77.0</ele><time>2026-04-16T10:57:21.908Z</time></trkpt><trkpt lat="53.34924451523851" lon="14.700090951397026"><ele>77.0</ele><time>2026-04-16T10:57:22.908Z</time></trkpt><trkpt lat="53.34933735103543" lon="14.699985758055636"><ele>77.0</ele><time>2026-04-16T10:57:23.908Z</time></trkpt><trkpt lat="53.349420723782835" lon="14.699884244763348"><ele>77.2</ele><time>2026-04-16T10:57:24.908Z</time></trkpt><trkpt lat="53.34951687834334" lon="14.69978384584485"><ele>77.4</ele><time>2026-04-16T10:57:25.908Z</time></trkpt><trkpt lat="53.34961259262762" lon="14.699703402910734"><ele>77.6</ele><time>2026-04-16T10:57:26.908Z</time></trkpt><trkpt lat="53.34970800906914" lon="14.699609199021497"><ele>77.8</ele><time>2026-04-16T10:57:27.908Z</time></trkpt><trkpt lat="53.34980258115783" lon="14.699525344219486"><ele>78.0</ele><time>2026-04-16T10:57:28.908Z</time></trkpt><trkpt lat="53.34991577042573" lon="14.699411348403634"><ele>78.0</ele><time>2026-04-16T10:57:29.908Z</time></trkpt><trkpt lat="53.350029186903164" lon="14.699296715735596"><ele>78.0</ele><time>2026-04-16T10:57:30.908Z</time></trkpt><trkpt lat="53.350144655187904" lon="14.699193698906027"><ele>78.0</ele><time>2026-04-16T10:57:31.908Z</time></trkpt><trkpt lat="53.35028027349396" lon="14.699074909070907"><ele>78.0</ele><time>2026-04-16T10:57:32.908Z</time></trkpt><trkpt lat="53.35039351103249" lon="14.698961595575572"><ele>78.0</ele><time>2026-04-16T10:57:33.908Z</time></trkpt><trkpt lat="53.350528476816564" lon="14.698838812229916"><ele>78.0</ele><time>2026-04-16T10:57:34.908Z</time></trkpt><trkpt lat="53.35064388709278" lon="14.698751188387494"><ele>78.0</ele><time>2026-04-16T10:57:35.908Z</time></trkpt><trkpt lat="53.35077143870481" lon="14.698681501270737"><ele>78.0</ele><time>2026-04-16T10:57:36.908Z</time></trkpt><trkpt lat="53.35089318919674" lon="14.698608321207375"><ele>77.75</ele><time>2026-04-16T10:57:37.908Z</time></trkpt><trkpt lat="53.35101373882935" lon="14.698538630993863"><ele>77.5</ele><time>2026-04-16T10:57:38.908Z</time></trkpt><trkpt lat="53.35112893727675" lon="14.698462144293558"><ele>77.25</ele><time>2026-04-16T10:57:39.908Z</time></trkpt><trkpt lat="53.35123740864723" lon="14.698344816511122"><ele>77.0</ele><time>2026-04-16T10:57:40.908Z</time></trkpt><trkpt lat="53.351333045997485" lon="14.698199324794308"><ele>76.66666666666667</ele><time>2026-04-16T10:57:41.908Z</time></trkpt><trkpt lat="53.35143338372828" lon="14.698025604130333"><ele>76.33333333333333</ele><time>2026-04-16T10:57:42.908Z</time></trkpt><trkpt lat="53.351537737882246" lon="14.697833073797161"><ele>76.0</ele><time>2026-04-16T10:57:43.908Z</time></trkpt><trkpt lat="53.35163811027685" lon="14.697628752120153"><ele>75.66666666666666</ele><time>2026-04-16T10:57:44.908Z</time></trkpt><trkpt lat="53.351745468040676" lon="14.697431127863494"><ele>75.33333333333333</ele><time>2026-04-16T10:57:45.908Z</time></trkpt><trkpt lat="53.351847217152645" lon="14.697262874359877"><ele>75.0</ele><time>2026-04-16T10:57:46.909Z</time></trkpt><trkpt lat="53.351948297517204" lon="14.697082559151275"><ele>74.66666666666667</ele><time>2026-04-16T10:57:47.909Z</time></trkpt><trkpt lat="53.35205522024043" lon="14.696909933711531"><ele>74.33333333333334</ele><time>2026-04-16T10:57:48.909Z</time></trkpt><trkpt lat="53.352158984978324" lon="14.69672333366949"><ele>74.0</ele><time>2026-04-16T10:57:49.909Z</time></trkpt><trkpt lat="53.35226058847186" lon="14.696533450166017"><ele>73.75</ele><time>2026-04-16T10:57:50.909Z</time></trkpt><trkpt lat="53.35235653077184" lon="14.696363544777807"><ele>73.5</ele><time>2026-04-16T10:57:51.909Z</time></trkpt><trkpt lat="53.35244525919444" lon="14.69620983692688"><ele>73.25</ele><time>2026-04-16T10:57:52.909Z</time></trkpt><trkpt lat="53.35252115574589" lon="14.696062501239778"><ele>73.0</ele><time>2026-04-16T10:57:53.909Z</time></trkpt><trkpt lat="53.352597934859624" lon="14.695936719702882"><ele>72.83333333333333</ele><time>2026-04-16T10:57:54.909Z</time></trkpt><trkpt lat="53.35266327687829" lon="14.695816496701344"><ele>72.66666666666666</ele><time>2026-04-16T10:57:55.909Z</time></trkpt><trkpt lat="53.35270990002465" lon="14.695743499423909"><ele>72.5</ele><time>2026-04-16T10:57:56.909Z</time></trkpt><trkpt lat="53.35280139658436" lon="14.69565525622863"><ele>72.33333333333333</ele><time>2026-04-16T10:57:58.909Z</time></trkpt><trkpt lat="53.35286648866674" lon="14.695622434911172"><ele>72.16666666666667</ele><time>2026-04-16T10:57:59.909Z</time></trkpt><trkpt lat="53.35294348245821" lon="14.695612620367653"><ele>72.0</ele><time>2026-04-16T10:58:00.909Z</time></trkpt><trkpt lat="53.3530666957207" lon="14.695595328888835"><ele>71.75</ele><time>2026-04-16T10:58:01.909Z</time></trkpt><trkpt lat="53.353195529590145" lon="14.695569229825008"><ele>71.5</ele><time>2026-04-16T10:58:02.909Z</time></trkpt><trkpt lat="53.353338101388275" lon="14.695542031039835"><ele>71.25</ele><time>2026-04-16T10:58:03.909Z</time></trkpt><trkpt lat="53.35349092023907" lon="14.69555772179438"><ele>71.0</ele><time>2026-04-16T10:58:04.909Z</time></trkpt><trkpt lat="53.35363966821274" lon="14.695534754450437"><ele>71.0</ele><time>2026-04-16T10:58:05.909Z</time></trkpt><trkpt lat="53.35381007764729" lon="14.69549998518781"><ele>71.0</ele><time>2026-04-16T10:58:06.909Z</time></trkpt><trkpt lat="53.35397008994538" lon="14.695476639324745"><ele>71.0</ele><time>2026-04-16T10:58:07.909Z</time></trkpt><trkpt lat="53.354139202784985" lon="14.695451254918625"><ele>70.66666666666667</ele><time>2026-04-16T10:58:08.909Z</time></trkpt><trkpt lat="53.35430260901217" lon="14.695434121628377"><ele>70.33333333333333</ele><time>2026-04-16T10:58:09.909Z</time></trkpt><trkpt lat="53.35448723653762" lon="14.695412811145108"><ele>70.0</ele><time>2026-04-16T10:58:10.909Z</time></trkpt><trkpt lat="53.35465939995203" lon="14.69539465829413"><ele>69.66666666666666</ele><time>2026-04-16T10:58:11.909Z</time></trkpt><trkpt lat="53.354817162798106" lon="14.695371335938239"><ele>69.33333333333333</ele><time>2026-04-16T10:58:12.909Z</time></trkpt><trkpt lat="53.354978067591" lon="14.695386319560733"><ele>69.0</ele><time>2026-04-16T10:58:13.909Z</time></trkpt><trkpt lat="53.35512467036814" lon="14.695380673310645"><ele>69.0</ele><time>2026-04-16T10:58:14.909Z</time></trkpt><trkpt lat="53.35527086394708" lon="14.695380786717092"><ele>69.0</ele><time>2026-04-16T10:58:15.909Z</time></trkpt><trkpt lat="53.355435879229525" lon="14.69538606844481"><ele>69.0</ele><time>2026-04-16T10:58:16.909Z</time></trkpt><trkpt lat="53.35561327975699" lon="14.69537929618486"><ele>67.33333333333333</ele><time>2026-04-16T10:58:17.909Z</time></trkpt><trkpt lat="53.355780681421166" lon="14.69542016157498"><ele>65.66666666666666</ele><time>2026-04-16T10:58:18.909Z</time></trkpt><trkpt lat="53.35594075503889" lon="14.69547868735588"><ele>64.0</ele><time>2026-04-16T10:58:19.909Z</time></trkpt><trkpt lat="53.35611775664935" lon="14.695539260834986"><ele>64.0</ele><time>2026-04-16T10:58:20.909Z</time></trkpt><trkpt lat="53.356272243119086" lon="14.695590457222309"><ele>64.0</ele><time>2026-04-16T10:58:21.909Z</time></trkpt><trkpt lat="53.3564457716616" lon="14.695645209703226"><ele>64.0</ele><time>2026-04-16T10:58:22.909Z</time></trkpt><trkpt lat="53.35662232586966" lon="14.695702962378617"><ele>63.0</ele><time>2026-04-16T10:58:23.909Z</time></trkpt><trkpt lat="53.3567969773052" lon="14.695762134944749"><ele>62.0</ele><time>2026-04-16T10:58:24.909Z</time></trkpt><trkpt lat="53.35696603085008" lon="14.695832603078626"><ele>61.0</ele><time>2026-04-16T10:58:25.909Z</time></trkpt><trkpt lat="53.35712640852109" lon="14.69589554772442"><ele>60.5</ele><time>2026-04-16T10:58:26.909Z</time></trkpt><trkpt lat="53.35726761708921" lon="14.695962506900113"><ele>60.0</ele><time>2026-04-16T10:58:27.909Z</time></trkpt><trkpt lat="53.35739720546723" lon="14.696031198052667"><ele>59.5</ele><time>2026-04-16T10:58:28.909Z</time></trkpt><trkpt lat="53.35752766475115" lon="14.696067730206648"><ele>59.0</ele><time>2026-04-16T10:58:29.909Z</time></trkpt><trkpt lat="53.35766842981854" lon="14.69608359802542"><ele>59.0</ele><time>2026-04-16T10:58:30.909Z</time></trkpt><trkpt lat="53.35781974205826" lon="14.69608061143711"><ele>59.0</ele><time>2026-04-16T10:58:31.909Z</time></trkpt><trkpt lat="53.35796769735331" lon="14.696064692843157"><ele>59.0</ele><time>2026-04-16T10:58:32.909Z</time></trkpt><trkpt lat="53.35812090614216" lon="14.696021720864135"><ele>57.75</ele><time>2026-04-16T10:58:33.909Z</time></trkpt><trkpt lat="53.35826320882517" lon="14.695997404677264"><ele>56.5</ele><time>2026-04-16T10:58:34.91Z</time></trkpt><trkpt lat="53.35839618240343" lon="14.695998436015241"><ele>55.25</ele><time>2026-04-16T10:58:35.91Z</time></trkpt><trkpt lat="53.35852929806014" lon="14.695996755362627"><ele>54.0</ele><time>2026-04-16T10:58:36.91Z</time></trkpt><trkpt lat="53.35867259458465" lon="14.695982741410127"><ele>54.0</ele><time>2026-04-16T10:58:37.91Z</time></trkpt><trkpt lat="53.35881689060016" lon="14.6959437558457"><ele>54.0</ele><time>2026-04-16T10:58:38.91Z</time></trkpt><trkpt lat="53.3589591446502" lon="14.695923782600648"><ele>54.0</ele><time>2026-04-16T10:58:39.909Z</time></trkpt><trkpt lat="53.35908628152544" lon="14.695916698152335"><ele>54.0</ele><time>2026-04-16T10:58:40.907Z</time></trkpt><trkpt lat="53.359210002480204" lon="14.695904774324674"><ele>51.0</ele><time>2026-04-16T10:58:41.906Z</time></trkpt><trkpt lat="53.3593158160027" lon="14.695883496268733"><ele>48.00000000000001</ele><time>2026-04-16T10:58:42.906Z</time></trkpt><trkpt lat="53.35943079092384" lon="14.695846569875739"><ele>45.0</ele><time>2026-04-16T10:58:43.906Z</time></trkpt><trkpt lat="53.35954396157085" lon="14.695817835127276"><ele>42.0</ele><time>2026-04-16T10:58:44.905Z</time></trkpt><trkpt lat="53.359629806705996" lon="14.695803392530706"><ele>39.0</ele><time>2026-04-16T10:58:45.905Z</time></trkpt><trkpt lat="53.35972025738146" lon="14.695779345961114"><ele>37.6</ele><time>2026-04-16T10:58:46.905Z</time></trkpt><trkpt lat="53.359788291380625" lon="14.695754641200908"><ele>36.2</ele><time>2026-04-16T10:58:47.905Z</time></trkpt><trkpt lat="53.35990175249726" lon="14.69575659516002"><ele>34.800000000000004</ele><time>2026-04-16T10:58:49.905Z</time></trkpt><trkpt lat="53.35999948270211" lon="14.695779969234676"><ele>33.4</ele><time>2026-04-16T10:58:51.905Z</time></trkpt><trkpt lat="53.36006418263727" lon="14.695820954532225"><ele>32.0</ele><time>2026-04-16T10:58:55.904Z</time></trkpt><trkpt lat="53.36014221420217" lon="14.695958146891021"><ele>32.0</ele><time>2026-04-16T10:58:57.904Z</time></trkpt><trkpt lat="53.36021639621733" lon="14.69606053347214"><ele>32.0</ele><time>2026-04-16T10:58:58.904Z</time></trkpt><trkpt lat="53.36030672358457" lon="14.696140061212283"><ele>32.0</ele><time>2026-04-16T10:58:59.904Z</time></trkpt><trkpt lat="53.360398649461104" lon="14.696259170074246"><ele>32.0</ele><time>2026-04-16T10:59:00.904Z</time></trkpt><trkpt lat="53.36048395421321" lon="14.696416150641753"><ele>32.0</ele><time>2026-04-16T10:59:01.904Z</time></trkpt><trkpt lat="53.36058135756503" lon="14.696559944193014"><ele>32.5</ele><time>2026-04-16T10:59:02.904Z</time></trkpt><trkpt lat="53.360677069907865" lon="14.696709715636649"><ele>33.0</ele><time>2026-04-16T10:59:03.904Z</time></trkpt><trkpt lat="53.36078255454428" lon="14.69685641163975"><ele>33.5</ele><time>2026-04-16T10:59:04.904Z</time></trkpt><trkpt lat="53.360905074867944" lon="14.696987371711504"><ele>34.0</ele><time>2026-04-16T10:59:05.904Z</time></trkpt><trkpt lat="53.3610423908889" lon="14.697114193013817"><ele>34.0</ele><time>2026-04-16T10:59:06.904Z</time></trkpt><trkpt lat="53.36118380006154" lon="14.697230430716274"><ele>34.0</ele><time>2026-04-16T10:59:07.904Z</time></trkpt><trkpt lat="53.361323896923466" lon="14.6973572237723"><ele>34.0</ele><time>2026-04-16T10:59:08.904Z</time></trkpt><trkpt lat="53.361450197288654" lon="14.697475448153584"><ele>34.0</ele><time>2026-04-16T10:59:09.904Z</time></trkpt><trkpt lat="53.36155664474688" lon="14.69759141807456"><ele>34.0</ele><time>2026-04-16T10:59:10.904Z</time></trkpt><trkpt lat="53.36167404071618" lon="14.69771870471134"><ele>34.0</ele><time>2026-04-16T10:59:11.904Z</time></trkpt><trkpt lat="53.36181669781131" lon="14.697840689635452"><ele>34.0</ele><time>2026-04-16T10:59:12.904Z</time></trkpt><trkpt lat="53.36195580423668" lon="14.697940918021466"><ele>33.66666666666667</ele><time>2026-04-16T10:59:13.904Z</time></trkpt><trkpt lat="53.362098645307434" lon="14.698053559220929"><ele>33.333333333333336</ele><time>2026-04-16T10:59:14.904Z</time></trkpt><trkpt lat="53.36223714631868" lon="14.698171811641508"><ele>33.0</ele><time>2026-04-16T10:59:15.904Z</time></trkpt><trkpt lat="53.36238546094791" lon="14.698279317100708"><ele>33.0</ele><time>2026-04-16T10:59:16.904Z</time></trkpt><trkpt lat="53.36253270426494" lon="14.698372063698121"><ele>33.0</ele><time>2026-04-16T10:59:17.904Z</time></trkpt><trkpt lat="53.36266759643041" lon="14.698509433098414"><ele>33.0</ele><time>2026-04-16T10:59:18.904Z</time></trkpt><trkpt lat="53.36281171946644" lon="14.698629580245456"><ele>32.666666666666664</ele><time>2026-04-16T10:59:19.904Z</time></trkpt><trkpt lat="53.36294919284198" lon="14.69874527098216"><ele>32.33333333333333</ele><time>2026-04-16T10:59:20.904Z</time></trkpt><trkpt lat="53.36308470618766" lon="14.698859749954778"><ele>32.0</ele><time>2026-04-16T10:59:21.904Z</time></trkpt><trkpt lat="53.363213970210595" lon="14.698973131580976"><ele>32.0</ele><time>2026-04-16T10:59:22.904Z</time></trkpt><trkpt lat="53.36333164569172" lon="14.699083373126319"><ele>32.0</ele><time>2026-04-16T10:59:23.904Z</time></trkpt><trkpt lat="53.363434500291866" lon="14.699200644606316"><ele>32.0</ele><time>2026-04-16T10:59:24.904Z</time></trkpt><trkpt lat="53.36351110518662" lon="14.699320220469634"><ele>32.0</ele><time>2026-04-16T10:59:25.904Z</time></trkpt><trkpt lat="53.36359091979062" lon="14.699398357286409"><ele>31.8</ele><time>2026-04-16T10:59:26.904Z</time></trkpt><trkpt lat="53.363650563197005" lon="14.699496648527967"><ele>31.6</ele><time>2026-04-16T10:59:27.904Z</time></trkpt><trkpt lat="53.363718019237965" lon="14.699521016583834"><ele>31.400000000000002</ele><time>2026-04-16T10:59:28.904Z</time></trkpt><trkpt lat="53.36381069997025" lon="14.699529848943454"><ele>31.200000000000003</ele><time>2026-04-16T10:59:29.904Z</time></trkpt><trkpt lat="53.36392480674299" lon="14.699530577068337"><ele>31.0</ele><time>2026-04-16T10:59:30.904Z</time></trkpt><trkpt lat="53.36403678115341" lon="14.699505503025962"><ele>30.0</ele><time>2026-04-16T10:59:31.904Z</time></trkpt><trkpt lat="53.36416203237187" lon="14.699473459868537"><ele>29.0</ele><time>2026-04-16T10:59:32.904Z</time></trkpt><trkpt lat="53.36428858058516" lon="14.699395253042296"><ele>28.0</ele><time>2026-04-16T10:59:33.904Z</time></trkpt><trkpt lat="53.36441562574366" lon="14.69933584580873"><ele>27.0</ele><time>2026-04-16T10:59:34.904Z</time></trkpt><trkpt lat="53.36453783641164" lon="14.699262614029182"><ele>27.0</ele><time>2026-04-16T10:59:35.904Z</time></trkpt><trkpt lat="53.36468127037307" lon="14.699191816654206"><ele>27.0</ele><time>2026-04-16T10:59:36.904Z</time></trkpt><trkpt lat="53.36481164290873" lon="14.699097671958045"><ele>27.0</ele><time>2026-04-16T10:59:37.904Z</time></trkpt><trkpt lat="53.36493416719872" lon="14.699017441757826"><ele>27.0</ele><time>2026-04-16T10:59:38.904Z</time></trkpt><trkpt lat="53.36504266198271" lon="14.698902474689138"><ele>27.0</ele><time>2026-04-16T10:59:39.904Z</time></trkpt><trkpt lat="53.36516089390498" lon="14.698776130875371"><ele>27.0</ele><time>2026-04-16T10:59:40.904Z</time></trkpt><trkpt lat="53.365268222759866" lon="14.698632679496987"><ele>27.0</ele><time>2026-04-16T10:59:41.904Z</time></trkpt><trkpt lat="53.365375940412896" lon="14.698469494465325"><ele>27.0</ele><time>2026-04-16T10:59:42.904Z</time></trkpt><trkpt lat="53.3654753509967" lon="14.698296158765942"><ele>26.5</ele><time>2026-04-16T10:59:43.904Z</time></trkpt><trkpt lat="53.3655750413336" lon="14.698115000462368"><ele>26.0</ele><time>2026-04-16T10:59:44.904Z</time></trkpt><trkpt lat="53.36566222573258" lon="14.697978016964925"><ele>25.5</ele><time>2026-04-16T10:59:45.904Z</time></trkpt><trkpt lat="53.365733125863805" lon="14.69782952049164"><ele>25.0</ele><time>2026-04-16T10:59:46.904Z</time></trkpt><trkpt lat="53.365827595004255" lon="14.69767498070584"><ele>24.75</ele><time>2026-04-16T10:59:47.904Z</time></trkpt><trkpt lat="53.36593779540654" lon="14.697520400564315"><ele>24.5</ele><time>2026-04-16T10:59:48.904Z</time></trkpt><trkpt lat="53.36604692865411" lon="14.697368599395706"><ele>24.25</ele><time>2026-04-16T10:59:49.905Z</time></trkpt><trkpt lat="53.36614851350991" lon="14.697219485365043"><ele>24.0</ele><time>2026-04-16T10:59:50.905Z</time></trkpt><trkpt lat="53.36625069531261" lon="14.697084206306766"><ele>24.0</ele><time>2026-04-16T10:59:51.905Z</time></trkpt><trkpt lat="53.36635641917314" lon="14.696949185558033"><ele>24.0</ele><time>2026-04-16T10:59:52.905Z</time></trkpt><trkpt lat="53.36646012199156" lon="14.69680923669573"><ele>24.0</ele><time>2026-04-16T10:59:53.905Z</time></trkpt><trkpt lat="53.36655963369554" lon="14.696672976978618"><ele>24.0</ele><time>2026-04-16T10:59:54.905Z</time></trkpt><trkpt lat="53.36665964292612" lon="14.696519216331183"><ele>24.0</ele><time>2026-04-16T10:59:55.905Z</time></trkpt><trkpt lat="53.36675486140279" lon="14.696391771306633"><ele>24.0</ele><time>2026-04-16T10:59:56.905Z</time></trkpt><trkpt lat="53.36682370525683" lon="14.696312377230624"><ele>24.0</ele><time>2026-04-16T10:59:57.905Z</time></trkpt><trkpt lat="53.36686947272868" lon="14.696225320725265"><ele>24.0</ele><time>2026-04-16T10:59:59.905Z</time></trkpt><trkpt lat="53.36692648044215" lon="14.696173148332962"><ele>24.0</ele><time>2026-04-16T11:00:03.905Z</time></trkpt><trkpt lat="53.3669817771546" lon="14.696069243674575"><ele>24.0</ele><time>2026-04-16T11:00:07.905Z</time></trkpt><trkpt lat="53.367061469918895" lon="14.695961863938038"><ele>24.0</ele><time>2026-04-16T11:00:10.905Z</time></trkpt><trkpt lat="53.36716285312754" lon="14.695811207068816"><ele>24.0</ele><time>2026-04-16T11:00:12.905Z</time></trkpt><trkpt lat="53.3672286247077" lon="14.695685775414557"><ele>24.0</ele><time>2026-04-16T11:00:13.905Z</time></trkpt><trkpt lat="53.36729184077579" lon="14.69553067588904"><ele>24.0</ele><time>2026-04-16T11:00:14.905Z</time></trkpt><trkpt lat="53.36738243409515" lon="14.695392104994442"><ele>23.75</ele><time>2026-04-16T11:00:15.905Z</time></trkpt><trkpt lat="53.367469351213" lon="14.695266010432498"><ele>23.5</ele><time>2026-04-16T11:00:16.905Z</time></trkpt><trkpt lat="53.36757453177781" lon="14.695125245936202"><ele>23.25</ele><time>2026-04-16T11:00:17.905Z</time></trkpt><trkpt lat="53.36767171196586" lon="14.694960403427"><ele>23.0</ele><time>2026-04-16T11:00:18.905Z</time></trkpt><trkpt lat="53.36777696135705" lon="14.694810446181771"><ele>23.5</ele><time>2026-04-16T11:00:19.905Z</time></trkpt><trkpt lat="53.36789599310768" lon="14.694637452854206"><ele>24.0</ele><time>2026-04-16T11:00:20.905Z</time></trkpt><trkpt lat="53.367993292186604" lon="14.694473957878257"><ele>24.5</ele><time>2026-04-16T11:00:21.905Z</time></trkpt><trkpt lat="53.368098433557414" lon="14.694316617429061"><ele>25.0</ele><time>2026-04-16T11:00:22.905Z</time></trkpt><trkpt lat="53.368216584582704" lon="14.694182843576739"><ele>23.25</ele><time>2026-04-16T11:00:23.905Z</time></trkpt><trkpt lat="53.36831067480333" lon="14.694043207231203"><ele>21.5</ele><time>2026-04-16T11:00:24.905Z</time></trkpt><trkpt lat="53.3684143826818" lon="14.6939182931408"><ele>19.75</ele><time>2026-04-16T11:00:25.905Z</time></trkpt><trkpt lat="53.36850080130131" lon="14.693811531472782"><ele>18.0</ele><time>2026-04-16T11:00:26.905Z</time></trkpt><trkpt lat="53.368602678622416" lon="14.693678649599141"><ele>17.5</ele><time>2026-04-16T11:00:27.905Z</time></trkpt><trkpt lat="53.36870269896515" lon="14.693541793913441"><ele>17.0</ele><time>2026-04-16T11:00:28.905Z</time></trkpt><trkpt lat="53.36879400958452" lon="14.693422595358644"><ele>16.5</ele><time>2026-04-16T11:00:29.905Z</time></trkpt><trkpt lat="53.36889807529082" lon="14.693281048032809"><ele>16.0</ele><time>2026-04-16T11:00:30.905Z</time></trkpt><trkpt lat="53.36900361249689" lon="14.693140640676397"><ele>15.25</ele><time>2026-04-16T11:00:31.905Z</time></trkpt><trkpt lat="53.36910812778838" lon="14.692978419672006"><ele>14.5</ele><time>2026-04-16T11:00:32.905Z</time></trkpt><trkpt lat="53.369225041908855" lon="14.69281250754859"><ele>13.75</ele><time>2026-04-16T11:00:33.905Z</time></trkpt><trkpt lat="53.36934220552481" lon="14.692654356360345"><ele>13.0</ele><time>2026-04-16T11:00:34.905Z</time></trkpt><trkpt lat="53.36945807577898" lon="14.692493522336049"><ele>13.0</ele><time>2026-04-16T11:00:35.905Z</time></trkpt><trkpt lat="53.3695816194494" lon="14.69232681652681"><ele>13.0</ele><time>2026-04-16T11:00:36.905Z</time></trkpt><trkpt lat="53.369715572753634" lon="14.69213777193623"><ele>13.0</ele><time>2026-04-16T11:00:37.905Z</time></trkpt><trkpt lat="53.36985759768179" lon="14.691945837226214"><ele>12.666666666666666</ele><time>2026-04-16T11:00:38.905Z</time></trkpt><trkpt lat="53.37002135486061" lon="14.691757529588779"><ele>12.333333333333332</ele><time>2026-04-16T11:00:39.906Z</time></trkpt><trkpt lat="53.370178636621496" lon="14.691548782791617"><ele>12.0</ele><time>2026-04-16T11:00:40.906Z</time></trkpt><trkpt lat="53.37032746959411" lon="14.691347343316778"><ele>12.0</ele><time>2026-04-16T11:00:41.906Z</time></trkpt><trkpt lat="53.37045734803069" lon="14.69116961069946"><ele>12.0</ele><time>2026-04-16T11:00:42.906Z</time></trkpt><trkpt lat="53.370570044551584" lon="14.69101539070112"><ele>12.0</ele><time>2026-04-16T11:00:43.906Z</time></trkpt><trkpt lat="53.3706792750775" lon="14.690865913714513"><ele>12.0</ele><time>2026-04-16T11:00:44.906Z</time></trkpt><trkpt lat="53.3707844896465" lon="14.690721942617488"><ele>12.0</ele><time>2026-04-16T11:00:45.906Z</time></trkpt><trkpt lat="53.37086484549061" lon="14.690596387334676"><ele>12.0</ele><time>2026-04-16T11:00:46.903Z</time></trkpt><trkpt lat="53.37093158821786" lon="14.69050098061941"><ele>12.0</ele><time>2026-04-16T11:00:47.903Z</time></trkpt><trkpt lat="53.3709961837454" lon="14.690412576860043"><ele>12.0</ele><time>2026-04-16T11:00:49.903Z</time></trkpt><trkpt lat="53.370921865545355" lon="14.690210048556198"><ele>11.75</ele><time>2026-04-16T11:00:53.903Z</time></trkpt><trkpt lat="53.370824013587075" lon="14.690121272844205"><ele>11.5</ele><time>2026-04-16T11:00:54.903Z</time></trkpt><trkpt lat="53.37072703089628" lon="14.690021048651234"><ele>11.25</ele><time>2026-04-16T11:00:55.903Z</time></trkpt><trkpt lat="53.370624244707294" lon="14.689900414573994"><ele>11.0</ele><time>2026-04-16T11:00:56.903Z</time></trkpt><trkpt lat="53.37051472022098" lon="14.689760955780995"><ele>10.5</ele><time>2026-04-16T11:00:57.903Z</time></trkpt><trkpt lat="53.37039399346945" lon="14.68961724903033"><ele>10.0</ele><time>2026-04-16T11:00:58.903Z</time></trkpt><trkpt lat="53.37028490290719" lon="14.68948387540893"><ele>9.5</ele><time>2026-04-16T11:00:59.903Z</time></trkpt><trkpt lat="53.3701843052379" lon="14.689356368101684"><ele>9.0</ele><time>2026-04-16T11:01:00.903Z</time></trkpt><trkpt lat="53.37009451121724" lon="14.689221335932931"><ele>9.0</ele><time>2026-04-16T11:01:01.903Z</time></trkpt><trkpt lat="53.369999892970014" lon="14.689114705930951"><ele>9.0</ele><time>2026-04-16T11:01:02.903Z</time></trkpt><trkpt lat="53.369917409341426" lon="14.689010457219519"><ele>9.0</ele><time>2026-04-16T11:01:03.903Z</time></trkpt><trkpt lat="53.369840776974705" lon="14.688915287782661"><ele>9.0</ele><time>2026-04-16T11:01:04.903Z</time></trkpt><trkpt lat="53.369770023843174" lon="14.688837038876418"><ele>9.0</ele><time>2026-04-16T11:01:05.903Z</time></trkpt><trkpt lat="53.36971005395872" lon="14.688771299642314"><ele>8.8</ele><time>2026-04-16T11:01:06.903Z</time></trkpt><trkpt lat="53.36966847616043" lon="14.688661557347139"><ele>8.600000000000001</ele><time>2026-04-16T11:01:08.903Z</time></trkpt><trkpt lat="53.36973559912295" lon="14.688383078784494"><ele>8.4</ele><time>2026-04-16T11:01:13.903Z</time></trkpt><trkpt lat="53.369736451138834" lon="14.688235305255954"><ele>8.200000000000001</ele><time>2026-04-16T11:01:14.903Z</time></trkpt><trkpt lat="53.36973756599363" lon="14.68806522061271"><ele>8.0</ele><time>2026-04-16T11:01:15.903Z</time></trkpt><trkpt lat="53.36971464026821" lon="14.687867182399904"><ele>8.600000000000001</ele><time>2026-04-16T11:01:17.904Z</time></trkpt><trkpt lat="53.36962855615638" lon="14.687712665808425"><ele>9.200000000000001</ele><time>2026-04-16T11:01:19.904Z</time></trkpt><trkpt lat="53.369566756516946" lon="14.687657213008926"><ele>9.8</ele><time>2026-04-16T11:01:20.904Z</time></trkpt><trkpt lat="53.3694995974779" lon="14.687623146237046"><ele>10.4</ele><time>2026-04-16T11:01:21.904Z</time></trkpt><trkpt lat="53.36941630114709" lon="14.687597646969895"><ele>11.0</ele><time>2026-04-16T11:01:22.904Z</time></trkpt><trkpt lat="53.3693235871127" lon="14.687541882604597"><ele>11.0</ele><time>2026-04-16T11:01:23.904Z</time></trkpt><trkpt lat="53.36926225452149" lon="14.687431796155492"><ele>11.0</ele><time>2026-04-16T11:01:24.904Z</time></trkpt><trkpt lat="53.369198641492545" lon="14.687353415315203"><ele>11.0</ele><time>2026-04-16T11:01:25.904Z</time></trkpt><trkpt lat="53.36912553336185" lon="14.687284116088042"><ele>11.0</ele><time>2026-04-16T11:01:26.904Z</time></trkpt><trkpt lat="53.36907973127813" lon="14.687161349491472"><ele>11.0</ele><time>2026-04-16T11:01:27.904Z</time></trkpt><trkpt lat="53.36902516112747" lon="14.687055286256465"><ele>11.0</ele><time>2026-04-16T11:01:28.904Z</time></trkpt><trkpt lat="53.36898199116185" lon="14.686966206724186"><ele>11.0</ele><time>2026-04-16T11:01:29.904Z</time></trkpt><trkpt lat="53.36892408818406" lon="14.686820531319743"><ele>11.0</ele><time>2026-04-16T11:01:31.904Z</time></trkpt><trkpt lat="53.36888677776707" lon="14.686709212308429"><ele>11.0</ele><time>2026-04-16T11:01:33.904Z</time></trkpt><trkpt lat="53.368851251289776" lon="14.686570655092385"><ele>11.0</ele><time>2026-04-16T11:01:35.904Z</time></trkpt><trkpt lat="53.36882528880831" lon="14.68639197909605"><ele>11.0</ele><time>2026-04-16T11:01:37.904Z</time></trkpt><trkpt lat="53.36883889590169" lon="14.686275733604777"><ele>11.0</ele><time>2026-04-16T11:01:38.904Z</time></trkpt><trkpt lat="53.3688575714715" lon="14.686100603181208"><ele>11.0</ele><time>2026-04-16T11:01:40.904Z</time></trkpt><trkpt lat="53.36886247885053" lon="14.685896119633062"><ele>11.0</ele><time>2026-04-16T11:01:42.904Z</time></trkpt><trkpt lat="53.36889344144992" lon="14.685694517528207"><ele>11.0</ele><time>2026-04-16T11:01:44.904Z</time></trkpt><trkpt lat="53.368944280133704" lon="14.685559622303428"><ele>11.0</ele><time>2026-04-16T11:01:46.904Z</time></trkpt><trkpt lat="53.36902399613247" lon="14.685496405505262"><ele>10.600000000000001</ele><time>2026-04-16T11:01:48.904Z</time></trkpt><trkpt lat="53.36908340340297" lon="14.685382049380353"><ele>10.200000000000001</ele><time>2026-04-16T11:01:50.904Z</time></trkpt><trkpt lat="53.36915695986655" lon="14.685273624341603"><ele>9.8</ele><time>2026-04-16T11:01:52.904Z</time></trkpt><trkpt lat="53.369235890489975" lon="14.685172144890549"><ele>9.4</ele><time>2026-04-16T11:01:54.904Z</time></trkpt><trkpt lat="53.36932593192723" lon="14.685096137804186"><ele>9.0</ele><time>2026-04-16T11:01:56.904Z</time></trkpt><trkpt lat="53.36939944334781" lon="14.685015387687642"><ele>9.0</ele><time>2026-04-16T11:01:58.904Z</time></trkpt><trkpt lat="53.369484382298126" lon="14.684957509301627"><ele>9.0</ele><time>2026-04-16T11:02:00.904Z</time></trkpt><trkpt lat="53.369579336242914" lon="14.684920021859709"><ele>9.0</ele><time>2026-04-16T11:02:02.904Z</time></trkpt><trkpt lat="53.36967508504967" lon="14.68484895026634"><ele>9.0</ele><time>2026-04-16T11:02:04.905Z</time></trkpt><trkpt lat="53.36976032293875" lon="14.68476149979761"><ele>9.0</ele><time>2026-04-16T11:02:06.905Z</time></trkpt><trkpt lat="53.36981974121226" lon="14.684707418478803"><ele>9.25</ele><time>2026-04-16T11:02:07.905Z</time></trkpt><trkpt lat="53.36990877225972" lon="14.68461585467327"><ele>9.5</ele><time>2026-04-16T11:02:09.905Z</time></trkpt><trkpt lat="53.3700164759971" lon="14.68453156342068"><ele>9.75</ele><time>2026-04-16T11:02:11.905Z</time></trkpt><trkpt lat="53.370131169677016" lon="14.684477591922082"><ele>10.0</ele><time>2026-04-16T11:02:13.905Z</time></trkpt><trkpt lat="53.37026067028879" lon="14.68442355930475"><ele>10.0</ele><time>2026-04-16T11:02:15.905Z</time></trkpt><trkpt lat="53.37032970555775" lon="14.684402723681169"><ele>10.0</ele><time>2026-04-16T11:02:16.905Z</time></trkpt><trkpt lat="53.37040203683651" lon="14.684368192198267"><ele>10.0</ele><time>2026-04-16T11:02:17.905Z</time></trkpt><trkpt lat="53.370469532128936" lon="14.684333853765798"><ele>10.0</ele><time>2026-04-16T11:02:18.905Z</time></trkpt><trkpt lat="53.370593409556854" lon="14.68430089746236"><ele>10.0</ele><time>2026-04-16T11:02:20.905Z</time></trkpt><trkpt lat="53.37072353927288" lon="14.684253234746906"><ele>9.833333333333334</ele><time>2026-04-16T11:02:22.905Z</time></trkpt><trkpt lat="53.37079242725155" lon="14.684201845483624"><ele>9.666666666666668</ele><time>2026-04-16T11:02:23.905Z</time></trkpt><trkpt lat="53.37087140746331" lon="14.68414728684366"><ele>9.5</ele><time>2026-04-16T11:02:24.905Z</time></trkpt><trkpt lat="53.37095014099285" lon="14.684093702599167"><ele>9.333333333333334</ele><time>2026-04-16T11:02:25.905Z</time></trkpt><trkpt lat="53.37101673127668" lon="14.684073314084156"><ele>9.166666666666666</ele><time>2026-04-16T11:02:26.905Z</time></trkpt><trkpt lat="53.37109270168032" lon="14.684038873763388"><ele>9.0</ele><time>2026-04-16T11:02:27.905Z</time></trkpt><trkpt lat="53.371166293892706" lon="14.684029989497814"><ele>9.0</ele><time>2026-04-16T11:02:28.905Z</time></trkpt><trkpt lat="53.37124392669875" lon="14.684010341099274"><ele>9.0</ele><time>2026-04-16T11:02:29.905Z</time></trkpt><trkpt lat="53.371316240928" lon="14.683985198332117"><ele>9.0</ele><time>2026-04-16T11:02:30.905Z</time></trkpt><trkpt lat="53.37138635601706" lon="14.683942613362014"><ele>9.0</ele><time>2026-04-16T11:02:31.905Z</time></trkpt><trkpt lat="53.37151699657098" lon="14.683837128247465"><ele>9.0</ele><time>2026-04-16T11:02:33.905Z</time></trkpt><trkpt lat="53.371603447888255" lon="14.683738572804826"><ele>8.833333333333334</ele><time>2026-04-16T11:02:34.905Z</time></trkpt><trkpt lat="53.37166734046632" lon="14.683664794385505"><ele>8.666666666666666</ele><time>2026-04-16T11:02:35.905Z</time></trkpt><trkpt lat="53.37173108363509" lon="14.68358989549982"><ele>8.5</ele><time>2026-04-16T11:02:36.905Z</time></trkpt><trkpt lat="53.37181502974972" lon="14.683537597939685"><ele>8.333333333333332</ele><time>2026-04-16T11:02:37.905Z</time></trkpt><trkpt lat="53.37190308508905" lon="14.683506622633509"><ele>8.166666666666666</ele><time>2026-04-16T11:02:38.905Z</time></trkpt><trkpt lat="53.371978638962915" lon="14.683457298789413"><ele>8.0</ele><time>2026-04-16T11:02:39.905Z</time></trkpt><trkpt lat="53.37204706242059" lon="14.683392107293832"><ele>8.0</ele><time>2026-04-16T11:02:40.905Z</time></trkpt><trkpt lat="53.372142851316994" lon="14.683295936959789"><ele>8.0</ele><time>2026-04-16T11:02:41.905Z</time></trkpt><trkpt lat="53.372228598194916" lon="14.683217972464607"><ele>8.0</ele><time>2026-04-16T11:02:42.905Z</time></trkpt><trkpt lat="53.37231034224838" lon="14.683169245167033"><ele>8.0</ele><time>2026-04-16T11:02:43.905Z</time></trkpt><trkpt lat="53.37240421926659" lon="14.683132792810577"><ele>8.0</ele><time>2026-04-16T11:02:44.905Z</time></trkpt><trkpt lat="53.37246510281873" lon="14.683083203667444"><ele>8.0</ele><time>2026-04-16T11:02:45.905Z</time></trkpt><trkpt lat="53.37252067046312" lon="14.68302911145417"><ele>8.0</ele><time>2026-04-16T11:02:46.905Z</time></trkpt><trkpt lat="53.37263042912889" lon="14.682930788125796"><ele>8.0</ele><time>2026-04-16T11:02:48.905Z</time></trkpt><trkpt lat="53.37273124522778" lon="14.682760401595425"><ele>8.0</ele><time>2026-04-16T11:02:50.905Z</time></trkpt><trkpt lat="53.37278783375683" lon="14.682658518624988"><ele>8.0</ele><time>2026-04-16T11:02:51.905Z</time></trkpt><trkpt lat="53.37284809128259" lon="14.682578593374144"><ele>8.4</ele><time>2026-04-16T11:02:53.902Z</time></trkpt><trkpt lat="53.372906217249685" lon="14.682484271642565"><ele>8.8</ele><time>2026-04-16T11:02:57.902Z</time></trkpt><trkpt lat="53.37300244683764" lon="14.682317698649053"><ele>9.2</ele><time>2026-04-16T11:02:59.902Z</time></trkpt><trkpt lat="53.37306936645478" lon="14.68220224310726"><ele>9.6</ele><time>2026-04-16T11:03:00.902Z</time></trkpt><trkpt lat="53.37313783505866" lon="14.682065914583387"><ele>10.0</ele><time>2026-04-16T11:03:01.902Z</time></trkpt><trkpt lat="53.3732015082682" lon="14.681895594607706"><ele>10.75</ele><time>2026-04-16T11:03:02.902Z</time></trkpt><trkpt lat="53.37326088099241" lon="14.681736187832577"><ele>11.5</ele><time>2026-04-16T11:03:03.902Z</time></trkpt><trkpt lat="53.373328601446005" lon="14.681565244103977"><ele>12.25</ele><time>2026-04-16T11:03:04.902Z</time></trkpt><trkpt lat="53.373400061413896" lon="14.681402241900566"><ele>13.0</ele><time>2026-04-16T11:03:05.902Z</time></trkpt><trkpt lat="53.37347566582435" lon="14.681237522392541"><ele>13.25</ele><time>2026-04-16T11:03:06.902Z</time></trkpt><trkpt lat="53.37354609424403" lon="14.681063249690382"><ele>13.5</ele><time>2026-04-16T11:03:07.902Z</time></trkpt><trkpt lat="53.373611308210464" lon="14.680908454061742"><ele>13.75</ele><time>2026-04-16T11:03:08.902Z</time></trkpt><trkpt lat="53.373684261310025" lon="14.680754814273506"><ele>14.0</ele><time>2026-04-16T11:03:09.902Z</time></trkpt><trkpt lat="53.37375152395621" lon="14.68059162149988"><ele>14.0</ele><time>2026-04-16T11:03:10.902Z</time></trkpt><trkpt lat="53.37381735819476" lon="14.68042932095956"><ele>14.0</ele><time>2026-04-16T11:03:11.902Z</time></trkpt><trkpt lat="53.37388224177667" lon="14.68024955700406"><ele>14.0</ele><time>2026-04-16T11:03:12.903Z</time></trkpt><trkpt lat="53.37396083324954" lon="14.680079734422543"><ele>14.0</ele><time>2026-04-16T11:03:13.903Z</time></trkpt><trkpt lat="53.37403747959036" lon="14.679880022384078"><ele>14.0</ele><time>2026-04-16T11:03:14.903Z</time></trkpt><trkpt lat="53.37412015633086" lon="14.67971549915239"><ele>14.0</ele><time>2026-04-16T11:03:15.903Z</time></trkpt><trkpt lat="53.37419116408646" lon="14.679551900357623"><ele>14.0</ele><time>2026-04-16T11:03:16.903Z</time></trkpt><trkpt lat="53.374252557348385" lon="14.6793947068376"><ele>14.0</ele><time>2026-04-16T11:03:17.903Z</time></trkpt><trkpt lat="53.3743147746487" lon="14.679233739995805"><ele>14.0</ele><time>2026-04-16T11:03:18.903Z</time></trkpt><trkpt lat="53.37438021108064" lon="14.679077783365711"><ele>13.999999999999998</ele><time>2026-04-16T11:03:19.903Z</time></trkpt><trkpt lat="53.374444485424384" lon="14.6789290835384"><ele>13.999999999999998</ele><time>2026-04-16T11:03:20.903Z</time></trkpt><trkpt lat="53.37450580612797" lon="14.67877212512358"><ele>14.0</ele><time>2026-04-16T11:03:21.903Z</time></trkpt><trkpt lat="53.37457674691511" lon="14.6786327934323"><ele>14.0</ele><time>2026-04-16T11:03:22.903Z</time></trkpt><trkpt lat="53.374638678782766" lon="14.678461019836059"><ele>14.75</ele><time>2026-04-16T11:03:23.903Z</time></trkpt><trkpt lat="53.37470497452061" lon="14.678300781209558"><ele>15.5</ele><time>2026-04-16T11:03:24.903Z</time></trkpt><trkpt lat="53.374771410392334" lon="14.678124507246322"><ele>16.25</ele><time>2026-04-16T11:03:25.903Z</time></trkpt><trkpt lat="53.374850260131495" lon="14.677983621114107"><ele>17.0</ele><time>2026-04-16T11:03:26.903Z</time></trkpt><trkpt lat="53.37493609547096" lon="14.677841153468254"><ele>16.0</ele><time>2026-04-16T11:03:27.903Z</time></trkpt><trkpt lat="53.37501821417544" lon="14.67771841024499"><ele>15.0</ele><time>2026-04-16T11:03:28.903Z</time></trkpt><trkpt lat="53.37510191049525" lon="14.677578098025071"><ele>14.0</ele><time>2026-04-16T11:03:29.903Z</time></trkpt><trkpt lat="53.37519000294763" lon="14.677410955277853"><ele>13.0</ele><time>2026-04-16T11:03:30.903Z</time></trkpt><trkpt lat="53.375287459190716" lon="14.677232079623586"><ele>13.0</ele><time>2026-04-16T11:03:31.903Z</time></trkpt><trkpt lat="53.37538221337504" lon="14.677021192235083"><ele>13.0</ele><time>2026-04-16T11:03:32.903Z</time></trkpt><trkpt lat="53.37548613503729" lon="14.676793893098353"><ele>13.0</ele><time>2026-04-16T11:03:33.903Z</time></trkpt><trkpt lat="53.375588175253384" lon="14.676574677747631"><ele>13.0</ele><time>2026-04-16T11:03:34.903Z</time></trkpt><trkpt lat="53.37567963097354" lon="14.676374108255615"><ele>13.0</ele><time>2026-04-16T11:03:35.903Z</time></trkpt><trkpt lat="53.37576396842464" lon="14.676200025123132"><ele>13.0</ele><time>2026-04-16T11:03:36.903Z</time></trkpt><trkpt lat="53.375829240951894" lon="14.676033762219072"><ele>13.0</ele><time>2026-04-16T11:03:37.903Z</time></trkpt><trkpt lat="53.37589969436522" lon="14.67589262332262"><ele>13.0</ele><time>2026-04-16T11:03:38.903Z</time></trkpt><trkpt lat="53.37596707628401" lon="14.675760482950825"><ele>13.0</ele><time>2026-04-16T11:03:39.903Z</time></trkpt><trkpt lat="53.37602529235055" lon="14.675634875436067"><ele>13.0</ele><time>2026-04-16T11:03:40.903Z</time></trkpt><trkpt lat="53.376080542849344" lon="14.675521317733203"><ele>13.0</ele><time>2026-04-16T11:03:41.903Z</time></trkpt><trkpt lat="53.37613728672902" lon="14.675382377478888"><ele>13.0</ele><time>2026-04-16T11:03:42.903Z</time></trkpt><trkpt lat="53.37621781671258" lon="14.67528685379386"><ele>13.2</ele><time>2026-04-16T11:03:43.903Z</time></trkpt><trkpt lat="53.37628796285756" lon="14.675181717495567"><ele>13.4</ele><time>2026-04-16T11:03:44.903Z</time></trkpt><trkpt lat="53.376356435307585" lon="14.675085675980053"><ele>13.599999999999998</ele><time>2026-04-16T11:03:45.903Z</time></trkpt><trkpt lat="53.37640584744236" lon="14.675019422833074"><ele>13.799999999999999</ele><time>2026-04-16T11:03:46.903Z</time></trkpt><trkpt lat="53.37647465076751" lon="14.674928823615476"><ele>14.0</ele><time>2026-04-16T11:03:47.903Z</time></trkpt><trkpt lat="53.3765650483673" lon="14.674794357450558"><ele>14.0</ele><time>2026-04-16T11:03:48.903Z</time></trkpt><trkpt lat="53.37666617841925" lon="14.674596574946417"><ele>13.999999999999998</ele><time>2026-04-16T11:03:49.903Z</time></trkpt><trkpt lat="53.37670864037892" lon="14.674443341547711"><ele>13.999999999999998</ele><time>2026-04-16T11:03:50.903Z</time></trkpt><trkpt lat="53.37673806269271" lon="14.674328686766959"><ele>14.0</ele><time>2026-04-16T11:03:51.903Z</time></trkpt><trkpt lat="53.376763609491874" lon="14.674229134186215"><ele>14.0</ele><time>2026-04-16T11:03:52.903Z</time></trkpt><trkpt lat="53.3768192832695" lon="14.67405091846185"><ele>13.0</ele><time>2026-04-16T11:03:55.903Z</time></trkpt><trkpt lat="53.3766254940407" lon="14.673647430014528"><ele>12.0</ele><time>2026-04-16T11:03:56.903Z</time></trkpt><trkpt lat="53.37657677033545" lon="14.673555757047083"><ele>11.0</ele><time>2026-04-16T11:03:57.903Z</time></trkpt><trkpt lat="53.37651647335842" lon="14.673441444364332"><ele>11.0</ele><time>2026-04-16T11:03:58.903Z</time></trkpt><trkpt lat="53.37645481574486" lon="14.673324551608076"><ele>11.0</ele><time>2026-04-16T11:03:59.903Z</time></trkpt><trkpt lat="53.37638564340923" lon="14.673192684571074"><ele>11.0</ele><time>2026-04-16T11:04:00.903Z</time></trkpt><trkpt lat="53.37630228644678" lon="14.673031239369383"><ele>11.0</ele><time>2026-04-16T11:04:01.904Z</time></trkpt><trkpt lat="53.37624031033567" lon="14.67291079865849"><ele>11.0</ele><time>2026-04-16T11:04:02.904Z</time></trkpt><trkpt lat="53.37618285071814" lon="14.672799135187699"><ele>10.666666666666666</ele><time>2026-04-16T11:04:03.904Z</time></trkpt><trkpt lat="53.37612098050721" lon="14.672678499420261"><ele>10.333333333333332</ele><time>2026-04-16T11:04:04.904Z</time></trkpt><trkpt lat="53.376057349541256" lon="14.672554401293906"><ele>10.0</ele><time>2026-04-16T11:04:05.904Z</time></trkpt><trkpt lat="53.376000657323075" lon="14.672443854598983"><ele>9.666666666666666</ele><time>2026-04-16T11:04:06.904Z</time></trkpt><trkpt lat="53.37595656793142" lon="14.672357915836681"><ele>9.333333333333334</ele><time>2026-04-16T11:04:07.904Z</time></trkpt><trkpt lat="53.375908658639695" lon="14.672264872157045"><ele>9.0</ele><time>2026-04-16T11:04:08.904Z</time></trkpt><trkpt lat="53.3758618680859" lon="14.672175345980511"><ele>9.0</ele><time>2026-04-16T11:04:09.904Z</time></trkpt><trkpt lat="53.37579796221542" lon="14.672053776342194"><ele>9.0</ele><time>2026-04-16T11:04:11.904Z</time></trkpt><trkpt lat="53.37571955870552" lon="14.671904627336607"><ele>9.0</ele><time>2026-04-16T11:04:13.904Z</time></trkpt><trkpt lat="53.375628753126236" lon="14.671725145179142"><ele>9.0</ele><time>2026-04-16T11:04:15.904Z</time></trkpt><trkpt lat="53.37558475087458" lon="14.671613461561867"><ele>9.0</ele><time>2026-04-16T11:04:16.904Z</time></trkpt><trkpt lat="53.37554532665333" lon="14.671494466312245"><ele>9.571428571428573</ele><time>2026-04-16T11:04:17.904Z</time></trkpt><trkpt lat="53.375518998595915" lon="14.671384706188565"><ele>10.142857142857142</ele><time>2026-04-16T11:04:18.904Z</time></trkpt><trkpt lat="53.37549112651796" lon="14.671234018095182"><ele>10.714285714285715</ele><time>2026-04-16T11:04:20.904Z</time></trkpt><trkpt lat="53.37547879924779" lon="14.671115229190171"><ele>11.285714285714286</ele><time>2026-04-16T11:04:24.904Z</time></trkpt><trkpt lat="53.375471188997" lon="14.671000790836363"><ele>11.857142857142858</ele><time>2026-04-16T11:04:26.904Z</time></trkpt><trkpt lat="53.37547268765479" lon="14.67088782323475"><ele>12.428571428571429</ele><time>2026-04-16T11:04:28.904Z</time></trkpt><trkpt lat="53.37547765116277" lon="14.67076773680583"><ele>13.0</ele><time>2026-04-16T11:04:34.904Z</time></trkpt><trkpt lat="53.37549459323216" lon="14.670664247808896"><ele>13.5</ele><time>2026-04-16T11:04:35.904Z</time></trkpt><trkpt lat="53.375499922848775" lon="14.670493811171102"><ele>14.0</ele><time>2026-04-16T11:04:36.904Z</time></trkpt><trkpt lat="53.37549524622822" lon="14.670291445546571"><ele>14.5</ele><time>2026-04-16T11:04:37.904Z</time></trkpt><trkpt lat="53.37549895195036" lon="14.670047442730286"><ele>15.0</ele><time>2026-04-16T11:04:38.904Z</time></trkpt><trkpt lat="53.37549969965845" lon="14.669810676886526"><ele>15.0</ele><time>2026-04-16T11:04:39.904Z</time></trkpt><trkpt lat="53.37549993682178" lon="14.669609466369659"><ele>15.0</ele><time>2026-04-16T11:04:40.904Z</time></trkpt><trkpt lat="53.375502108891624" lon="14.669433765706534"><ele>15.0</ele><time>2026-04-16T11:04:41.904Z</time></trkpt><trkpt lat="53.37550221472372" lon="14.669277538904506"><ele>15.0</ele><time>2026-04-16T11:04:42.904Z</time></trkpt><trkpt lat="53.37550132100947" lon="14.669129094814016"><ele>15.0</ele><time>2026-04-16T11:04:43.904Z</time></trkpt><trkpt lat="53.37552042067109" lon="14.668970223209074"><ele>15.0</ele><time>2026-04-16T11:04:44.904Z</time></trkpt><trkpt lat="53.37552406335254" lon="14.668805809205452"><ele>15.0</ele><time>2026-04-16T11:04:45.904Z</time></trkpt><trkpt lat="53.3755272565166" lon="14.66866168872457"><ele>15.0</ele><time>2026-04-16T11:04:46.904Z</time></trkpt><trkpt lat="53.3755301319857" lon="14.66853575816038"><ele>15.0</ele><time>2026-04-16T11:04:47.904Z</time></trkpt><trkpt lat="53.37553252173721" lon="14.668429981548378"><ele>15.0</ele><time>2026-04-16T11:04:48.904Z</time></trkpt><trkpt lat="53.37553663008848" lon="14.668249665239623"><ele>15.0</ele><time>2026-04-16T11:04:50.905Z</time></trkpt><trkpt lat="53.375540227798695" lon="14.668092306215406"><ele>15.166666666666666</ele><time>2026-04-16T11:04:52.905Z</time></trkpt><trkpt lat="53.375520840662844" lon="14.667949604999174"><ele>15.333333333333332</ele><time>2026-04-16T11:04:54.905Z</time></trkpt><trkpt lat="53.37551297247006" lon="14.667815880593173"><ele>15.5</ele><time>2026-04-16T11:04:56.905Z</time></trkpt><trkpt lat="53.37546267666814" lon="14.667748863009148"><ele>15.666666666666666</ele><time>2026-04-16T11:04:57.905Z</time></trkpt><trkpt lat="53.37537988886685" lon="14.66771502177723"><ele>15.833333333333332</ele><time>2026-04-16T11:04:58.901Z</time></trkpt><trkpt lat="53.37525452533253" lon="14.66770339422666"><ele>16.0</ele><time>2026-04-16T11:04:59.901Z</time></trkpt><trkpt lat="53.375124515358365" lon="14.667719002900142"><ele>16.2</ele><time>2026-04-16T11:05:00.901Z</time></trkpt><trkpt lat="53.375028517874185" lon="14.667719755133257"><ele>16.400000000000002</ele><time>2026-04-16T11:05:01.901Z</time></trkpt><trkpt lat="53.37496217622713" lon="14.667722355508342"><ele>16.6</ele><time>2026-04-16T11:05:02.901Z</time></trkpt><trkpt lat="53.37491242045201" lon="14.667896249312424"><ele>16.8</ele><time>2026-04-16T11:05:05.901Z</time></trkpt><trkpt lat="53.37490399271155" lon="14.668053347004452"><ele>17.0</ele><time>2026-04-16T11:05:06.901Z</time></trkpt><trkpt lat="53.374887684592274" lon="14.668250529450106"><ele>17.0</ele><time>2026-04-16T11:05:07.901Z</time></trkpt><trkpt lat="53.37487041260175" lon="14.66844919688404"><ele>17.0</ele><time>2026-04-16T11:05:08.901Z</time></trkpt><trkpt lat="53.37485111478637" lon="14.668633721685753"><ele>17.0</ele><time>2026-04-16T11:05:09.901Z</time></trkpt><trkpt lat="53.37483139603347" lon="14.66879899318339"><ele>17.0</ele><time>2026-04-16T11:05:10.901Z</time></trkpt><trkpt lat="53.37482189648401" lon="14.668937227027707"><ele>17.0</ele><time>2026-04-16T11:05:11.901Z</time></trkpt><trkpt lat="53.374810029513256" lon="14.669060978779536"><ele>16.833333333333336</ele><time>2026-04-16T11:05:12.901Z</time></trkpt><trkpt lat="53.37478996686996" lon="14.669170578218484"><ele>16.666666666666668</ele><time>2026-04-16T11:05:13.901Z</time></trkpt><trkpt lat="53.37475654843808" lon="14.669331181673984"><ele>16.5</ele><time>2026-04-16T11:05:15.901Z</time></trkpt><trkpt lat="53.3747390728196" lon="14.669457406575034"><ele>16.333333333333332</ele><time>2026-04-16T11:05:18.901Z</time></trkpt><trkpt lat="53.37481491808638" lon="14.669468280454215"><ele>16.166666666666664</ele><time>2026-04-16T11:05:21.901Z</time></trkpt><trkpt lat="53.37480806777426" lon="14.669327021632439"><ele>16.0</ele><time>2026-04-16T11:05:23.902Z</time></trkpt><trkpt lat="53.37480348974325" lon="14.669170616637937"><ele>16.0</ele><time>2026-04-16T11:05:24.902Z</time></trkpt><trkpt lat="53.3748162575522" lon="14.669023299042582"><ele>16.0</ele><time>2026-04-16T11:05:25.902Z</time></trkpt><trkpt lat="53.3748221112343" lon="14.668891245026416"><ele>16.0</ele><time>2026-04-16T11:05:26.902Z</time></trkpt><trkpt lat="53.37483488594507" lon="14.668713853838849"><ele>16.0</ele><time>2026-04-16T11:05:27.902Z</time></trkpt><trkpt lat="53.37485470524189" lon="14.66849655475271"><ele>16.0</ele><time>2026-04-16T11:05:28.902Z</time></trkpt><trkpt lat="53.37488684246144" lon="14.668293561613444"><ele>16.2</ele><time>2026-04-16T11:05:29.902Z</time></trkpt><trkpt lat="53.3749071778793" lon="14.668134037221545"><ele>16.400000000000002</ele><time>2026-04-16T11:05:30.902Z</time></trkpt><trkpt lat="53.37492074923313" lon="14.667988588381894"><ele>16.6</ele><time>2026-04-16T11:05:31.902Z</time></trkpt><trkpt lat="53.37492770470829" lon="14.667867985605241"><ele>16.8</ele><time>2026-04-16T11:05:32.902Z</time></trkpt><trkpt lat="53.374935152002784" lon="14.667743184727936"><ele>17.0</ele><time>2026-04-16T11:05:34.902Z</time></trkpt><trkpt lat="53.374795455160466" lon="14.667630845174536"><ele>17.5</ele><time>2026-04-16T11:05:38.902Z</time></trkpt><trkpt lat="53.374677947340786" lon="14.667622183922221"><ele>18.0</ele><time>2026-04-16T11:05:39.902Z</time></trkpt><trkpt lat="53.37454907629218" lon="14.667631503319045"><ele>18.5</ele><time>2026-04-16T11:05:40.902Z</time></trkpt><trkpt lat="53.374404840735195" lon="14.667616566029011"><ele>19.0</ele><time>2026-04-16T11:05:41.902Z</time></trkpt><trkpt lat="53.37424806663436" lon="14.667588544984895"><ele>19.0</ele><time>2026-04-16T11:05:42.902Z</time></trkpt><trkpt lat="53.37408571743563" lon="14.667561632035198"><ele>19.0</ele><time>2026-04-16T11:05:43.902Z</time></trkpt><trkpt lat="53.37392820023119" lon="14.667539049940375"><ele>19.0</ele><time>2026-04-16T11:05:44.902Z</time></trkpt><trkpt lat="53.37381177911798" lon="14.667519087221143"><ele>19.0</ele><time>2026-04-16T11:05:45.902Z</time></trkpt><trkpt lat="53.373735148689" lon="14.667505624924354"><ele>19.142857142857142</ele><time>2026-04-16T11:05:46.902Z</time></trkpt><trkpt lat="53.37366684942663" lon="14.667498874115054"><ele>19.28571428571429</ele><time>2026-04-16T11:05:47.902Z</time></trkpt><trkpt lat="53.3735981195423" lon="14.667495377439039"><ele>19.42857142857143</ele><time>2026-04-16T11:05:48.902Z</time></trkpt><trkpt lat="53.373529827260796" lon="14.667486015281474"><ele>19.57142857142857</ele><time>2026-04-16T11:05:49.902Z</time></trkpt><trkpt lat="53.3734593959063" lon="14.66743180589161"><ele>19.714285714285715</ele><time>2026-04-16T11:05:50.902Z</time></trkpt><trkpt lat="53.37338635291707" lon="14.667420840106804"><ele>19.857142857142858</ele><time>2026-04-16T11:05:51.902Z</time></trkpt><trkpt lat="53.373312601136774" lon="14.667431730172233"><ele>20.0</ele><time>2026-04-16T11:05:52.902Z</time></trkpt><trkpt lat="53.37324285570276" lon="14.66740335750304"><ele>20.0</ele><time>2026-04-16T11:05:53.902Z</time></trkpt><trkpt lat="53.37315490115849" lon="14.667396110057904"><ele>20.0</ele><time>2026-04-16T11:05:54.902Z</time></trkpt><trkpt lat="53.37303816891452" lon="14.667379690392364"><ele>20.0</ele><time>2026-04-16T11:05:55.902Z</time></trkpt><trkpt lat="53.37293417769498" lon="14.667351875435637"><ele>20.0</ele><time>2026-04-16T11:05:56.902Z</time></trkpt><trkpt lat="53.372862088805306" lon="14.667301991606926"><ele>20.0</ele><time>2026-04-16T11:05:57.902Z</time></trkpt><trkpt lat="53.37285557543195" lon="14.667053850524251"><ele>20.0</ele><time>2026-04-16T11:05:59.902Z</time></trkpt><trkpt lat="53.37286628360549" lon="14.666846940428186"><ele>20.0</ele><time>2026-04-16T11:06:00.902Z</time></trkpt><trkpt lat="53.372927128383246" lon="14.666656026199377"><ele>20.0</ele><time>2026-04-16T11:06:01.902Z</time></trkpt><trkpt lat="53.373039839066266" lon="14.666506836088244"><ele>20.0</ele><time>2026-04-16T11:06:02.902Z</time></trkpt><trkpt lat="53.37315546067981" lon="14.666355606776545"><ele>20.0</ele><time>2026-04-16T11:06:03.902Z</time></trkpt><trkpt lat="53.37325179621136" lon="14.666234947599213"><ele>20.0</ele><time>2026-04-16T11:06:04.902Z</time></trkpt><trkpt lat="53.37333939567094" lon="14.666126118411347"><ele>20.0</ele><time>2026-04-16T11:06:05.902Z</time></trkpt><trkpt lat="53.373430981903496" lon="14.666009442943729"><ele>20.0</ele><time>2026-04-16T11:06:06.902Z</time></trkpt><trkpt lat="53.37352572738225" lon="14.665900847241986"><ele>20.0</ele><time>2026-04-16T11:06:07.902Z</time></trkpt><trkpt lat="53.37361289611385" lon="14.6657963995318"><ele>20.0</ele><time>2026-04-16T11:06:08.902Z</time></trkpt><trkpt lat="53.37369513338033" lon="14.66565844928852"><ele>20.0</ele><time>2026-04-16T11:06:09.902Z</time></trkpt><trkpt lat="53.37374090529244" lon="14.665493188274468"><ele>20.0</ele><time>2026-04-16T11:06:10.902Z</time></trkpt><trkpt lat="53.37375704313089" lon="14.665329366341323"><ele>20.0</ele><time>2026-04-16T11:06:11.903Z</time></trkpt><trkpt lat="53.37374590566876" lon="14.665170623332452"><ele>20.5</ele><time>2026-04-16T11:06:12.903Z</time></trkpt><trkpt lat="53.37375795162482" lon="14.665000612303032"><ele>21.0</ele><time>2026-04-16T11:06:13.903Z</time></trkpt><trkpt lat="53.37378802247765" lon="14.664814326275057"><ele>21.5</ele><time>2026-04-16T11:06:14.903Z</time></trkpt><trkpt lat="53.373806390133375" lon="14.664618015430644"><ele>22.0</ele><time>2026-04-16T11:06:15.903Z</time></trkpt><trkpt lat="53.37382014497254" lon="14.664425367477984"><ele>22.200000000000003</ele><time>2026-04-16T11:06:16.903Z</time></trkpt><trkpt lat="53.37383143222422" lon="14.664263764648068"><ele>22.4</ele><time>2026-04-16T11:06:17.903Z</time></trkpt><trkpt lat="53.37384668015589" lon="14.664104131796332"><ele>22.6</ele><time>2026-04-16T11:06:18.903Z</time></trkpt><trkpt lat="53.37386217396112" lon="14.663934644177811"><ele>22.799999999999997</ele><time>2026-04-16T11:06:19.903Z</time></trkpt><trkpt lat="53.37387638143118" lon="14.663779228051094"><ele>23.0</ele><time>2026-04-16T11:06:20.903Z</time></trkpt><trkpt lat="53.373889084167274" lon="14.663640271646852"><ele>22.833333333333336</ele><time>2026-04-16T11:06:21.903Z</time></trkpt><trkpt lat="53.37389957082886" lon="14.663527059700886"><ele>22.666666666666668</ele><time>2026-04-16T11:06:22.903Z</time></trkpt><trkpt lat="53.37391256636824" lon="14.663387978786078"><ele>22.5</ele><time>2026-04-16T11:06:24.903Z</time></trkpt><trkpt lat="53.37392494593605" lon="14.663255486412707"><ele>22.333333333333332</ele><time>2026-04-16T11:06:28.903Z</time></trkpt><trkpt lat="53.37385207524936" lon="14.66311415013705"><ele>22.166666666666664</ele><time>2026-04-16T11:06:29.903Z</time></trkpt><trkpt lat="53.37380170504513" lon="14.66298390094616"><ele>22.0</ele><time>2026-04-16T11:06:31.903Z</time></trkpt><trkpt lat="53.37375348438034" lon="14.662888384777764"><ele>21.6</ele><time>2026-04-16T11:06:33.903Z</time></trkpt><trkpt lat="53.37369460717992" lon="14.662757368506375"><ele>21.200000000000003</ele><time>2026-04-16T11:06:35.903Z</time></trkpt><trkpt lat="53.37361904970165" lon="14.662589137338264"><ele>20.8</ele><time>2026-04-16T11:06:37.903Z</time></trkpt><trkpt lat="53.37356498874509" lon="14.662468761533205"><ele>20.4</ele><time>2026-04-16T11:06:39.903Z</time></trkpt><trkpt lat="53.373482054746205" lon="14.662433430589909"><ele>20.0</ele><time>2026-04-16T11:06:40.903Z</time></trkpt><trkpt lat="53.37343536735598" lon="14.66230409189852"><ele>20.0</ele><time>2026-04-16T11:06:41.903Z</time></trkpt><trkpt lat="53.37338747097496" lon="14.662134597492928"><ele>20.0</ele><time>2026-04-16T11:06:42.903Z</time></trkpt><trkpt lat="53.37335160123362" lon="14.66193449708301"><ele>20.0</ele><time>2026-04-16T11:06:43.903Z</time></trkpt><trkpt lat="53.373363594658144" lon="14.661748574777267"><ele>20.0</ele><time>2026-04-16T11:06:44.903Z</time></trkpt><trkpt lat="53.37335374635292" lon="14.661586624133113"><ele>20.0</ele><time>2026-04-16T11:06:45.903Z</time></trkpt><trkpt lat="53.37335695573836" lon="14.661445590747363"><ele>19.833333333333336</ele><time>2026-04-16T11:06:46.903Z</time></trkpt><trkpt lat="53.373363358250515" lon="14.661315361868253"><ele>19.666666666666668</ele><time>2026-04-16T11:06:47.903Z</time></trkpt><trkpt lat="53.373361163339744" lon="14.661200094873275"><ele>19.5</ele><time>2026-04-16T11:06:48.903Z</time></trkpt><trkpt lat="53.373432866592616" lon="14.661059576786215"><ele>19.333333333333332</ele><time>2026-04-16T11:06:50.903Z</time></trkpt><trkpt lat="53.37338656058278" lon="14.660955565730358"><ele>19.166666666666664</ele><time>2026-04-16T11:06:51.903Z</time></trkpt><trkpt lat="53.37327397009865" lon="14.660948716630132"><ele>19.0</ele><time>2026-04-16T11:06:53.903Z</time></trkpt><trkpt lat="53.37320875850027" lon="14.660976931243853"><ele>19.0</ele><time>2026-04-16T11:06:54.903Z</time></trkpt><trkpt lat="53.373126559259205" lon="14.660970773486438"><ele>19.0</ele><time>2026-04-16T11:06:55.903Z</time></trkpt><trkpt lat="53.37305069883778" lon="14.660941702088305"><ele>19.0</ele><time>2026-04-16T11:06:56.903Z</time></trkpt><trkpt lat="53.37296607433177" lon="14.660900824739848"><ele>19.0</ele><time>2026-04-16T11:06:57.903Z</time></trkpt><trkpt lat="53.372869792834955" lon="14.660862226622987"><ele>19.0</ele><time>2026-04-16T11:06:58.903Z</time></trkpt><trkpt lat="53.372765443021834" lon="14.66081693420069"><ele>19.75</ele><time>2026-04-16T11:06:59.903Z</time></trkpt><trkpt lat="53.37265103870721" lon="14.660762828030906"><ele>20.5</ele><time>2026-04-16T11:07:00.904Z</time></trkpt><trkpt lat="53.37252906873382" lon="14.66070644821965"><ele>21.25</ele><time>2026-04-16T11:07:01.904Z</time></trkpt><trkpt lat="53.37239863098219" lon="14.660647122305154"><ele>22.0</ele><time>2026-04-16T11:07:02.904Z</time></trkpt><trkpt lat="53.37226607829463" lon="14.660587820903068"><ele>22.25</ele><time>2026-04-16T11:07:03.904Z</time></trkpt><trkpt lat="53.3721351534427" lon="14.660528176187588"><ele>22.5</ele><time>2026-04-16T11:07:04.9Z</time></trkpt><trkpt lat="53.37201117058684" lon="14.660464770666215"><ele>22.75</ele><time>2026-04-16T11:07:05.9Z</time></trkpt><trkpt lat="53.37188815111922" lon="14.660399410374263"><ele>23.0</ele><time>2026-04-16T11:07:06.9Z</time></trkpt><trkpt lat="53.37176254711068" lon="14.660334965995423"><ele>23.0</ele><time>2026-04-16T11:07:07.899Z</time></trkpt><trkpt lat="53.3716390867404" lon="14.66028070938277"><ele>23.0</ele><time>2026-04-16T11:07:08.9Z</time></trkpt><trkpt lat="53.371512466989394" lon="14.660234483282569"><ele>23.0</ele><time>2026-04-16T11:07:09.9Z</time></trkpt><trkpt lat="53.371389313364475" lon="14.660192329290476"><ele>23.0</ele><time>2026-04-16T11:07:10.899Z</time></trkpt><trkpt lat="53.37126472071657" lon="14.66015332984177"><ele>23.166666666666668</ele><time>2026-04-16T11:07:11.899Z</time></trkpt><trkpt lat="53.37114874662313" lon="14.660115716874577"><ele>23.333333333333336</ele><time>2026-04-16T11:07:12.899Z</time></trkpt><trkpt lat="53.37106272530063" lon="14.660083520568781"><ele>23.5</ele><time>2026-04-16T11:07:13.9Z</time></trkpt><trkpt lat="53.37099248479399" lon="14.660059443529459"><ele>23.666666666666668</ele><time>2026-04-16T11:07:14.899Z</time></trkpt><trkpt lat="53.370929074559776" lon="14.660033804904746"><ele>23.833333333333332</ele><time>2026-04-16T11:07:16.899Z</time></trkpt><trkpt lat="53.37084472289156" lon="14.660018685852638"><ele>24.0</ele><time>2026-04-16T11:07:20.899Z</time></trkpt><trkpt lat="53.37073737064073" lon="14.659974919860451"><ele>24.0</ele><time>2026-04-16T11:07:22.899Z</time></trkpt><trkpt lat="53.37063749008645" lon="14.659853026016563"><ele>24.0</ele><time>2026-04-16T11:07:24.899Z</time></trkpt><trkpt lat="53.37061267911643" lon="14.659741450046177"><ele>24.0</ele><time>2026-04-16T11:07:25.899Z</time></trkpt><trkpt lat="53.37057558832172" lon="14.659645349156353"><ele>24.0</ele><time>2026-04-16T11:07:26.899Z</time></trkpt><trkpt lat="53.37047105640803" lon="14.659534927717278"><ele>24.0</ele><time>2026-04-16T11:07:28.899Z</time></trkpt><trkpt lat="53.37041817461248" lon="14.659471578935417"><ele>24.4</ele><time>2026-04-16T11:07:29.899Z</time></trkpt><trkpt lat="53.37035689317755" lon="14.65924384520664"><ele>24.799999999999997</ele><time>2026-04-16T11:07:31.899Z</time></trkpt><trkpt lat="53.370349444418245" lon="14.659081495142424"><ele>25.200000000000003</ele><time>2026-04-16T11:07:32.899Z</time></trkpt><trkpt lat="53.370352083490076" lon="14.658918298010251"><ele>25.6</ele><time>2026-04-16T11:07:33.899Z</time></trkpt><trkpt lat="53.370354768315046" lon="14.658797266173318"><ele>26.0</ele><time>2026-04-16T11:07:34.899Z</time></trkpt><trkpt lat="53.37038560911866" lon="14.658609907716214"><ele>25.499999999999996</ele><time>2026-04-16T11:07:36.899Z</time></trkpt><trkpt lat="53.37041511741016" lon="14.658505935147542"><ele>25.0</ele><time>2026-04-16T11:07:37.9Z</time></trkpt><trkpt lat="53.370443202786824" lon="14.658386438873057"><ele>24.5</ele><time>2026-04-16T11:07:38.9Z</time></trkpt><trkpt lat="53.370474094692774" lon="14.65825151624709"><ele>24.0</ele><time>2026-04-16T11:07:39.9Z</time></trkpt><trkpt lat="53.37051054998827" lon="14.658090949326553"><ele>23.5</ele><time>2026-04-16T11:07:40.9Z</time></trkpt><trkpt lat="53.37054790674038" lon="14.657914525291764"><ele>23.0</ele><time>2026-04-16T11:07:41.9Z</time></trkpt><trkpt lat="53.37058758251001" lon="14.657715107375996"><ele>23.0</ele><time>2026-04-16T11:07:42.9Z</time></trkpt><trkpt lat="53.370636484893424" lon="14.65748786486438"><ele>23.0</ele><time>2026-04-16T11:07:43.9Z</time></trkpt><trkpt lat="53.37069414258856" lon="14.657238793886417"><ele>23.0</ele><time>2026-04-16T11:07:44.9Z</time></trkpt><trkpt lat="53.37075569448822" lon="14.656986708083402"><ele>23.0</ele><time>2026-04-16T11:07:45.9Z</time></trkpt><trkpt lat="53.37081928835897" lon="14.656739551507572"><ele>23.0</ele><time>2026-04-16T11:07:46.9Z</time></trkpt><trkpt lat="53.3708897981936" lon="14.65649452711623"><ele>23.0</ele><time>2026-04-16T11:07:47.9Z</time></trkpt><trkpt lat="53.370954000425535" lon="14.65624627086165"><ele>23.666666666666668</ele><time>2026-04-16T11:07:48.9Z</time></trkpt><trkpt lat="53.37103883423615" lon="14.656028877605657"><ele>24.333333333333336</ele><time>2026-04-16T11:07:49.9Z</time></trkpt><trkpt lat="53.37109485828356" lon="14.655785878562426"><ele>25.0</ele><time>2026-04-16T11:07:50.9Z</time></trkpt><trkpt lat="53.37117488340019" lon="14.65556310040154"><ele>25.0</ele><time>2026-04-16T11:07:51.9Z</time></trkpt><trkpt lat="53.37125313525387" lon="14.655338543245808"><ele>25.0</ele><time>2026-04-16T11:07:52.9Z</time></trkpt><trkpt lat="53.371328550188956" lon="14.655118679426417"><ele>25.0</ele><time>2026-04-16T11:07:53.9Z</time></trkpt><trkpt lat="53.371410499090494" lon="14.654892973233448"><ele>23.333333333333336</ele><time>2026-04-16T11:07:54.9Z</time></trkpt><trkpt lat="53.37149224571004" lon="14.654671873773074"><ele>21.666666666666668</ele><time>2026-04-16T11:07:55.9Z</time></trkpt><trkpt lat="53.37157092568229" lon="14.654437453114932"><ele>20.0</ele><time>2026-04-16T11:07:56.9Z</time></trkpt><trkpt lat="53.37165536767726" lon="14.654201943558848"><ele>20.0</ele><time>2026-04-16T11:07:57.9Z</time></trkpt><trkpt lat="53.37173814039173" lon="14.653968636568006"><ele>20.0</ele><time>2026-04-16T11:07:58.9Z</time></trkpt><trkpt lat="53.37181482093762" lon="14.653744103588695"><ele>20.0</ele><time>2026-04-16T11:07:59.9Z</time></trkpt><trkpt lat="53.37189385564481" lon="14.653525293330821"><ele>20.333333333333336</ele><time>2026-04-16T11:08:00.9Z</time></trkpt><trkpt lat="53.371970431177346" lon="14.653303790624474"><ele>20.666666666666668</ele><time>2026-04-16T11:08:01.9Z</time></trkpt><trkpt lat="53.37204876506993" lon="14.653078445469461"><ele>21.0</ele><time>2026-04-16T11:08:02.9Z</time></trkpt><trkpt lat="53.37213881510455" lon="14.652865178186591"><ele>19.666666666666668</ele><time>2026-04-16T11:08:03.9Z</time></trkpt><trkpt lat="53.37221690440975" lon="14.652644201219353"><ele>18.333333333333336</ele><time>2026-04-16T11:08:04.9Z</time></trkpt><trkpt lat="53.37229455096494" lon="14.652420132977312"><ele>17.0</ele><time>2026-04-16T11:08:05.9Z</time></trkpt><trkpt lat="53.37238466728209" lon="14.652185294743564"><ele>17.0</ele><time>2026-04-16T11:08:06.9Z</time></trkpt><trkpt lat="53.3724580136156" lon="14.651961759416215"><ele>17.0</ele><time>2026-04-16T11:08:07.9Z</time></trkpt><trkpt lat="53.37253925395925" lon="14.651736316275933"><ele>17.0</ele><time>2026-04-16T11:08:08.9Z</time></trkpt><trkpt lat="53.3726168214162" lon="14.6515058701717"><ele>18.25</ele><time>2026-04-16T11:08:09.9Z</time></trkpt><trkpt lat="53.372696647629276" lon="14.651292301753767"><ele>19.5</ele><time>2026-04-16T11:08:10.9Z</time></trkpt><trkpt lat="53.37276294579262" lon="14.651074071412053"><ele>20.75</ele><time>2026-04-16T11:08:11.9Z</time></trkpt><trkpt lat="53.37283460193294" lon="14.650856211860605"><ele>22.0</ele><time>2026-04-16T11:08:12.9Z</time></trkpt><trkpt lat="53.37290561812813" lon="14.650639973131149"><ele>20.25</ele><time>2026-04-16T11:08:13.9Z</time></trkpt><trkpt lat="53.37297177185655" lon="14.650439382317995"><ele>18.5</ele><time>2026-04-16T11:08:14.9Z</time></trkpt><trkpt lat="53.37304035767244" lon="14.650253283726055"><ele>16.75</ele><time>2026-04-16T11:08:15.9Z</time></trkpt><trkpt lat="53.37311354424506" lon="14.650071761593086"><ele>15.0</ele><time>2026-04-16T11:08:16.9Z</time></trkpt><trkpt lat="53.37317181290617" lon="14.649894738738215"><ele>15.0</ele><time>2026-04-16T11:08:17.9Z</time></trkpt><trkpt lat="53.37322738336106" lon="14.649721669751564"><ele>15.0</ele><time>2026-04-16T11:08:18.9Z</time></trkpt><trkpt lat="53.373289030565594" lon="14.649540252346597"><ele>15.0</ele><time>2026-04-16T11:08:19.9Z</time></trkpt><trkpt lat="53.37335850921355" lon="14.649344748889233"><ele>15.0</ele><time>2026-04-16T11:08:20.9Z</time></trkpt><trkpt lat="53.373429971835044" lon="14.649132470476664"><ele>15.333333333333332</ele><time>2026-04-16T11:08:21.9Z</time></trkpt><trkpt lat="53.37350420931944" lon="14.648912836675544"><ele>15.666666666666666</ele><time>2026-04-16T11:08:22.9Z</time></trkpt><trkpt lat="53.37358563068845" lon="14.648680371287409"><ele>16.0</ele><time>2026-04-16T11:08:23.9Z</time></trkpt><trkpt lat="53.3736691695858" lon="14.648426398049391"><ele>16.666666666666664</ele><time>2026-04-16T11:08:24.9Z</time></trkpt><trkpt lat="53.37374724605338" lon="14.648173116873942"><ele>17.333333333333332</ele><time>2026-04-16T11:08:25.901Z</time></trkpt><trkpt lat="53.37381503526533" lon="14.647932163312042"><ele>18.0</ele><time>2026-04-16T11:08:26.901Z</time></trkpt><trkpt lat="53.37388626088263" lon="14.647697464381"><ele>16.333333333333332</ele><time>2026-04-16T11:08:27.901Z</time></trkpt><trkpt lat="53.37393947067686" lon="14.647455321039708"><ele>14.666666666666666</ele><time>2026-04-16T11:08:28.901Z</time></trkpt><trkpt lat="53.373983529918696" lon="14.64721686834215"><ele>13.0</ele><time>2026-04-16T11:08:29.901Z</time></trkpt><trkpt lat="53.37402757431561" lon="14.646977403076292"><ele>14.0</ele><time>2026-04-16T11:08:30.901Z</time></trkpt><trkpt lat="53.37406948440262" lon="14.646730055913112"><ele>15.0</ele><time>2026-04-16T11:08:31.901Z</time></trkpt><trkpt lat="53.37410936731401" lon="14.646477154103348"><ele>16.0</ele><time>2026-04-16T11:08:32.901Z</time></trkpt><trkpt lat="53.37415194584344" lon="14.646228446003752"><ele>16.5</ele><time>2026-04-16T11:08:33.901Z</time></trkpt><trkpt lat="53.37418733818031" lon="14.645995009907733"><ele>17.0</ele><time>2026-04-16T11:08:34.901Z</time></trkpt><trkpt lat="53.37421248310301" lon="14.645774145617462"><ele>17.5</ele><time>2026-04-16T11:08:35.901Z</time></trkpt><trkpt lat="53.37424850094622" lon="14.645584879147432"><ele>18.0</ele><time>2026-04-16T11:08:36.901Z</time></trkpt><trkpt lat="53.3742582581174" lon="14.645387296591789"><ele>17.6</ele><time>2026-04-16T11:08:37.901Z</time></trkpt><trkpt lat="53.37429549573885" lon="14.645214873236508"><ele>17.200000000000003</ele><time>2026-04-16T11:08:38.901Z</time></trkpt><trkpt lat="53.37431569383589" lon="14.645052980718246"><ele>16.8</ele><time>2026-04-16T11:08:39.901Z</time></trkpt><trkpt lat="53.37433338328452" lon="14.644911221021173"><ele>16.400000000000002</ele><time>2026-04-16T11:08:40.901Z</time></trkpt><trkpt lat="53.37434186439258" lon="14.644785488456902"><ele>16.0</ele><time>2026-04-16T11:08:41.901Z</time></trkpt><trkpt lat="53.37433198087018" lon="14.644640926657173"><ele>16.0</ele><time>2026-04-16T11:08:42.901Z</time></trkpt><trkpt lat="53.374351680369124" lon="14.644467902950915"><ele>16.0</ele><time>2026-04-16T11:08:43.901Z</time></trkpt><trkpt lat="53.374411288066185" lon="14.644257654470657"><ele>16.0</ele><time>2026-04-16T11:08:44.901Z</time></trkpt><trkpt lat="53.37449232398383" lon="14.644026593878001"><ele>16.0</ele><time>2026-04-16T11:08:45.901Z</time></trkpt><trkpt lat="53.374580234300815" lon="14.643785463440436"><ele>15.333333333333332</ele><time>2026-04-16T11:08:46.901Z</time></trkpt><trkpt lat="53.374666190685225" lon="14.643551341479284"><ele>14.666666666666668</ele><time>2026-04-16T11:08:47.901Z</time></trkpt><trkpt lat="53.37475875049831" lon="14.643312058018532"><ele>14.0</ele><time>2026-04-16T11:08:48.901Z</time></trkpt><trkpt lat="53.374832695033106" lon="14.643064296851835"><ele>14.0</ele><time>2026-04-16T11:08:49.901Z</time></trkpt><trkpt lat="53.3749332436578" lon="14.642858007391885"><ele>14.0</ele><time>2026-04-16T11:08:50.901Z</time></trkpt><trkpt lat="53.37501779390934" lon="14.642666230513068"><ele>14.0</ele><time>2026-04-16T11:08:51.901Z</time></trkpt><trkpt lat="53.37511540592487" lon="14.64250114595887"><ele>14.0</ele><time>2026-04-16T11:08:52.901Z</time></trkpt><trkpt lat="53.37521689460272" lon="14.642346952275695"><ele>14.0</ele><time>2026-04-16T11:08:53.901Z</time></trkpt><trkpt lat="53.37532684246011" lon="14.64219647630163"><ele>14.0</ele><time>2026-04-16T11:08:54.901Z</time></trkpt><trkpt lat="53.37543161793269" lon="14.642054486817864"><ele>14.0</ele><time>2026-04-16T11:08:55.901Z</time></trkpt><trkpt lat="53.37552867010584" lon="14.641923443066547"><ele>14.0</ele><time>2026-04-16T11:08:56.901Z</time></trkpt><trkpt lat="53.37562205987581" lon="14.641802811112484"><ele>14.0</ele><time>2026-04-16T11:08:57.901Z</time></trkpt><trkpt lat="53.37572462507675" lon="14.64167357691474"><ele>13.999999999999998</ele><time>2026-04-16T11:08:58.901Z</time></trkpt><trkpt lat="53.375816814445194" lon="14.641559342219912"><ele>13.999999999999998</ele><time>2026-04-16T11:08:59.901Z</time></trkpt><trkpt lat="53.375895218941636" lon="14.641462708166479"><ele>14.0</ele><time>2026-04-16T11:09:00.901Z</time></trkpt><trkpt lat="53.37595025076679" lon="14.641406366706354"><ele>14.0</ele><time>2026-04-16T11:09:01.901Z</time></trkpt><trkpt lat="53.37599525960315" lon="14.641313723600407"><ele>14.000000000000002</ele><time>2026-04-16T11:12:11.898Z</time></trkpt><trkpt lat="53.37607919966177" lon="14.641241593511076"><ele>14.0</ele><time>2026-04-16T11:12:13.898Z</time></trkpt><trkpt lat="53.376140446860425" lon="14.641169230073565"><ele>14.0</ele><time>2026-04-16T11:12:14.898Z</time></trkpt><trkpt lat="53.37620081340428" lon="14.641096194949148"><ele>14.0</ele><time>2026-04-16T11:12:15.898Z</time></trkpt><trkpt lat="53.37627227493087" lon="14.641021463368695"><ele>14.000000000000002</ele><time>2026-04-16T11:12:16.898Z</time></trkpt><trkpt lat="53.376365638215965" lon="14.640918363247588"><ele>14.0</ele><time>2026-04-16T11:12:17.898Z</time></trkpt><trkpt lat="53.376470655624665" lon="14.640784072785214"><ele>14.0</ele><time>2026-04-16T11:12:18.898Z</time></trkpt><trkpt lat="53.37658981050745" lon="14.640638017860764"><ele>14.0</ele><time>2026-04-16T11:12:19.898Z</time></trkpt><trkpt lat="53.3767093666244" lon="14.640487087526884"><ele>14.0</ele><time>2026-04-16T11:12:20.898Z</time></trkpt><trkpt lat="53.37682822954143" lon="14.64035219203635"><ele>14.0</ele><time>2026-04-16T11:12:21.898Z</time></trkpt><trkpt lat="53.37693524451481" lon="14.64022243656324"><ele>14.0</ele><time>2026-04-16T11:12:22.898Z</time></trkpt><trkpt lat="53.377038426326926" lon="14.64009341361981"><ele>14.0</ele><time>2026-04-16T11:12:23.898Z</time></trkpt><trkpt lat="53.37715104557859" lon="14.63995563480033"><ele>14.0</ele><time>2026-04-16T11:12:24.898Z</time></trkpt><trkpt lat="53.37729134911458" lon="14.639818996413185"><ele>14.0</ele><time>2026-04-16T11:12:25.898Z</time></trkpt><trkpt lat="53.37743351712584" lon="14.639704269541404"><ele>13.25</ele><time>2026-04-16T11:12:26.898Z</time></trkpt><trkpt lat="53.37756625220855" lon="14.639574614032941"><ele>12.5</ele><time>2026-04-16T11:12:27.898Z</time></trkpt><trkpt lat="53.37768142652757" lon="14.639426211603531"><ele>11.75</ele><time>2026-04-16T11:12:28.898Z</time></trkpt><trkpt lat="53.377799866354266" lon="14.639270861707557"><ele>11.0</ele><time>2026-04-16T11:12:29.898Z</time></trkpt><trkpt lat="53.377920245621226" lon="14.639104337968883"><ele>10.25</ele><time>2026-04-16T11:12:30.898Z</time></trkpt><trkpt lat="53.37803067727204" lon="14.638940855901259"><ele>9.5</ele><time>2026-04-16T11:12:31.898Z</time></trkpt><trkpt lat="53.37812574923197" lon="14.638790595415388"><ele>8.75</ele><time>2026-04-16T11:12:32.898Z</time></trkpt><trkpt lat="53.37820599928908" lon="14.638645769031701"><ele>8.0</ele><time>2026-04-16T11:12:33.898Z</time></trkpt><trkpt lat="53.37827890353758" lon="14.638506052193906"><ele>8.0</ele><time>2026-04-16T11:12:34.898Z</time></trkpt><trkpt lat="53.37835495622096" lon="14.63838463038239"><ele>8.0</ele><time>2026-04-16T11:12:35.898Z</time></trkpt><trkpt lat="53.37841486141309" lon="14.638257478512"><ele>8.0</ele><time>2026-04-16T11:12:36.898Z</time></trkpt><trkpt lat="53.37847865481903" lon="14.638136956222816"><ele>8.0</ele><time>2026-04-16T11:12:37.898Z</time></trkpt><trkpt lat="53.37853889484524" lon="14.638006484893934"><ele>8.0</ele><time>2026-04-16T11:12:38.898Z</time></trkpt><trkpt lat="53.37859030213286" lon="14.637893433485232"><ele>7.999999999999999</ele><time>2026-04-16T11:12:39.898Z</time></trkpt><trkpt lat="53.378630069588695" lon="14.63778177319368"><ele>8.0</ele><time>2026-04-16T11:12:40.899Z</time></trkpt><trkpt lat="53.37866026738274" lon="14.637672279592943"><ele>8.0</ele><time>2026-04-16T11:12:41.899Z</time></trkpt><trkpt lat="53.37870072564095" lon="14.637568607406136"><ele>8.0</ele><time>2026-04-16T11:12:42.899Z</time></trkpt><trkpt lat="53.378748640817584" lon="14.637469016611957"><ele>7.999999999999999</ele><time>2026-04-16T11:12:43.899Z</time></trkpt><trkpt lat="53.37879737643164" lon="14.63737503497803"><ele>8.0</ele><time>2026-04-16T11:12:44.899Z</time></trkpt><trkpt lat="53.37885956320293" lon="14.637277069559977"><ele>8.0</ele><time>2026-04-16T11:12:45.899Z</time></trkpt><trkpt lat="53.378934841667224" lon="14.637156702189072"><ele>8.0</ele><time>2026-04-16T11:12:46.899Z</time></trkpt><trkpt lat="53.379014512189656" lon="14.637039896268563"><ele>8.0</ele><time>2026-04-16T11:12:47.899Z</time></trkpt><trkpt lat="53.37907857186872" lon="14.636932065808677"><ele>8.0</ele><time>2026-04-16T11:12:48.899Z</time></trkpt><trkpt lat="53.379131720093746" lon="14.63682735196228"><ele>8.0</ele><time>2026-04-16T11:12:49.899Z</time></trkpt><trkpt lat="53.37922190007474" lon="14.63667971474423"><ele>7.999999999999999</ele><time>2026-04-16T11:12:51.899Z</time></trkpt><trkpt lat="53.37927067949895" lon="14.636598804309127"><ele>8.0</ele><time>2026-04-16T11:12:52.899Z</time></trkpt><trkpt lat="53.37933124403913" lon="14.636538964468624"><ele>8.0</ele><time>2026-04-16T11:12:53.899Z</time></trkpt><trkpt lat="53.37940012258488" lon="14.636430070269613"><ele>8.0</ele><time>2026-04-16T11:12:55.899Z</time></trkpt><trkpt lat="53.37945266184072" lon="14.636346965650626"><ele>7.999999999999999</ele><time>2026-04-16T11:13:04.899Z</time></trkpt><trkpt lat="53.37952280346012" lon="14.636236014392217"><ele>8.0</ele><time>2026-04-16T11:13:07.899Z</time></trkpt><trkpt lat="53.37957428899276" lon="14.636129743309523"><ele>8.166666666666666</ele><time>2026-04-16T11:13:09.899Z</time></trkpt><trkpt lat="53.37963636259614" lon="14.636056385919902"><ele>8.333333333333332</ele><time>2026-04-16T11:13:11.899Z</time></trkpt><trkpt lat="53.379521556128424" lon="14.635892490347228"><ele>8.5</ele><time>2026-04-16T11:13:13.899Z</time></trkpt><trkpt lat="53.37946150744183" lon="14.63581162478347"><ele>8.666666666666666</ele><time>2026-04-16T11:13:14.899Z</time></trkpt><trkpt lat="53.37941438587924" lon="14.635730457352778"><ele>8.833333333333334</ele><time>2026-04-16T11:13:15.899Z</time></trkpt><trkpt lat="53.37936582964658" lon="14.635650463716052"><ele>9.0</ele><time>2026-04-16T11:13:16.899Z</time></trkpt><trkpt lat="53.37930523566825" lon="14.635557887288224"><ele>9.0</ele><time>2026-04-16T11:13:17.899Z</time></trkpt><trkpt lat="53.379229295075206" lon="14.635428724505863"><ele>9.0</ele><time>2026-04-16T11:13:18.899Z</time></trkpt><trkpt lat="53.37915554127553" lon="14.635253483846252"><ele>9.0</ele><time>2026-04-16T11:13:19.899Z</time></trkpt><trkpt lat="53.37913578972862" lon="14.6350427809166"><ele>9.0</ele><time>2026-04-16T11:13:20.899Z</time></trkpt><trkpt lat="53.3791270304461" lon="14.634831191217751"><ele>9.333333333333334</ele><time>2026-04-16T11:13:21.899Z</time></trkpt><trkpt lat="53.37912071227138" lon="14.634598021436096"><ele>9.666666666666668</ele><time>2026-04-16T11:13:22.897Z</time></trkpt><trkpt lat="53.37913269864277" lon="14.634327546968857"><ele>10.0</ele><time>2026-04-16T11:13:23.897Z</time></trkpt><trkpt lat="53.37916235761688" lon="14.634053742153933"><ele>9.333333333333334</ele><time>2026-04-16T11:13:24.897Z</time></trkpt><trkpt lat="53.379182975339845" lon="14.633774316302928"><ele>8.666666666666666</ele><time>2026-04-16T11:13:25.896Z</time></trkpt><trkpt lat="53.379201765650485" lon="14.633483064247793"><ele>8.0</ele><time>2026-04-16T11:13:26.896Z</time></trkpt><trkpt lat="53.37921964726569" lon="14.633184004742542"><ele>8.0</ele><time>2026-04-16T11:13:27.896Z</time></trkpt><trkpt lat="53.37923637221436" lon="14.632892053534379"><ele>8.0</ele><time>2026-04-16T11:13:28.896Z</time></trkpt><trkpt lat="53.37925504371406" lon="14.632608951871202"><ele>8.0</ele><time>2026-04-16T11:13:29.896Z</time></trkpt><trkpt lat="53.37927145454646" lon="14.632343366825088"><ele>7.666666666666666</ele><time>2026-04-16T11:13:30.896Z</time></trkpt><trkpt lat="53.37929954880456" lon="14.632087636478325"><ele>7.333333333333334</ele><time>2026-04-16T11:13:31.897Z</time></trkpt><trkpt lat="53.379314294751936" lon="14.631822567751978"><ele>7.0</ele><time>2026-04-16T11:13:32.896Z</time></trkpt><trkpt lat="53.37932919750546" lon="14.631554680455181"><ele>7.0</ele><time>2026-04-16T11:13:33.896Z</time></trkpt><trkpt lat="53.3793444408513" lon="14.631278797870666"><ele>7.0</ele><time>2026-04-16T11:13:34.897Z</time></trkpt><trkpt lat="53.379358755456465" lon="14.631002780398676"><ele>7.0</ele><time>2026-04-16T11:13:35.896Z</time></trkpt><trkpt lat="53.3793716367429" lon="14.630724834781635"><ele>6.0</ele><time>2026-04-16T11:13:36.896Z</time></trkpt><trkpt lat="53.37938381678392" lon="14.63044729710271"><ele>5.0</ele><time>2026-04-16T11:13:37.896Z</time></trkpt><trkpt lat="53.37939752203021" lon="14.63016684950199"><ele>4.0</ele><time>2026-04-16T11:13:38.896Z</time></trkpt><trkpt lat="53.37940657992332" lon="14.629903309742275"><ele>3.75</ele><time>2026-04-16T11:13:39.896Z</time></trkpt><trkpt lat="53.37942217943806" lon="14.629654986702482"><ele>3.5</ele><time>2026-04-16T11:13:40.896Z</time></trkpt><trkpt lat="53.37943382503491" lon="14.629420921321977"><ele>3.25</ele><time>2026-04-16T11:13:41.896Z</time></trkpt><trkpt lat="53.37944295105277" lon="14.629205800458774"><ele>3.0</ele><time>2026-04-16T11:13:42.896Z</time></trkpt><trkpt lat="53.37945436702848" lon="14.629004227928386"><ele>3.0</ele><time>2026-04-16T11:13:43.896Z</time></trkpt><trkpt lat="53.379459219211356" lon="14.62881455657289"><ele>3.0</ele><time>2026-04-16T11:13:44.896Z</time></trkpt><trkpt lat="53.379463325532726" lon="14.628639061220381"><ele>3.0</ele><time>2026-04-16T11:13:45.896Z</time></trkpt><trkpt lat="53.379468473311604" lon="14.628487231595708"><ele>3.0</ele><time>2026-04-16T11:13:46.896Z</time></trkpt><trkpt lat="53.37947074364922" lon="14.628370994740754"><ele>3.0</ele><time>2026-04-16T11:13:47.897Z</time></trkpt><trkpt lat="53.3794811035104" lon="14.628204897430287"><ele>2.9999999999999996</ele><time>2026-04-16T11:13:49.897Z</time></trkpt><trkpt lat="53.379497230943315" lon="14.628084218583403"><ele>3.0</ele><time>2026-04-16T11:13:52.897Z</time></trkpt><trkpt lat="53.379520430838" lon="14.627984305581997"><ele>3.0</ele><time>2026-04-16T11:13:55.897Z</time></trkpt><trkpt lat="53.37955722595729" lon="14.627871567499236"><ele>3.0</ele><time>2026-04-16T11:13:59.897Z</time></trkpt><trkpt lat="53.37956490430492" lon="14.627760581235549"><ele>3.0</ele><time>2026-04-16T11:14:39.898Z</time></trkpt><trkpt lat="53.37960780638636" lon="14.627681576844726"><ele>2.9999999999999996</ele><time>2026-04-16T11:14:42.898Z</time></trkpt><trkpt lat="53.37964814356702" lon="14.627599594718536"><ele>3.0</ele><time>2026-04-16T11:14:46.898Z</time></trkpt><trkpt lat="53.379725895490935" lon="14.6275081882323"><ele>3.0</ele><time>2026-04-16T11:15:06.898Z</time></trkpt><trkpt lat="53.37978305115049" lon="14.627449367954693"><ele>3.0</ele><time>2026-04-16T11:15:08.898Z</time></trkpt><trkpt lat="53.37970682828807" lon="14.627284891304642"><ele>3.0</ele><time>2026-04-16T11:15:09.898Z</time></trkpt><trkpt lat="53.37965861548763" lon="14.62719657949605"><ele>3.0</ele><time>2026-04-16T11:15:10.898Z</time></trkpt><trkpt lat="53.379606211126486" lon="14.627100828798792"><ele>3.0</ele><time>2026-04-16T11:15:11.898Z</time></trkpt><trkpt lat="53.37955014585813" lon="14.626999755627716"><ele>3.0</ele><time>2026-04-16T11:15:12.898Z</time></trkpt><trkpt lat="53.37949362151197" lon="14.626897854861697"><ele>2.8333333333333335</ele><time>2026-04-16T11:15:13.898Z</time></trkpt><trkpt lat="53.37943482333392" lon="14.626800765350055"><ele>2.6666666666666665</ele><time>2026-04-16T11:15:14.898Z</time></trkpt><trkpt lat="53.379367014327336" lon="14.626723767390716"><ele>2.5</ele><time>2026-04-16T11:15:15.898Z</time></trkpt><trkpt lat="53.3793250411752" lon="14.626637238898414"><ele>2.333333333333333</ele><time>2026-04-16T11:15:16.898Z</time></trkpt><trkpt lat="53.379301878868525" lon="14.626535197029334"><ele>2.1666666666666665</ele><time>2026-04-16T11:15:17.898Z</time></trkpt><trkpt lat="53.37926493597979" lon="14.62643011747009"><ele>2.0</ele><time>2026-04-16T11:15:18.898Z</time></trkpt><trkpt lat="53.37922349345966" lon="14.626291126758746"><ele>2.0</ele><time>2026-04-16T11:15:19.898Z</time></trkpt><trkpt lat="53.37918058755198" lon="14.62613702119143"><ele>2.0</ele><time>2026-04-16T11:15:20.898Z</time></trkpt><trkpt lat="53.379139602086916" lon="14.625983847337695"><ele>2.0</ele><time>2026-04-16T11:15:21.898Z</time></trkpt><trkpt lat="53.37909724204643" lon="14.625823295891523"><ele>2.0</ele><time>2026-04-16T11:15:22.899Z</time></trkpt><trkpt lat="53.37905405084011" lon="14.625658447288487"><ele>2.0</ele><time>2026-04-16T11:15:23.899Z</time></trkpt><trkpt lat="53.37901118160431" lon="14.625493759644163"><ele>2.0</ele><time>2026-04-16T11:15:24.899Z</time></trkpt><trkpt lat="53.37896746835694" lon="14.625326192138862"><ele>2.0</ele><time>2026-04-16T11:15:25.899Z</time></trkpt><trkpt lat="53.378921404417625" lon="14.625152395460335"><ele>2.0</ele><time>2026-04-16T11:15:26.899Z</time></trkpt><trkpt lat="53.37886980829153" lon="14.6249766003034"><ele>2.0</ele><time>2026-04-16T11:15:27.899Z</time></trkpt><trkpt lat="53.378814006509344" lon="14.624779268924652"><ele>2.25</ele><time>2026-04-16T11:15:28.895Z</time></trkpt><trkpt lat="53.37875653187056" lon="14.624563861251037"><ele>2.5</ele><time>2026-04-16T11:15:29.896Z</time></trkpt><trkpt lat="53.37869565841777" lon="14.624338494676284"><ele>2.75</ele><time>2026-04-16T11:15:30.896Z</time></trkpt><trkpt lat="53.37863167155516" lon="14.624105730158488"><ele>3.0</ele><time>2026-04-16T11:15:31.896Z</time></trkpt><trkpt lat="53.37856864855768" lon="14.623877733194094"><ele>2.6666666666666665</ele><time>2026-04-16T11:15:32.895Z</time></trkpt><trkpt lat="53.37850713429628" lon="14.623646955508585"><ele>2.333333333333333</ele><time>2026-04-16T11:15:33.895Z</time></trkpt><trkpt lat="53.37844348749384" lon="14.623416472969279"><ele>2.0</ele><time>2026-04-16T11:15:34.896Z</time></trkpt><trkpt lat="53.378382422761476" lon="14.62318275378466"><ele>2.0</ele><time>2026-04-16T11:15:35.895Z</time></trkpt><trkpt lat="53.37831774223149" lon="14.622947414158528"><ele>2.0</ele><time>2026-04-16T11:15:36.895Z</time></trkpt><trkpt lat="53.37826656863154" lon="14.622692313049328"><ele>2.0</ele><time>2026-04-16T11:15:37.895Z</time></trkpt><trkpt lat="53.37819880765507" lon="14.622438912482702"><ele>2.0</ele><time>2026-04-16T11:15:38.895Z</time></trkpt><trkpt lat="53.378131472003055" lon="14.622187641744679"><ele>2.0</ele><time>2026-04-16T11:15:39.895Z</time></trkpt><trkpt lat="53.378064766575555" lon="14.621936879453399"><ele>2.0</ele><time>2026-04-16T11:15:40.895Z</time></trkpt><trkpt lat="53.37799876892476" lon="14.621703132887582"><ele>3.0</ele><time>2026-04-16T11:15:41.895Z</time></trkpt><trkpt lat="53.37793625578017" lon="14.62147884732456"><ele>4.0</ele><time>2026-04-16T11:15:42.895Z</time></trkpt><trkpt lat="53.37787878969489" lon="14.621254067919876"><ele>5.0</ele><time>2026-04-16T11:15:43.895Z</time></trkpt><trkpt lat="53.37781722792826" lon="14.621025180646045"><ele>6.0</ele><time>2026-04-16T11:15:44.895Z</time></trkpt><trkpt lat="53.37775795527567" lon="14.620797650268635"><ele>6.333333333333334</ele><time>2026-04-16T11:15:45.895Z</time></trkpt><trkpt lat="53.377694057622065" lon="14.62056440456572"><ele>6.666666666666667</ele><time>2026-04-16T11:15:46.895Z</time></trkpt><trkpt lat="53.37763016993146" lon="14.620327061574745"><ele>7.0</ele><time>2026-04-16T11:15:47.895Z</time></trkpt><trkpt lat="53.3775615930425" lon="14.620093856600656"><ele>7.333333333333334</ele><time>2026-04-16T11:15:48.895Z</time></trkpt><trkpt lat="53.377490235453486" lon="14.619865737600891"><ele>7.666666666666666</ele><time>2026-04-16T11:15:49.895Z</time></trkpt><trkpt lat="53.37742358053354" lon="14.619634907188043"><ele>8.0</ele><time>2026-04-16T11:15:50.895Z</time></trkpt><trkpt lat="53.37735364744933" lon="14.619405497160576"><ele>8.0</ele><time>2026-04-16T11:15:51.895Z</time></trkpt><trkpt lat="53.37728038469967" lon="14.619174002687977"><ele>8.0</ele><time>2026-04-16T11:15:52.895Z</time></trkpt><trkpt lat="53.377218881563934" lon="14.618930248488331"><ele>8.0</ele><time>2026-04-16T11:15:53.895Z</time></trkpt><trkpt lat="53.377137097575876" lon="14.61867085491466"><ele>8.0</ele><time>2026-04-16T11:15:54.895Z</time></trkpt><trkpt lat="53.377043675784705" lon="14.61838069134284"><ele>8.0</ele><time>2026-04-16T11:15:55.895Z</time></trkpt><trkpt lat="53.37693981964656" lon="14.6180712221406"><ele>8.0</ele><time>2026-04-16T11:15:56.895Z</time></trkpt><trkpt lat="53.376834652771336" lon="14.61770262370011"><ele>7.5</ele><time>2026-04-16T11:15:57.895Z</time></trkpt><trkpt lat="53.376723597648066" lon="14.617319579702622"><ele>7.0</ele><time>2026-04-16T11:15:58.895Z</time></trkpt><trkpt lat="53.37661089193929" lon="14.616935536664409"><ele>6.5</ele><time>2026-04-16T11:15:59.895Z</time></trkpt><trkpt lat="53.37649038798756" lon="14.61655408820306"><ele>6.0</ele><time>2026-04-16T11:16:00.895Z</time></trkpt><trkpt lat="53.37637781294689" lon="14.616190499811438"><ele>7.0</ele><time>2026-04-16T11:16:01.895Z</time></trkpt><trkpt lat="53.37626944293019" lon="14.615848509185865"><ele>8.0</ele><time>2026-04-16T11:16:02.895Z</time></trkpt><trkpt lat="53.37616692700842" lon="14.615515713975407"><ele>7.5</ele><time>2026-04-16T11:16:03.895Z</time></trkpt><trkpt lat="53.376061250025515" lon="14.615181984223454"><ele>7.0</ele><time>2026-04-16T11:16:04.895Z</time></trkpt><trkpt lat="53.37595439036073" lon="14.61483925001045"><ele>6.5</ele><time>2026-04-16T11:16:05.895Z</time></trkpt><trkpt lat="53.37584113027565" lon="14.614478965472845"><ele>6.0</ele><time>2026-04-16T11:16:06.895Z</time></trkpt><trkpt lat="53.37574051200563" lon="14.614149987791544"><ele>6.0</ele><time>2026-04-16T11:16:07.896Z</time></trkpt><trkpt lat="53.375653272945826" lon="14.613868181253075"><ele>6.0</ele><time>2026-04-16T11:16:08.896Z</time></trkpt><trkpt lat="53.37557437069018" lon="14.613623478335649"><ele>6.0</ele><time>2026-04-16T11:16:09.896Z</time></trkpt><trkpt lat="53.37551681950418" lon="14.61337967167174"><ele>6.75</ele><time>2026-04-16T11:16:10.896Z</time></trkpt><trkpt lat="53.37544672615225" lon="14.613153632987693"><ele>7.5</ele><time>2026-04-16T11:16:11.896Z</time></trkpt><trkpt lat="53.37538549328392" lon="14.612943223452467"><ele>8.25</ele><time>2026-04-16T11:16:12.896Z</time></trkpt><trkpt lat="53.37532179268914" lon="14.612745051229991"><ele>9.0</ele><time>2026-04-16T11:16:13.896Z</time></trkpt><trkpt lat="53.37525852409045" lon="14.612549376165026"><ele>9.0</ele><time>2026-04-16T11:16:14.896Z</time></trkpt><trkpt lat="53.37519240262436" lon="14.612338794293825"><ele>9.0</ele><time>2026-04-16T11:16:15.896Z</time></trkpt><trkpt lat="53.37512689891688" lon="14.612120726542908"><ele>9.0</ele><time>2026-04-16T11:16:16.896Z</time></trkpt><trkpt lat="53.37506416186203" lon="14.611911886176419"><ele>9.0</ele><time>2026-04-16T11:16:17.896Z</time></trkpt><trkpt lat="53.37499198672896" lon="14.61170200309061"><ele>8.75</ele><time>2026-04-16T11:16:18.896Z</time></trkpt><trkpt lat="53.37492120190261" lon="14.6114900312065"><ele>8.5</ele><time>2026-04-16T11:16:19.896Z</time></trkpt><trkpt lat="53.37485403449012" lon="14.61127543050709"><ele>8.25</ele><time>2026-04-16T11:16:20.896Z</time></trkpt><trkpt lat="53.37479167247769" lon="14.611062281640125"><ele>8.0</ele><time>2026-04-16T11:16:21.896Z</time></trkpt><trkpt lat="53.37472667710834" lon="14.61085123122818"><ele>9.0</ele><time>2026-04-16T11:16:22.896Z</time></trkpt><trkpt lat="53.37465346874114" lon="14.610644535785395"><ele>10.0</ele><time>2026-04-16T11:16:23.896Z</time></trkpt><trkpt lat="53.374580916189466" lon="14.610449389810096"><ele>11.0</ele><time>2026-04-16T11:16:24.896Z</time></trkpt><trkpt lat="53.3745003578564" lon="14.610258265764786"><ele>12.0</ele><time>2026-04-16T11:16:25.896Z</time></trkpt><trkpt lat="53.37442588019952" lon="14.61005090891973"><ele>9.333333333333334</ele><time>2026-04-16T11:16:26.896Z</time></trkpt><trkpt lat="53.37432677925613" lon="14.609874679181317"><ele>6.666666666666666</ele><time>2026-04-16T11:16:27.896Z</time></trkpt><trkpt lat="53.37421188734481" lon="14.609671304527149"><ele>4.0</ele><time>2026-04-16T11:16:28.896Z</time></trkpt><trkpt lat="53.37408624830838" lon="14.60945645423633"><ele>4.0</ele><time>2026-04-16T11:16:29.896Z</time></trkpt><trkpt lat="53.37396291565456" lon="14.609241871373293"><ele>4.0</ele><time>2026-04-16T11:16:30.896Z</time></trkpt><trkpt lat="53.37382985797879" lon="14.609020763518535"><ele>4.0</ele><time>2026-04-16T11:16:31.896Z</time></trkpt><trkpt lat="53.37371451722377" lon="14.60880542124518"><ele>4.0</ele><time>2026-04-16T11:16:32.896Z</time></trkpt><trkpt lat="53.373603308004206" lon="14.608606745535281"><ele>4.0</ele><time>2026-04-16T11:16:33.896Z</time></trkpt><trkpt lat="53.37350312353793" lon="14.608438962590858"><ele>4.0</ele><time>2026-04-16T11:16:34.896Z</time></trkpt><trkpt lat="53.37341325519578" lon="14.608283298791022"><ele>4.0</ele><time>2026-04-16T11:16:35.896Z</time></trkpt><trkpt lat="53.373334917899946" lon="14.60813958017643"><ele>3.9999999999999996</ele><time>2026-04-16T11:16:36.896Z</time></trkpt><trkpt lat="53.37327023026906" lon="14.608021026381342"><ele>4.0</ele><time>2026-04-16T11:16:37.896Z</time></trkpt><trkpt lat="53.37321017257094" lon="14.607921880167142"><ele>4.0</ele><time>2026-04-16T11:16:38.896Z</time></trkpt><trkpt lat="53.37317060055026" lon="14.607813447738973"><ele>4.0</ele><time>2026-04-16T11:16:39.896Z</time></trkpt><trkpt lat="53.373112499029666" lon="14.607734694155955"><ele>3.9999999999999996</ele><time>2026-04-16T11:16:40.896Z</time></trkpt><trkpt lat="53.37303944823911" lon="14.607612173954651"><ele>4.0</ele><time>2026-04-16T11:16:41.896Z</time></trkpt><trkpt lat="53.37295367155439" lon="14.607466210457787"><ele>4.2</ele><time>2026-04-16T11:16:42.896Z</time></trkpt><trkpt lat="53.37290183030819" lon="14.607360101011931"><ele>4.4</ele><time>2026-04-16T11:16:43.896Z</time></trkpt><trkpt lat="53.37283518220813" lon="14.607250428516885"><ele>4.6</ele><time>2026-04-16T11:16:46.896Z</time></trkpt><trkpt lat="53.3727827150538" lon="14.607174677522897"><ele>4.8</ele><time>2026-04-16T11:16:47.896Z</time></trkpt><trkpt lat="53.37271574961183" lon="14.607029092542481"><ele>5.0</ele><time>2026-04-16T11:16:48.896Z</time></trkpt><trkpt lat="53.372632639898264" lon="14.606897782461097"><ele>4.666666666666667</ele><time>2026-04-16T11:16:49.896Z</time></trkpt><trkpt lat="53.372564088997585" lon="14.606771687896003"><ele>4.333333333333334</ele><time>2026-04-16T11:16:50.896Z</time></trkpt><trkpt lat="53.372515153722226" lon="14.606686291710728"><ele>4.0</ele><time>2026-04-16T11:16:51.896Z</time></trkpt><trkpt lat="53.372431537935974" lon="14.60655192133946"><ele>3.666666666666667</ele><time>2026-04-16T11:16:53.896Z</time></trkpt><trkpt lat="53.37238272641985" lon="14.606482259229352"><ele>3.3333333333333335</ele><time>2026-04-16T11:16:54.896Z</time></trkpt><trkpt lat="53.37233658272358" lon="14.606378311059439"><ele>3.0</ele><time>2026-04-16T11:16:55.896Z</time></trkpt><trkpt lat="53.37228309012846" lon="14.606287478951723"><ele>3.0</ele><time>2026-04-16T11:16:56.897Z</time></trkpt><trkpt lat="53.37220905650705" lon="14.606173305899397"><ele>3.0</ele><time>2026-04-16T11:16:58.897Z</time></trkpt><trkpt lat="53.37211517289266" lon="14.606002640907661"><ele>3.0</ele><time>2026-04-16T11:17:00.897Z</time></trkpt><trkpt lat="53.37205203953246" lon="14.60589541873945"><ele>3.0</ele><time>2026-04-16T11:17:01.897Z</time></trkpt><trkpt lat="53.37200266462562" lon="14.605811423666866"><ele>3.0</ele><time>2026-04-16T11:17:02.897Z</time></trkpt><trkpt lat="53.371925565129565" lon="14.605660833725013"><ele>3.1666666666666665</ele><time>2026-04-16T11:17:04.897Z</time></trkpt><trkpt lat="53.37188211200931" lon="14.605554456106235"><ele>3.333333333333333</ele><time>2026-04-16T11:17:07.897Z</time></trkpt><trkpt lat="53.37179676252747" lon="14.605399222470789"><ele>3.5</ele><time>2026-04-16T11:17:09.897Z</time></trkpt><trkpt lat="53.37174939056496" lon="14.605313062349097"><ele>3.6666666666666665</ele><time>2026-04-16T11:17:10.897Z</time></trkpt><trkpt lat="53.371693326790904" lon="14.605212260001254"><ele>3.833333333333333</ele><time>2026-04-16T11:17:12.897Z</time></trkpt><trkpt lat="53.371626816533485" lon="14.605237063454918"><ele>4.0</ele><time>2026-04-16T11:17:19.897Z</time></trkpt><trkpt lat="53.371606946351754" lon="14.605061211340846"><ele>4.166666666666666</ele><time>2026-04-16T11:17:22.897Z</time></trkpt><trkpt lat="53.37155845937318" lon="14.604976427374055"><ele>4.333333333333333</ele><time>2026-04-16T11:17:24.897Z</time></trkpt><trkpt lat="53.37148370659639" lon="14.604857754922504"><ele>4.5</ele><time>2026-04-16T11:17:26.897Z</time></trkpt><trkpt lat="53.37143618934066" lon="14.604779528504658"><ele>4.666666666666667</ele><time>2026-04-16T11:17:27.897Z</time></trkpt><trkpt lat="53.37139070581763" lon="14.604704650125079"><ele>4.833333333333334</ele><time>2026-04-16T11:17:28.897Z</time></trkpt><trkpt lat="53.3713002287415" lon="14.60459206067876"><ele>5.0</ele><time>2026-04-16T11:17:30.897Z</time></trkpt><trkpt lat="53.371231382363995" lon="14.604471415434805"><ele>5.0</ele><time>2026-04-16T11:17:32.897Z</time></trkpt><trkpt lat="53.37118403148573" lon="14.604388471044324"><ele>5.0</ele><time>2026-04-16T11:17:34.894Z</time></trkpt><trkpt lat="53.371130174137605" lon="14.604321663906374"><ele>5.0</ele><time>2026-04-16T11:17:36.894Z</time></trkpt><trkpt lat="53.371084068324365" lon="14.604232030791056"><ele>5.0</ele><time>2026-04-16T11:18:00.894Z</time></trkpt><trkpt lat="53.37098678910654" lon="14.60402929503034"><ele>5.0</ele><time>2026-04-16T11:18:42.895Z</time></trkpt><trkpt lat="53.370930411604554" lon="14.603912067595711"><ele>5.0</ele><time>2026-04-16T11:18:43.895Z</time></trkpt><trkpt lat="53.37087488354382" lon="14.60375258425624"><ele>5.0</ele><time>2026-04-16T11:18:44.895Z</time></trkpt><trkpt lat="53.37081102950927" lon="14.603560636805122"><ele>5.0</ele><time>2026-04-16T11:18:45.895Z</time></trkpt><trkpt lat="53.370727251088596" lon="14.603360104785752"><ele>5.0</ele><time>2026-04-16T11:18:46.895Z</time></trkpt><trkpt lat="53.37061777938427" lon="14.603170380893639"><ele>5.333333333333334</ele><time>2026-04-16T11:18:47.895Z</time></trkpt><trkpt lat="53.37048673082705" lon="14.603013978670688"><ele>5.666666666666667</ele><time>2026-04-16T11:18:48.895Z</time></trkpt><trkpt lat="53.37035726303054" lon="14.602845939890477"><ele>6.0</ele><time>2026-04-16T11:18:49.895Z</time></trkpt><trkpt lat="53.37022167166239" lon="14.602691618862139"><ele>5.5</ele><time>2026-04-16T11:18:50.895Z</time></trkpt><trkpt lat="53.3701357652976" lon="14.60248218152211"><ele>5.0</ele><time>2026-04-16T11:18:51.895Z</time></trkpt><trkpt lat="53.37003630111103" lon="14.60231943355184"><ele>4.5</ele><time>2026-04-16T11:18:52.895Z</time></trkpt><trkpt lat="53.36994380270798" lon="14.602165728806701"><ele>4.0</ele><time>2026-04-16T11:18:53.895Z</time></trkpt><trkpt lat="53.36985829919186" lon="14.602024089471236"><ele>3.8000000000000003</ele><time>2026-04-16T11:18:54.895Z</time></trkpt><trkpt lat="53.36976308808898" lon="14.601904936054217"><ele>3.6000000000000005</ele><time>2026-04-16T11:18:55.895Z</time></trkpt><trkpt lat="53.369685278420704" lon="14.601774098948633"><ele>3.4</ele><time>2026-04-16T11:18:56.895Z</time></trkpt><trkpt lat="53.36960988416143" lon="14.601655112069"><ele>3.2</ele><time>2026-04-16T11:18:57.895Z</time></trkpt><trkpt lat="53.3695388989478" lon="14.601511827556687"><ele>3.0</ele><time>2026-04-16T11:18:58.895Z</time></trkpt><trkpt lat="53.369445431345106" lon="14.601383878449088"><ele>3.2</ele><time>2026-04-16T11:18:59.895Z</time></trkpt><trkpt lat="53.36936518205728" lon="14.601257935706293"><ele>3.4</ele><time>2026-04-16T11:19:00.895Z</time></trkpt><trkpt lat="53.3692917308706" lon="14.601137755135374"><ele>3.6000000000000005</ele><time>2026-04-16T11:19:01.895Z</time></trkpt><trkpt lat="53.36922679125025" lon="14.601007175812573"><ele>3.8000000000000003</ele><time>2026-04-16T11:19:02.895Z</time></trkpt><trkpt lat="53.36915218994119" lon="14.600885467329766"><ele>4.0</ele><time>2026-04-16T11:19:03.895Z</time></trkpt><trkpt lat="53.36907709705748" lon="14.600761015063462"><ele>4.0</ele><time>2026-04-16T11:19:04.895Z</time></trkpt><trkpt lat="53.36901877514531" lon="14.600608793872757"><ele>4.0</ele><time>2026-04-16T11:19:05.895Z</time></trkpt><trkpt lat="53.368963188702665" lon="14.600477291921273"><ele>4.0</ele><time>2026-04-16T11:19:06.896Z</time></trkpt><trkpt lat="53.36890795950634" lon="14.600346491231203"><ele>4.0</ele><time>2026-04-16T11:19:07.896Z</time></trkpt><trkpt lat="53.368858741601095" lon="14.600221986901921"><ele>4.0</ele><time>2026-04-16T11:19:08.896Z</time></trkpt><trkpt lat="53.36880055760158" lon="14.600074406988243"><ele>3.8000000000000003</ele><time>2026-04-16T11:19:09.896Z</time></trkpt><trkpt lat="53.36873492779544" lon="14.59992434547898"><ele>3.6000000000000005</ele><time>2026-04-16T11:19:10.896Z</time></trkpt><trkpt lat="53.36867093885469" lon="14.599800064539107"><ele>3.4</ele><time>2026-04-16T11:19:11.896Z</time></trkpt><trkpt lat="53.36860414503222" lon="14.599678398150376"><ele>3.2</ele><time>2026-04-16T11:19:12.896Z</time></trkpt><trkpt lat="53.36853604540543" lon="14.599571029710322"><ele>3.0</ele><time>2026-04-16T11:19:13.896Z</time></trkpt><trkpt lat="53.36845546674972" lon="14.599481747262272"><ele>2.8</ele><time>2026-04-16T11:19:14.896Z</time></trkpt><trkpt lat="53.368365325139735" lon="14.599431627452523"><ele>2.5999999999999996</ele><time>2026-04-16T11:19:15.896Z</time></trkpt><trkpt lat="53.368282599565305" lon="14.599324024677074"><ele>2.4000000000000004</ele><time>2026-04-16T11:19:16.896Z</time></trkpt><trkpt lat="53.36819140773205" lon="14.599229614833792"><ele>2.2</ele><time>2026-04-16T11:19:17.896Z</time></trkpt><trkpt lat="53.368108252542875" lon="14.599135578627514"><ele>2.0</ele><time>2026-04-16T11:19:18.896Z</time></trkpt><trkpt lat="53.368027361681094" lon="14.59902938935951"><ele>2.2</ele><time>2026-04-16T11:19:19.896Z</time></trkpt><trkpt lat="53.36794801097026" lon="14.598905740975123"><ele>2.4000000000000004</ele><time>2026-04-16T11:19:20.896Z</time></trkpt><trkpt lat="53.3678711643239" lon="14.59877322513204"><ele>2.5999999999999996</ele><time>2026-04-16T11:19:21.896Z</time></trkpt><trkpt lat="53.36780303160947" lon="14.598641426971469"><ele>2.8</ele><time>2026-04-16T11:19:22.896Z</time></trkpt><trkpt lat="53.367729024276336" lon="14.598520999341593"><ele>3.0</ele><time>2026-04-16T11:19:23.896Z</time></trkpt><trkpt lat="53.36768834858253" lon="14.598356881177489"><ele>3.0</ele><time>2026-04-16T11:19:24.896Z</time></trkpt><trkpt lat="53.36763705014936" lon="14.598190711550874"><ele>3.0</ele><time>2026-04-16T11:19:25.896Z</time></trkpt><trkpt lat="53.36759418487996" lon="14.598029916450812"><ele>3.0</ele><time>2026-04-16T11:19:26.896Z</time></trkpt><trkpt lat="53.36755529441476" lon="14.597873915831492"><ele>3.0</ele><time>2026-04-16T11:19:27.896Z</time></trkpt><trkpt lat="53.36752241716552" lon="14.597718001686783"><ele>3.0</ele><time>2026-04-16T11:19:28.896Z</time></trkpt><trkpt lat="53.36748920062963" lon="14.597557754461699"><ele>2.5</ele><time>2026-04-16T11:19:29.896Z</time></trkpt><trkpt lat="53.36746169909288" lon="14.597386555895689"><ele>2.0</ele><time>2026-04-16T11:19:30.896Z</time></trkpt><trkpt lat="53.3674174814994" lon="14.597151150879098"><ele>1.5</ele><time>2026-04-16T11:19:31.896Z</time></trkpt><trkpt lat="53.36736648121291" lon="14.596885585944168"><ele>1.0</ele><time>2026-04-16T11:19:32.896Z</time></trkpt><trkpt lat="53.36732000471811" lon="14.59661471025598"><ele>0.6666666666666666</ele><time>2026-04-16T11:19:33.896Z</time></trkpt><trkpt lat="53.36726549499789" lon="14.596376741539"><ele>0.3333333333333333</ele><time>2026-04-16T11:19:34.896Z</time></trkpt><trkpt lat="53.367187410759236" lon="14.596181356511961"><ele>0.0</ele><time>2026-04-16T11:19:35.896Z</time></trkpt><trkpt lat="53.36707944158095" lon="14.595980608002492"><ele>0.6666666666666666</ele><time>2026-04-16T11:19:36.896Z</time></trkpt><trkpt lat="53.3669638626481" lon="14.595767991514984"><ele>1.3333333333333333</ele><time>2026-04-16T11:19:37.896Z</time></trkpt><trkpt lat="53.366858315625215" lon="14.595545927871331"><ele>2.0</ele><time>2026-04-16T11:19:38.896Z</time></trkpt><trkpt lat="53.36674262237035" lon="14.595323164928491"><ele>2.0</ele><time>2026-04-16T11:19:39.896Z</time></trkpt><trkpt lat="53.36662577330207" lon="14.595093315137376"><ele>2.0</ele><time>2026-04-16T11:19:40.893Z</time></trkpt><trkpt lat="53.36651032158055" lon="14.594856519451907"><ele>2.0</ele><time>2026-04-16T11:19:41.894Z</time></trkpt><trkpt lat="53.36638732273321" lon="14.594634153240323"><ele>2.6666666666666665</ele><time>2026-04-16T11:19:42.894Z</time></trkpt><trkpt lat="53.366260726708326" lon="14.594425931809248"><ele>3.333333333333333</ele><time>2026-04-16T11:19:43.893Z</time></trkpt><trkpt lat="53.3661243274288" lon="14.594205357939428"><ele>4.0</ele><time>2026-04-16T11:19:44.893Z</time></trkpt><trkpt lat="53.36597460462059" lon="14.593956160762895"><ele>4.0</ele><time>2026-04-16T11:19:45.893Z</time></trkpt><trkpt lat="53.36581786803373" lon="14.593713630886135"><ele>4.0</ele><time>2026-04-16T11:19:46.894Z</time></trkpt><trkpt lat="53.36565791507706" lon="14.593516275959646"><ele>4.0</ele><time>2026-04-16T11:19:47.893Z</time></trkpt><trkpt lat="53.3655102330599" lon="14.593355484550125"><ele>4.0</ele><time>2026-04-16T11:19:48.893Z</time></trkpt><trkpt lat="53.36536619509954" lon="14.59320787400066"><ele>4.0</ele><time>2026-04-16T11:19:49.894Z</time></trkpt><trkpt lat="53.36522334014106" lon="14.593050090446983"><ele>4.0</ele><time>2026-04-16T11:19:50.893Z</time></trkpt><trkpt lat="53.365084180061295" lon="14.592892886480897"><ele>3.5</ele><time>2026-04-16T11:19:51.893Z</time></trkpt><trkpt lat="53.36496117046908" lon="14.592735163253083"><ele>3.0</ele><time>2026-04-16T11:19:52.894Z</time></trkpt><trkpt lat="53.364852369030906" lon="14.592625966323693"><ele>2.5</ele><time>2026-04-16T11:19:53.893Z</time></trkpt><trkpt lat="53.364755835789516" lon="14.592525679070713"><ele>2.0</ele><time>2026-04-16T11:19:54.893Z</time></trkpt><trkpt lat="53.36467163086546" lon="14.592407407542057"><ele>2.0</ele><time>2026-04-16T11:19:55.893Z</time></trkpt><trkpt lat="53.364560855611956" lon="14.59230005909926"><ele>2.0</ele><time>2026-04-16T11:19:56.893Z</time></trkpt><trkpt lat="53.364448186287085" lon="14.592151583580804"><ele>2.0</ele><time>2026-04-16T11:19:57.893Z</time></trkpt><trkpt lat="53.36430137408702" lon="14.591981952154454"><ele>2.0</ele><time>2026-04-16T11:19:58.893Z</time></trkpt><trkpt lat="53.364147504959455" lon="14.59183382492079"><ele>2.0</ele><time>2026-04-16T11:19:59.893Z</time></trkpt><trkpt lat="53.3640155776141" lon="14.59168236057225"><ele>2.0</ele><time>2026-04-16T11:20:00.893Z</time></trkpt><trkpt lat="53.363897678641116" lon="14.591555154043903"><ele>2.2</ele><time>2026-04-16T11:20:01.893Z</time></trkpt><trkpt lat="53.36379493701404" lon="14.591439235563408"><ele>2.4000000000000004</ele><time>2026-04-16T11:20:02.893Z</time></trkpt><trkpt lat="53.363693347459666" lon="14.591332242678579"><ele>2.5999999999999996</ele><time>2026-04-16T11:20:03.893Z</time></trkpt><trkpt lat="53.36360888281657" lon="14.59123622183669"><ele>2.8</ele><time>2026-04-16T11:20:04.893Z</time></trkpt><trkpt lat="53.36353505762591" lon="14.591150700198469"><ele>3.0</ele><time>2026-04-16T11:20:05.893Z</time></trkpt><trkpt lat="53.363460609953364" lon="14.59106789012141"><ele>3.0</ele><time>2026-04-16T11:20:06.893Z</time></trkpt><trkpt lat="53.36338669255849" lon="14.59099440666759"><ele>3.0</ele><time>2026-04-16T11:20:07.893Z</time></trkpt><trkpt lat="53.36331534070331" lon="14.590903756549563"><ele>3.0</ele><time>2026-04-16T11:20:08.893Z</time></trkpt><trkpt lat="53.36322045509678" lon="14.590806529575273"><ele>3.0</ele><time>2026-04-16T11:20:09.894Z</time></trkpt><trkpt lat="53.36313275962661" lon="14.590708789623076"><ele>3.0</ele><time>2026-04-16T11:20:10.894Z</time></trkpt><trkpt lat="53.363060657587745" lon="14.59059553494502"><ele>3.0</ele><time>2026-04-16T11:20:11.894Z</time></trkpt><trkpt lat="53.36297582904217" lon="14.590500327596137"><ele>3.0</ele><time>2026-04-16T11:20:12.894Z</time></trkpt><trkpt lat="53.36289128089319" lon="14.590404858611866"><ele>3.0</ele><time>2026-04-16T11:20:13.894Z</time></trkpt><trkpt lat="53.362800595960785" lon="14.590302492599234"><ele>3.0</ele><time>2026-04-16T11:20:14.894Z</time></trkpt><trkpt lat="53.36270317477949" lon="14.590224825378554"><ele>3.0</ele><time>2026-04-16T11:20:15.894Z</time></trkpt><trkpt lat="53.36262205219559" lon="14.590100158310394"><ele>3.0</ele><time>2026-04-16T11:20:16.894Z</time></trkpt><trkpt lat="53.36253073716174" lon="14.589995663037064"><ele>3.0</ele><time>2026-04-16T11:20:17.894Z</time></trkpt><trkpt lat="53.362436237619335" lon="14.589887658938814"><ele>3.0</ele><time>2026-04-16T11:20:18.894Z</time></trkpt><trkpt lat="53.36234489382057" lon="14.58978457769223"><ele>3.0</ele><time>2026-04-16T11:20:19.894Z</time></trkpt><trkpt lat="53.36225027746182" lon="14.589676981677187"><ele>3.0</ele><time>2026-04-16T11:20:20.894Z</time></trkpt><trkpt lat="53.362150992249504" lon="14.589564283425918"><ele>2.75</ele><time>2026-04-16T11:20:21.894Z</time></trkpt><trkpt lat="53.3620529987173" lon="14.589453339922718"><ele>2.5</ele><time>2026-04-16T11:20:22.894Z</time></trkpt><trkpt lat="53.36195797080953" lon="14.589345392002716"><ele>2.25</ele><time>2026-04-16T11:20:23.894Z</time></trkpt><trkpt lat="53.36185981393248" lon="14.589233863365704"><ele>2.0</ele><time>2026-04-16T11:20:24.894Z</time></trkpt><trkpt lat="53.36175924375432" lon="14.589119231186729"><ele>2.0</ele><time>2026-04-16T11:20:25.894Z</time></trkpt><trkpt lat="53.36165559115572" lon="14.589000849306057"><ele>2.0</ele><time>2026-04-16T11:20:26.894Z</time></trkpt><trkpt lat="53.36154649275582" lon="14.588876922712148"><ele>2.0</ele><time>2026-04-16T11:20:27.894Z</time></trkpt><trkpt lat="53.361432334027675" lon="14.588747248841424"><ele>2.0</ele><time>2026-04-16T11:20:28.894Z</time></trkpt><trkpt lat="53.36132016500837" lon="14.588620038815241"><ele>2.0</ele><time>2026-04-16T11:20:29.894Z</time></trkpt><trkpt lat="53.361216618279876" lon="14.588502589624815"><ele>2.0</ele><time>2026-04-16T11:20:30.894Z</time></trkpt><trkpt lat="53.36111607327738" lon="14.588388677195276"><ele>2.0</ele><time>2026-04-16T11:20:31.894Z</time></trkpt><trkpt lat="53.36100849430913" lon="14.588266855251538"><ele>2.0</ele><time>2026-04-16T11:20:32.894Z</time></trkpt><trkpt lat="53.36090017607705" lon="14.588143768205557"><ele>2.0</ele><time>2026-04-16T11:20:33.894Z</time></trkpt><trkpt lat="53.36079202312825" lon="14.588020625126237"><ele>2.0</ele><time>2026-04-16T11:20:34.894Z</time></trkpt><trkpt lat="53.36068081085352" lon="14.587893751715512"><ele>2.0</ele><time>2026-04-16T11:20:35.894Z</time></trkpt><trkpt lat="53.360567390234486" lon="14.587764358934239"><ele>2.0</ele><time>2026-04-16T11:20:36.894Z</time></trkpt><trkpt lat="53.36046088377838" lon="14.587643367137504"><ele>2.0</ele><time>2026-04-16T11:20:37.894Z</time></trkpt><trkpt lat="53.360351963607954" lon="14.58751996498941"><ele>2.0</ele><time>2026-04-16T11:20:38.894Z</time></trkpt><trkpt lat="53.360235717475774" lon="14.587421517337697"><ele>2.0</ele><time>2026-04-16T11:20:39.894Z</time></trkpt><trkpt lat="53.3601269121809" lon="14.587288439367695"><ele>2.0</ele><time>2026-04-16T11:20:40.894Z</time></trkpt><trkpt lat="53.36003169512432" lon="14.587165831695012"><ele>2.0</ele><time>2026-04-16T11:20:41.894Z</time></trkpt><trkpt lat="53.35993480958438" lon="14.587057231448926"><ele>2.0</ele><time>2026-04-16T11:20:42.894Z</time></trkpt><trkpt lat="53.359835149894295" lon="14.5869370314036"><ele>2.0</ele><time>2026-04-16T11:20:43.894Z</time></trkpt><trkpt lat="53.35972375718478" lon="14.586812599350287"><ele>2.0</ele><time>2026-04-16T11:20:44.894Z</time></trkpt><trkpt lat="53.35960738551654" lon="14.58668232482938"><ele>2.5</ele><time>2026-04-16T11:20:45.894Z</time></trkpt><trkpt lat="53.35948518403366" lon="14.586550726358917"><ele>3.0</ele><time>2026-04-16T11:20:46.894Z</time></trkpt><trkpt lat="53.3593643779897" lon="14.586424409413063"><ele>3.5</ele><time>2026-04-16T11:20:47.894Z</time></trkpt><trkpt lat="53.359257194363046" lon="14.58628662970215"><ele>4.0</ele><time>2026-04-16T11:20:48.894Z</time></trkpt><trkpt lat="53.35914726340426" lon="14.586171083892083"><ele>4.0</ele><time>2026-04-16T11:20:49.894Z</time></trkpt><trkpt lat="53.35903102618854" lon="14.586046284887598"><ele>4.0</ele><time>2026-04-16T11:20:50.894Z</time></trkpt><trkpt lat="53.35892290406637" lon="14.585902931025736"><ele>4.0</ele><time>2026-04-16T11:20:51.894Z</time></trkpt><trkpt lat="53.358807278793584" lon="14.585785182414556"><ele>4.0</ele><time>2026-04-16T11:20:52.894Z</time></trkpt><trkpt lat="53.35869445899269" lon="14.585658445233808"><ele>3.75</ele><time>2026-04-16T11:20:53.894Z</time></trkpt><trkpt lat="53.35858029938973" lon="14.585532196874475"><ele>3.5</ele><time>2026-04-16T11:20:54.894Z</time></trkpt><trkpt lat="53.358460480692344" lon="14.585401193572846"><ele>3.25</ele><time>2026-04-16T11:20:55.894Z</time></trkpt><trkpt lat="53.35835140942178" lon="14.5852451091662"><ele>3.0</ele><time>2026-04-16T11:20:56.894Z</time></trkpt><trkpt lat="53.35822899762773" lon="14.585106366641389"><ele>2.6666666666666665</ele><time>2026-04-16T11:20:57.894Z</time></trkpt><trkpt lat="53.35809681778643" lon="14.584956489403954"><ele>2.333333333333333</ele><time>2026-04-16T11:20:58.895Z</time></trkpt><trkpt lat="53.357951008250325" lon="14.584790346394966"><ele>2.0</ele><time>2026-04-16T11:20:59.895Z</time></trkpt><trkpt lat="53.35780322613735" lon="14.584623115351762"><ele>1.6666666666666665</ele><time>2026-04-16T11:21:00.895Z</time></trkpt><trkpt lat="53.35764080553816" lon="14.584438382192252"><ele>1.3333333333333333</ele><time>2026-04-16T11:21:01.895Z</time></trkpt><trkpt lat="53.35744684100815" lon="14.584305777877242"><ele>1.0</ele><time>2026-04-16T11:21:02.895Z</time></trkpt><trkpt lat="53.35728937319714" lon="14.584115096710933"><ele>1.0</ele><time>2026-04-16T11:21:03.895Z</time></trkpt><trkpt lat="53.357146999721" lon="14.583938972010927"><ele>1.0</ele><time>2026-04-16T11:21:04.895Z</time></trkpt><trkpt lat="53.35699216353238" lon="14.583759362497286"><ele>1.0</ele><time>2026-04-16T11:21:05.895Z</time></trkpt><trkpt lat="53.35686683258417" lon="14.583568557095793"><ele>1.0</ele><time>2026-04-16T11:21:06.895Z</time></trkpt><trkpt lat="53.356750386795404" lon="14.58339782149393"><ele>1.0</ele><time>2026-04-16T11:21:07.895Z</time></trkpt><trkpt lat="53.3566378530528" lon="14.583228311846398"><ele>1.0</ele><time>2026-04-16T11:21:08.895Z</time></trkpt><trkpt lat="53.356528363325914" lon="14.583060569907504"><ele>1.0</ele><time>2026-04-16T11:21:09.895Z</time></trkpt><trkpt lat="53.35640209819368" lon="14.582900868298426"><ele>1.0</ele><time>2026-04-16T11:21:10.895Z</time></trkpt><trkpt lat="53.356288477270795" lon="14.582727884381946"><ele>1.0</ele><time>2026-04-16T11:21:11.895Z</time></trkpt><trkpt lat="53.35619481326426" lon="14.582547010069856"><ele>1.25</ele><time>2026-04-16T11:21:12.895Z</time></trkpt><trkpt lat="53.356084432341305" lon="14.582376689072571"><ele>1.5</ele><time>2026-04-16T11:21:13.895Z</time></trkpt><trkpt lat="53.35597090638427" lon="14.582201500063366"><ele>1.75</ele><time>2026-04-16T11:21:14.895Z</time></trkpt><trkpt lat="53.35587105817188" lon="14.582046808328847"><ele>2.0</ele><time>2026-04-16T11:21:15.895Z</time></trkpt><trkpt lat="53.3557822341404" lon="14.58191060394066"><ele>2.0</ele><time>2026-04-16T11:21:16.895Z</time></trkpt><trkpt lat="53.3556974898025" lon="14.581779865792837"><ele>2.0</ele><time>2026-04-16T11:21:17.895Z</time></trkpt><trkpt lat="53.35560991122525" lon="14.581646030595884"><ele>2.0</ele><time>2026-04-16T11:21:18.895Z</time></trkpt><trkpt lat="53.35551955658203" lon="14.581516545936253"><ele>2.0</ele><time>2026-04-16T11:21:19.895Z</time></trkpt><trkpt lat="53.35542989534906" lon="14.581385416403775"><ele>2.4000000000000004</ele><time>2026-04-16T11:21:20.895Z</time></trkpt><trkpt lat="53.35535958498313" lon="14.581273375234032"><ele>2.8000000000000003</ele><time>2026-04-16T11:21:21.895Z</time></trkpt><trkpt lat="53.35531342033827" lon="14.58120082845871"><ele>3.2</ele><time>2026-04-16T11:21:22.895Z</time></trkpt><trkpt lat="53.35525936479287" lon="14.581123420050071"><ele>3.6</ele><time>2026-04-16T11:21:23.895Z</time></trkpt><trkpt lat="53.35517702225542" lon="14.580992273298607"><ele>4.0</ele><time>2026-04-16T11:21:25.895Z</time></trkpt><trkpt lat="53.35508012816626" lon="14.580865232056874"><ele>4.0</ele><time>2026-04-16T11:21:27.895Z</time></trkpt><trkpt lat="53.35500404551817" lon="14.580714366761066"><ele>4.0</ele><time>2026-04-16T11:21:29.895Z</time></trkpt><trkpt lat="53.35490788572739" lon="14.580562982452063"><ele>4.0</ele><time>2026-04-16T11:21:31.895Z</time></trkpt><trkpt lat="53.35485206947513" lon="14.580475568655428"><ele>4.0</ele><time>2026-04-16T11:21:32.895Z</time></trkpt><trkpt lat="53.354792338628314" lon="14.580386480888071"><ele>4.0</ele><time>2026-04-16T11:21:33.895Z</time></trkpt><trkpt lat="53.35473417841946" lon="14.580297625610575"><ele>4.2</ele><time>2026-04-16T11:21:34.895Z</time></trkpt><trkpt lat="53.35466334079825" lon="14.580187260798377"><ele>4.4</ele><time>2026-04-16T11:21:35.895Z</time></trkpt><trkpt lat="53.354591238380664" lon="14.580075326540634"><ele>4.6</ele><time>2026-04-16T11:21:36.895Z</time></trkpt><trkpt lat="53.35451288607845" lon="14.579990809144075"><ele>4.8</ele><time>2026-04-16T11:21:37.895Z</time></trkpt><trkpt lat="53.35446021135494" lon="14.579873945825902"><ele>5.0</ele><time>2026-04-16T11:21:38.895Z</time></trkpt><trkpt lat="53.354399108959996" lon="14.579780526474327"><ele>5.0</ele><time>2026-04-16T11:21:39.895Z</time></trkpt><trkpt lat="53.35432832989338" lon="14.579678070446283"><ele>5.0</ele><time>2026-04-16T11:21:40.895Z</time></trkpt><trkpt lat="53.354254287012154" lon="14.5795751874372"><ele>5.0</ele><time>2026-04-16T11:21:41.895Z</time></trkpt><trkpt lat="53.35418162748888" lon="14.579461574227249"><ele>5.0</ele><time>2026-04-16T11:21:42.895Z</time></trkpt><trkpt lat="53.35410569173695" lon="14.579351490468598"><ele>5.0</ele><time>2026-04-16T11:21:43.895Z</time></trkpt><trkpt lat="53.354038712199134" lon="14.579245775729257"><ele>4.6</ele><time>2026-04-16T11:21:44.895Z</time></trkpt><trkpt lat="53.35397064642809" lon="14.579132424008197"><ele>4.2</ele><time>2026-04-16T11:21:45.895Z</time></trkpt><trkpt lat="53.353918957530354" lon="14.5790050503834"><ele>3.8</ele><time>2026-04-16T11:21:46.891Z</time></trkpt><trkpt lat="53.353859881493804" lon="14.57888962325251"><ele>3.4</ele><time>2026-04-16T11:21:47.891Z</time></trkpt><trkpt lat="53.353790528760165" lon="14.578769400451863"><ele>3.0</ele><time>2026-04-16T11:21:48.891Z</time></trkpt><trkpt lat="53.35370966190477" lon="14.578637696035551"><ele>2.25</ele><time>2026-04-16T11:21:49.892Z</time></trkpt><trkpt lat="53.353632606784345" lon="14.578485371927192"><ele>1.5</ele><time>2026-04-16T11:21:50.891Z</time></trkpt><trkpt lat="53.353565596829" lon="14.578335111484822"><ele>0.75</ele><time>2026-04-16T11:21:51.891Z</time></trkpt><trkpt lat="53.353503887604454" lon="14.578185436903247"><ele>0.0</ele><time>2026-04-16T11:21:52.892Z</time></trkpt><trkpt lat="53.35344222825757" lon="14.578022419477689"><ele>0.0</ele><time>2026-04-16T11:21:53.891Z</time></trkpt><trkpt lat="53.35338895704026" lon="14.577884637532922"><ele>0.0</ele><time>2026-04-16T11:21:54.891Z</time></trkpt><trkpt lat="53.35332628902363" lon="14.577750676541552"><ele>0.0</ele><time>2026-04-16T11:21:55.892Z</time></trkpt><trkpt lat="53.35326273919799" lon="14.577594232027522"><ele>0.0</ele><time>2026-04-16T11:21:56.892Z</time></trkpt><trkpt lat="53.35318970715509" lon="14.577413168151018"><ele>0.0</ele><time>2026-04-16T11:21:57.892Z</time></trkpt><trkpt lat="53.35311235497311" lon="14.577255274631044"><ele>-0.2</ele><time>2026-04-16T11:21:58.892Z</time></trkpt><trkpt lat="53.35305988197231" lon="14.577113895688159"><ele>-0.4</ele><time>2026-04-16T11:21:59.892Z</time></trkpt><trkpt lat="53.35300199845689" lon="14.576997495813993"><ele>-0.6000000000000001</ele><time>2026-04-16T11:22:00.892Z</time></trkpt><trkpt lat="53.3529471027646" lon="14.576879996049437"><ele>-0.8</ele><time>2026-04-16T11:22:01.892Z</time></trkpt><trkpt lat="53.35288661736359" lon="14.576754574547591"><ele>-1.0</ele><time>2026-04-16T11:22:02.892Z</time></trkpt><trkpt lat="53.35281495380583" lon="14.57661487923726"><ele>-0.6666666666666666</ele><time>2026-04-16T11:22:03.892Z</time></trkpt><trkpt lat="53.35275554564597" lon="14.576483654169332"><ele>-0.3333333333333333</ele><time>2026-04-16T11:22:04.892Z</time></trkpt><trkpt lat="53.352704476169414" lon="14.576371540813208"><ele>0.0</ele><time>2026-04-16T11:22:05.892Z</time></trkpt><trkpt lat="53.35266046050379" lon="14.576275052954877"><ele>0.3333333333333333</ele><time>2026-04-16T11:22:06.892Z</time></trkpt><trkpt lat="53.35261119149551" lon="14.576185324067213"><ele>0.6666666666666666</ele><time>2026-04-16T11:22:07.892Z</time></trkpt><trkpt lat="53.35256481538939" lon="14.576090530942684"><ele>1.0</ele><time>2026-04-16T11:22:08.892Z</time></trkpt><trkpt lat="53.352529782125316" lon="14.575944923768834"><ele>1.5</ele><time>2026-04-16T11:22:10.892Z</time></trkpt><trkpt lat="53.352653629079626" lon="14.575684457987585"><ele>2.0</ele><time>2026-04-16T11:22:13.892Z</time></trkpt><trkpt lat="53.35271802124563" lon="14.575563960590918"><ele>2.5</ele><time>2026-04-16T11:22:14.892Z</time></trkpt><trkpt lat="53.35277254008383" lon="14.57545458939781"><ele>3.0</ele><time>2026-04-16T11:22:15.892Z</time></trkpt><trkpt lat="53.35284123052894" lon="14.575307696414367"><ele>3.0</ele><time>2026-04-16T11:22:16.892Z</time></trkpt><trkpt lat="53.35292079159015" lon="14.575137937089625"><ele>3.0</ele><time>2026-04-16T11:22:17.892Z</time></trkpt><trkpt lat="53.35298776715037" lon="14.57500630569549"><ele>3.0</ele><time>2026-04-16T11:22:18.892Z</time></trkpt><trkpt lat="53.35305202048291" lon="14.574919666614482"><ele>3.0</ele><time>2026-04-16T11:22:19.892Z</time></trkpt><trkpt lat="53.353092281210344" lon="14.574827926982772"><ele>3.0</ele><time>2026-04-16T11:22:20.892Z</time></trkpt><trkpt lat="53.35314481733357" lon="14.57466392137"><ele>3.0</ele><time>2026-04-16T11:22:22.892Z</time></trkpt><trkpt lat="53.35311030619666" lon="14.574451569459121"><ele>3.0</ele><time>2026-04-16T11:22:24.892Z</time></trkpt><trkpt lat="53.35301728598875" lon="14.574379074287092"><ele>3.0</ele><time>2026-04-16T11:22:25.892Z</time></trkpt><trkpt lat="53.35295292791751" lon="14.574314593397572"><ele>3.0</ele><time>2026-04-16T11:22:26.892Z</time></trkpt><trkpt lat="53.35287014414292" lon="14.574212136423235"><ele>3.0</ele><time>2026-04-16T11:22:28.892Z</time></trkpt><trkpt lat="53.35286375073487" lon="14.574106162788368"><ele>3.0</ele><time>2026-04-16T11:22:29.892Z</time></trkpt><trkpt lat="53.35295339760864" lon="14.573992741708201"><ele>3.0</ele><time>2026-04-16T11:22:30.892Z</time></trkpt><trkpt lat="53.35301361313854" lon="14.573854086109177"><ele>3.0</ele><time>2026-04-16T11:22:31.892Z</time></trkpt><trkpt lat="53.353082236712154" lon="14.57369606532912"><ele>3.0</ele><time>2026-04-16T11:22:32.892Z</time></trkpt><trkpt lat="53.35314325378522" lon="14.573527473449934"><ele>3.0</ele><time>2026-04-16T11:22:34.892Z</time></trkpt><trkpt lat="53.35320401277866" lon="14.573414929709404"><ele>3.0</ele><time>2026-04-16T11:22:36.892Z</time></trkpt><trkpt lat="53.35330305778338" lon="14.573577979247895"><ele>3.0</ele><time>2026-04-16T11:22:38.893Z</time></trkpt><trkpt lat="53.35337642559318" lon="14.57367497188306"><ele>3.0</ele><time>2026-04-16T11:22:39.893Z</time></trkpt><trkpt lat="53.35345224072454" lon="14.573773237732588"><ele>3.0</ele><time>2026-04-16T11:22:40.893Z</time></trkpt><trkpt lat="53.353535975510766" lon="14.573854273954897"><ele>3.0</ele><time>2026-04-16T11:22:41.893Z</time></trkpt><trkpt lat="53.353614327436944" lon="14.573934600389213"><ele>3.0</ele><time>2026-04-16T11:22:42.893Z</time></trkpt><trkpt lat="53.35368506001903" lon="14.573984116782878"><ele>3.0</ele><time>2026-04-16T11:22:43.893Z</time></trkpt><trkpt lat="53.353756868843185" lon="14.574024655471257"><ele>3.0</ele><time>2026-04-16T11:22:44.893Z</time></trkpt><trkpt lat="53.35382281561133" lon="14.574100573818523"><ele>3.0</ele><time>2026-04-16T11:22:45.893Z</time></trkpt><trkpt lat="53.35390202898126" lon="14.574209318402568"><ele>3.0</ele><time>2026-04-16T11:22:46.893Z</time></trkpt><trkpt lat="53.353978020330636" lon="14.57431036990912"><ele>3.0</ele><time>2026-04-16T11:22:47.893Z</time></trkpt><trkpt lat="53.354044783226" lon="14.574404538172978"><ele>3.0</ele><time>2026-04-16T11:22:48.893Z</time></trkpt><trkpt lat="53.35409792114024" lon="14.57448252367307"><ele>3.0</ele><time>2026-04-16T11:22:49.893Z</time></trkpt><trkpt lat="53.35415568138535" lon="14.574572237779702"><ele>3.0</ele><time>2026-04-16T11:22:50.893Z</time></trkpt><trkpt lat="53.3542107122741" lon="14.574675706295753"><ele>3.0</ele><time>2026-04-16T11:22:51.893Z</time></trkpt><trkpt lat="53.35426226340488" lon="14.574803322167146"><ele>3.0</ele><time>2026-04-16T11:22:52.893Z</time></trkpt><trkpt lat="53.354320543893145" lon="14.574915369866721"><ele>3.0</ele><time>2026-04-16T11:22:53.893Z</time></trkpt><trkpt lat="53.35440333886469" lon="14.574975969087994"><ele>3.0</ele><time>2026-04-16T11:22:54.893Z</time></trkpt><trkpt lat="53.35446023692696" lon="14.575075659309174"><ele>3.0</ele><time>2026-04-16T11:22:55.893Z</time></trkpt><trkpt lat="53.35452796411459" lon="14.575096844091103"><ele>3.0</ele><time>2026-04-16T11:22:56.893Z</time></trkpt><trkpt lat="53.3546454095713" lon="14.575024191242528"><ele>3.0</ele><time>2026-04-16T11:22:58.893Z</time></trkpt><trkpt lat="53.35469380215366" lon="14.574920135183145"><ele>3.0</ele><time>2026-04-16T11:22:59.893Z</time></trkpt><trkpt lat="53.35473544211395" lon="14.574787732068259"><ele>3.0</ele><time>2026-04-16T11:23:00.893Z</time></trkpt><trkpt lat="53.35480483118897" lon="14.574682956655813"><ele>2.8</ele><time>2026-04-16T11:23:01.893Z</time></trkpt><trkpt lat="53.35486557292858" lon="14.574551093062855"><ele>2.5999999999999996</ele><time>2026-04-16T11:23:02.893Z</time></trkpt><trkpt lat="53.35491187187046" lon="14.574401614975143"><ele>2.4000000000000004</ele><time>2026-04-16T11:23:03.893Z</time></trkpt><trkpt lat="53.35497120176066" lon="14.574271313285218"><ele>2.2</ele><time>2026-04-16T11:23:04.893Z</time></trkpt><trkpt lat="53.35504232755912" lon="14.57414344479693"><ele>2.0</ele><time>2026-04-16T11:23:05.893Z</time></trkpt><trkpt lat="53.35509181128798" lon="14.574015156002007"><ele>1.9999999999999998</ele><time>2026-04-16T11:23:06.893Z</time></trkpt><trkpt lat="53.35513693640626" lon="14.573910830042834"><ele>2.0</ele><time>2026-04-16T11:23:07.893Z</time></trkpt><trkpt lat="53.35518867731251" lon="14.573834876776074"><ele>2.0</ele><time>2026-04-16T11:23:08.893Z</time></trkpt><trkpt lat="53.35523612931985" lon="14.573734245472028"><ele>2.0</ele><time>2026-04-16T11:23:09.893Z</time></trkpt><trkpt lat="53.355293569601045" lon="14.573612432562783"><ele>1.9999999999999998</ele><time>2026-04-16T11:23:10.893Z</time></trkpt><trkpt lat="53.35536518347316" lon="14.573460905349801"><ele>2.0</ele><time>2026-04-16T11:23:11.893Z</time></trkpt><trkpt lat="53.35542566547114" lon="14.57332685166011"><ele>4.0</ele><time>2026-04-16T11:23:12.893Z</time></trkpt><trkpt lat="53.35546333375376" lon="14.573242156763337"><ele>4.0</ele><time>2026-04-16T11:23:13.893Z</time></trkpt><trkpt lat="53.35550021899226" lon="14.573154996443337"><ele>4.0</ele><time>2026-04-16T11:23:14.893Z</time></trkpt><trkpt lat="53.35554123191336" lon="14.5730549509645"><ele>-1.0</ele><time>2026-04-16T11:23:16.893Z</time></trkpt></trkseg></trk></gpx>